<?xml version='1.0' encoding='UTF-8'?><gpx version="1.1" creator="JPX - https://github.com/jenetics/jpx" xmlns="http://www.topografix.com/GPX/1/1"><trk><trkseg><trkpt lat="45.7656374" lon="13.6873765"><ele>225.0</ele><time>2026-04-25T08:41:46.207Z</time></trkpt><trkpt lat="45.7656327" lon="13.6874767"><ele>225.0</ele><time>2026-04-25T08:41:49.207Z</time></trkpt><trkpt lat="45.7656178" lon="13.6876223"><ele>225.0</ele><time>2026-04-25T08:41:51.207Z</time></trkpt><trkpt lat="45.7655901" lon="13.687797"><ele>225.0</ele><time>2026-04-25T08:41:53.207Z</time></trkpt><trkpt lat="45.7655793" lon="13.6878941"><ele>225.0</ele><time>2026-04-25T08:41:54.207Z</time></trkpt><trkpt lat="45.7655673" lon="13.6879839"><ele>225.0</ele><time>2026-04-25T08:41:55.207Z</time></trkpt><trkpt lat="45.7655503" lon="13.6881257"><ele>225.0</ele><time>2026-04-25T08:41:57.207Z</time></trkpt><trkpt lat="45.7655473" lon="13.6882173"><ele>225.0</ele><time>2026-04-25T08:41:59.207Z</time></trkpt><trkpt lat="45.7655733" lon="13.6880817"><ele>225.0</ele><time>2026-04-25T08:42:08.207Z</time></trkpt><trkpt lat="45.7655852" lon="13.6879356"><ele>225.0</ele><time>2026-04-25T08:42:10.207Z</time></trkpt><trkpt lat="45.765613" lon="13.6877605"><ele>225.0</ele><time>2026-04-25T08:42:12.207Z</time></trkpt><trkpt lat="45.7656272" lon="13.6876687"><ele>225.0</ele><time>2026-04-25T08:42:13.208Z</time></trkpt><trkpt lat="45.7656408" lon="13.687579"><ele>225.0</ele><time>2026-04-25T08:42:14.207Z</time></trkpt><trkpt lat="45.7656659" lon="13.6874433"><ele>225.0</ele><time>2026-04-25T08:42:16.207Z</time></trkpt><trkpt lat="45.7656893" lon="13.6873554"><ele>225.0</ele><time>2026-04-25T08:42:20.207Z</time></trkpt><trkpt lat="45.7657419" lon="13.6872442"><ele>225.0</ele><time>2026-04-25T08:42:22.207Z</time></trkpt><trkpt lat="45.7658167" lon="13.6871041"><ele>225.0</ele><time>2026-04-25T08:42:24.207Z</time></trkpt><trkpt lat="45.765865" lon="13.6870111"><ele>224.83333333333334</ele><time>2026-04-25T08:42:25.207Z</time></trkpt><trkpt lat="45.765907" lon="13.6869243"><ele>224.66666666666669</ele><time>2026-04-25T08:42:26.207Z</time></trkpt><trkpt lat="45.7659445" lon="13.6868354"><ele>224.5</ele><time>2026-04-25T08:42:27.208Z</time></trkpt><trkpt lat="45.7659739" lon="13.6867301"><ele>224.33333333333334</ele><time>2026-04-25T08:42:28.208Z</time></trkpt><trkpt lat="45.7659941" lon="13.6866154"><ele>224.16666666666669</ele><time>2026-04-25T08:42:29.207Z</time></trkpt><trkpt lat="45.7660091" lon="13.6864945"><ele>224.0</ele><time>2026-04-25T08:42:30.208Z</time></trkpt><trkpt lat="45.7660185" lon="13.6863725"><ele>224.00000000000003</ele><time>2026-04-25T08:42:31.207Z</time></trkpt><trkpt lat="45.7660269" lon="13.6862497"><ele>224.0</ele><time>2026-04-25T08:42:32.207Z</time></trkpt><trkpt lat="45.7660376" lon="13.6861296"><ele>224.0</ele><time>2026-04-25T08:42:33.207Z</time></trkpt><trkpt lat="45.7660468" lon="13.686011"><ele>224.0</ele><time>2026-04-25T08:42:34.207Z</time></trkpt><trkpt lat="45.7660589" lon="13.6858975"><ele>224.00000000000003</ele><time>2026-04-25T08:42:35.207Z</time></trkpt><trkpt lat="45.7660723" lon="13.6857996"><ele>224.0</ele><time>2026-04-25T08:42:36.207Z</time></trkpt><trkpt lat="45.7660953" lon="13.6856573"><ele>224.33333333333334</ele><time>2026-04-25T08:42:38.207Z</time></trkpt><trkpt lat="45.7661013" lon="13.6855587"><ele>224.66666666666669</ele><time>2026-04-25T08:42:40.207Z</time></trkpt><trkpt lat="45.7661035" lon="13.6854582"><ele>225.0</ele><time>2026-04-25T08:42:43.207Z</time></trkpt><trkpt lat="45.7661371" lon="13.6853746"><ele>225.33333333333331</ele><time>2026-04-25T08:42:47.207Z</time></trkpt><trkpt lat="45.7661308" lon="13.6855108"><ele>225.66666666666666</ele><time>2026-04-25T08:43:38.207Z</time></trkpt><trkpt lat="45.7661017" lon="13.6856778"><ele>226.0</ele><time>2026-04-25T08:43:40.207Z</time></trkpt><trkpt lat="45.7660723" lon="13.6858501"><ele>225.99999999999997</ele><time>2026-04-25T08:43:42.207Z</time></trkpt><trkpt lat="45.7660628" lon="13.6859402"><ele>226.0</ele><time>2026-04-25T08:43:43.207Z</time></trkpt><trkpt lat="45.7660405" lon="13.6861126"><ele>226.0</ele><time>2026-04-25T08:43:45.207Z</time></trkpt><trkpt lat="45.7660187" lon="13.6862885"><ele>226.0</ele><time>2026-04-25T08:43:47.207Z</time></trkpt><trkpt lat="45.7660132" lon="13.686385"><ele>225.99999999999997</ele><time>2026-04-25T08:43:48.207Z</time></trkpt><trkpt lat="45.7660068" lon="13.686482"><ele>226.0</ele><time>2026-04-25T08:43:49.207Z</time></trkpt><trkpt lat="45.7659956" lon="13.6865741"><ele>225.75</ele><time>2026-04-25T08:43:50.208Z</time></trkpt><trkpt lat="45.7659727" lon="13.6867327"><ele>225.5</ele><time>2026-04-25T08:43:52.207Z</time></trkpt><trkpt lat="45.7659275" lon="13.6868695"><ele>225.25</ele><time>2026-04-25T08:43:54.207Z</time></trkpt><trkpt lat="45.765856" lon="13.6870023"><ele>225.0</ele><time>2026-04-25T08:43:56.208Z</time></trkpt><trkpt lat="45.7657806" lon="13.6871407"><ele>225.0</ele><time>2026-04-25T08:43:58.207Z</time></trkpt><trkpt lat="45.765721" lon="13.6872417"><ele>225.0</ele><time>2026-04-25T08:44:00.207Z</time></trkpt><trkpt lat="45.7656786" lon="13.6873268"><ele>225.0</ele><time>2026-04-25T08:44:10.208Z</time></trkpt><trkpt lat="45.7656413" lon="13.687463"><ele>225.0</ele><time>2026-04-25T08:44:12.207Z</time></trkpt><trkpt lat="45.7656292" lon="13.6875547"><ele>225.0</ele><time>2026-04-25T08:44:13.207Z</time></trkpt><trkpt lat="45.7656117" lon="13.68766"><ele>225.0</ele><time>2026-04-25T08:44:14.207Z</time></trkpt><trkpt lat="45.7655925" lon="13.6877838"><ele>225.6</ele><time>2026-04-25T08:44:15.207Z</time></trkpt><trkpt lat="45.7655795" lon="13.6879087"><ele>226.2</ele><time>2026-04-25T08:44:16.207Z</time></trkpt><trkpt lat="45.7655614" lon="13.6880476"><ele>226.8</ele><time>2026-04-25T08:44:17.207Z</time></trkpt><trkpt lat="45.7655521" lon="13.6882036"><ele>227.4</ele><time>2026-04-25T08:44:18.207Z</time></trkpt><trkpt lat="45.7655454" lon="13.6883653"><ele>228.0</ele><time>2026-04-25T08:44:19.207Z</time></trkpt><trkpt lat="45.7655396" lon="13.6885312"><ele>229.0</ele><time>2026-04-25T08:44:20.207Z</time></trkpt><trkpt lat="45.7655364" lon="13.6887011"><ele>230.0</ele><time>2026-04-25T08:44:21.208Z</time></trkpt><trkpt lat="45.7655327" lon="13.6888738"><ele>231.0</ele><time>2026-04-25T08:44:22.207Z</time></trkpt><trkpt lat="45.7655267" lon="13.6890468"><ele>232.0</ele><time>2026-04-25T08:44:23.207Z</time></trkpt><trkpt lat="45.7655277" lon="13.6892191"><ele>232.0</ele><time>2026-04-25T08:44:24.208Z</time></trkpt><trkpt lat="45.765526" lon="13.6893844"><ele>232.0</ele><time>2026-04-25T08:44:25.207Z</time></trkpt><trkpt lat="45.7655249" lon="13.6895477"><ele>232.0</ele><time>2026-04-25T08:44:26.207Z</time></trkpt><trkpt lat="45.7655303" lon="13.6897092"><ele>232.0</ele><time>2026-04-25T08:44:27.207Z</time></trkpt><trkpt lat="45.76553" lon="13.6898613"><ele>232.0</ele><time>2026-04-25T08:44:28.207Z</time></trkpt><trkpt lat="45.7655337" lon="13.6900073"><ele>233.0</ele><time>2026-04-25T08:44:29.207Z</time></trkpt><trkpt lat="45.7655308" lon="13.6901647"><ele>234.0</ele><time>2026-04-25T08:44:30.207Z</time></trkpt><trkpt lat="45.7655329" lon="13.6903035"><ele>235.0</ele><time>2026-04-25T08:44:31.207Z</time></trkpt><trkpt lat="45.7655195" lon="13.6904399"><ele>236.0</ele><time>2026-04-25T08:44:32.207Z</time></trkpt><trkpt lat="45.7654991" lon="13.6905767"><ele>237.0</ele><time>2026-04-25T08:44:33.207Z</time></trkpt><trkpt lat="45.7654512" lon="13.6907186"><ele>238.5</ele><time>2026-04-25T08:44:34.207Z</time></trkpt><trkpt lat="45.7653927" lon="13.69086"><ele>240.0</ele><time>2026-04-25T08:44:35.207Z</time></trkpt><trkpt lat="45.765334" lon="13.6910106"><ele>241.5</ele><time>2026-04-25T08:44:36.207Z</time></trkpt><trkpt lat="45.7652745" lon="13.6911514"><ele>243.0</ele><time>2026-04-25T08:44:37.207Z</time></trkpt><trkpt lat="45.7652191" lon="13.6912959"><ele>242.75</ele><time>2026-04-25T08:44:38.207Z</time></trkpt><trkpt lat="45.7651596" lon="13.6914325"><ele>242.5</ele><time>2026-04-25T08:44:39.207Z</time></trkpt><trkpt lat="45.7650952" lon="13.6915764"><ele>242.25</ele><time>2026-04-25T08:44:40.207Z</time></trkpt><trkpt lat="45.7650308" lon="13.6917245"><ele>242.0</ele><time>2026-04-25T08:44:41.207Z</time></trkpt><trkpt lat="45.764973" lon="13.6918878"><ele>242.8</ele><time>2026-04-25T08:44:42.207Z</time></trkpt><trkpt lat="45.7649157" lon="13.6920511"><ele>243.6</ele><time>2026-04-25T08:44:43.208Z</time></trkpt><trkpt lat="45.7648666" lon="13.692202"><ele>244.40000000000003</ele><time>2026-04-25T08:44:44.207Z</time></trkpt><trkpt lat="45.7648236" lon="13.6923315"><ele>245.20000000000002</ele><time>2026-04-25T08:44:45.207Z</time></trkpt><trkpt lat="45.7647786" lon="13.692458"><ele>246.0</ele><time>2026-04-25T08:44:46.207Z</time></trkpt><trkpt lat="45.7647373" lon="13.6925874"><ele>246.0</ele><time>2026-04-25T08:44:47.207Z</time></trkpt><trkpt lat="45.7646984" lon="13.6927228"><ele>246.00000000000003</ele><time>2026-04-25T08:44:48.207Z</time></trkpt><trkpt lat="45.7646509" lon="13.692851"><ele>246.00000000000003</ele><time>2026-04-25T08:44:49.207Z</time></trkpt><trkpt lat="45.7646023" lon="13.6929842"><ele>246.0</ele><time>2026-04-25T08:44:50.207Z</time></trkpt><trkpt lat="45.7645631" lon="13.6931004"><ele>246.0</ele><time>2026-04-25T08:44:51.207Z</time></trkpt><trkpt lat="45.7645265" lon="13.6932134"><ele>246.4</ele><time>2026-04-25T08:44:52.207Z</time></trkpt><trkpt lat="45.764508" lon="13.693338"><ele>246.8</ele><time>2026-04-25T08:44:53.207Z</time></trkpt><trkpt lat="45.7645203" lon="13.6934693"><ele>247.20000000000002</ele><time>2026-04-25T08:44:54.207Z</time></trkpt><trkpt lat="45.7645527" lon="13.6936035"><ele>247.60000000000002</ele><time>2026-04-25T08:44:55.207Z</time></trkpt><trkpt lat="45.7645801" lon="13.693754"><ele>248.0</ele><time>2026-04-25T08:44:56.207Z</time></trkpt><trkpt lat="45.7646076" lon="13.693898"><ele>249.25</ele><time>2026-04-25T08:44:57.207Z</time></trkpt><trkpt lat="45.7646519" lon="13.6940538"><ele>250.5</ele><time>2026-04-25T08:44:58.207Z</time></trkpt><trkpt lat="45.7647104" lon="13.6942033"><ele>251.75</ele><time>2026-04-25T08:44:59.207Z</time></trkpt><trkpt lat="45.7647782" lon="13.6943349"><ele>253.0</ele><time>2026-04-25T08:45:00.207Z</time></trkpt><trkpt lat="45.764847" lon="13.6944698"><ele>254.25</ele><time>2026-04-25T08:45:01.207Z</time></trkpt><trkpt lat="45.7649166" lon="13.694601"><ele>255.5</ele><time>2026-04-25T08:45:02.207Z</time></trkpt><trkpt lat="45.764978" lon="13.6947409"><ele>256.75</ele><time>2026-04-25T08:45:03.207Z</time></trkpt><trkpt lat="45.7650399" lon="13.6948849"><ele>258.0</ele><time>2026-04-25T08:45:04.207Z</time></trkpt><trkpt lat="45.7651012" lon="13.6950359"><ele>258.0</ele><time>2026-04-25T08:45:05.207Z</time></trkpt><trkpt lat="45.7651548" lon="13.6951863"><ele>258.0</ele><time>2026-04-25T08:45:06.207Z</time></trkpt><trkpt lat="45.7652073" lon="13.6953313"><ele>258.0</ele><time>2026-04-25T08:45:07.207Z</time></trkpt><trkpt lat="45.7652508" lon="13.6954726"><ele>258.0</ele><time>2026-04-25T08:45:08.207Z</time></trkpt><trkpt lat="45.7652847" lon="13.6956196"><ele>258.0</ele><time>2026-04-25T08:45:09.207Z</time></trkpt><trkpt lat="45.7653043" lon="13.6957671"><ele>257.0</ele><time>2026-04-25T08:45:10.207Z</time></trkpt><trkpt lat="45.7653214" lon="13.6959148"><ele>256.0</ele><time>2026-04-25T08:45:11.207Z</time></trkpt><trkpt lat="45.7653503" lon="13.6960687"><ele>255.0</ele><time>2026-04-25T08:45:12.207Z</time></trkpt><trkpt lat="45.7653841" lon="13.6962099"><ele>254.0</ele><time>2026-04-25T08:45:13.207Z</time></trkpt><trkpt lat="45.7654163" lon="13.6963442"><ele>253.0</ele><time>2026-04-25T08:45:14.207Z</time></trkpt><trkpt lat="45.7654384" lon="13.6964707"><ele>252.99999999999997</ele><time>2026-04-25T08:45:15.207Z</time></trkpt><trkpt lat="45.7654595" lon="13.6965739"><ele>253.0</ele><time>2026-04-25T08:45:16.207Z</time></trkpt><trkpt lat="45.7654784" lon="13.6966603"><ele>253.0</ele><time>2026-04-25T08:45:17.207Z</time></trkpt><trkpt lat="45.7655153" lon="13.6967577"><ele>253.0</ele><time>2026-04-25T08:45:19.207Z</time></trkpt><trkpt lat="45.7655806" lon="13.6968171"><ele>252.99999999999997</ele><time>2026-04-25T08:45:21.207Z</time></trkpt><trkpt lat="45.7656393" lon="13.6968989"><ele>253.0</ele><time>2026-04-25T08:45:23.207Z</time></trkpt><trkpt lat="45.7657045" lon="13.6969866"><ele>252.99999999999997</ele><time>2026-04-25T08:45:25.207Z</time></trkpt><trkpt lat="45.7657724" lon="13.6970615"><ele>253.0</ele><time>2026-04-25T08:45:27.207Z</time></trkpt><trkpt lat="45.7658466" lon="13.697122"><ele>253.0</ele><time>2026-04-25T08:45:29.207Z</time></trkpt><trkpt lat="45.7659126" lon="13.6971662"><ele>253.0</ele><time>2026-04-25T08:45:31.207Z</time></trkpt><trkpt lat="45.7659852" lon="13.6971972"><ele>252.99999999999997</ele><time>2026-04-25T08:45:34.207Z</time></trkpt><trkpt lat="45.7660853" lon="13.6971772"><ele>253.0</ele><time>2026-04-25T08:46:27.207Z</time></trkpt><trkpt lat="45.7661358" lon="13.697119"><ele>253.0</ele><time>2026-04-25T08:46:28.207Z</time></trkpt><trkpt lat="45.766192" lon="13.6970164"><ele>253.0</ele><time>2026-04-25T08:46:29.207Z</time></trkpt><trkpt lat="45.7662581" lon="13.6969087"><ele>253.0</ele><time>2026-04-25T08:46:30.207Z</time></trkpt><trkpt lat="45.7663291" lon="13.6968007"><ele>253.0</ele><time>2026-04-25T08:46:31.208Z</time></trkpt><trkpt lat="45.7664049" lon="13.6966829"><ele>253.0</ele><time>2026-04-25T08:46:32.207Z</time></trkpt><trkpt lat="45.7664868" lon="13.6965567"><ele>253.0</ele><time>2026-04-25T08:46:33.208Z</time></trkpt><trkpt lat="45.7665721" lon="13.696422"><ele>253.0</ele><time>2026-04-25T08:46:34.207Z</time></trkpt><trkpt lat="45.7666591" lon="13.6962874"><ele>253.0</ele><time>2026-04-25T08:46:35.207Z</time></trkpt><trkpt lat="45.7667447" lon="13.6961462"><ele>253.0</ele><time>2026-04-25T08:46:36.207Z</time></trkpt><trkpt lat="45.766836" lon="13.6960038"><ele>251.25</ele><time>2026-04-25T08:46:37.207Z</time></trkpt><trkpt lat="45.7669256" lon="13.6958652"><ele>249.5</ele><time>2026-04-25T08:46:38.207Z</time></trkpt><trkpt lat="45.7670118" lon="13.6957271"><ele>247.75</ele><time>2026-04-25T08:46:39.208Z</time></trkpt><trkpt lat="45.7670969" lon="13.695595"><ele>246.0</ele><time>2026-04-25T08:46:40.207Z</time></trkpt><trkpt lat="45.7671852" lon="13.695467"><ele>246.0</ele><time>2026-04-25T08:46:41.207Z</time></trkpt><trkpt lat="45.7672847" lon="13.6953473"><ele>246.0</ele><time>2026-04-25T08:46:42.207Z</time></trkpt><trkpt lat="45.7673916" lon="13.6952334"><ele>246.0</ele><time>2026-04-25T08:46:43.207Z</time></trkpt><trkpt lat="45.7675033" lon="13.6951302"><ele>246.0</ele><time>2026-04-25T08:46:44.208Z</time></trkpt><trkpt lat="45.7676136" lon="13.6950483"><ele>245.4</ele><time>2026-04-25T08:46:45.207Z</time></trkpt><trkpt lat="45.7677254" lon="13.6949865"><ele>244.8</ele><time>2026-04-25T08:46:46.207Z</time></trkpt><trkpt lat="45.7678338" lon="13.6949413"><ele>244.20000000000002</ele><time>2026-04-25T08:46:47.207Z</time></trkpt><trkpt lat="45.7679396" lon="13.6949096"><ele>243.60000000000002</ele><time>2026-04-25T08:46:48.207Z</time></trkpt><trkpt lat="45.7680443" lon="13.6948825"><ele>243.0</ele><time>2026-04-25T08:46:49.208Z</time></trkpt><trkpt lat="45.768147" lon="13.6948678"><ele>243.0</ele><time>2026-04-25T08:46:50.208Z</time></trkpt><trkpt lat="45.7682575" lon="13.6948624"><ele>243.0</ele><time>2026-04-25T08:46:51.207Z</time></trkpt><trkpt lat="45.7683723" lon="13.69487"><ele>243.0</ele><time>2026-04-25T08:46:52.207Z</time></trkpt><trkpt lat="45.768488" lon="13.6948911"><ele>243.0</ele><time>2026-04-25T08:46:53.207Z</time></trkpt><trkpt lat="45.7686055" lon="13.6949236"><ele>242.5</ele><time>2026-04-25T08:46:54.208Z</time></trkpt><trkpt lat="45.7687244" lon="13.6949709"><ele>242.0</ele><time>2026-04-25T08:46:55.207Z</time></trkpt><trkpt lat="45.768842" lon="13.6950413"><ele>241.5</ele><time>2026-04-25T08:46:56.207Z</time></trkpt><trkpt lat="45.7689557" lon="13.6951155"><ele>241.0</ele><time>2026-04-25T08:46:57.207Z</time></trkpt><trkpt lat="45.7690638" lon="13.6951963"><ele>239.60000000000002</ele><time>2026-04-25T08:46:58.207Z</time></trkpt><trkpt lat="45.769168" lon="13.6952739"><ele>238.20000000000002</ele><time>2026-04-25T08:46:59.208Z</time></trkpt><trkpt lat="45.7692658" lon="13.6953454"><ele>236.79999999999998</ele><time>2026-04-25T08:47:00.207Z</time></trkpt><trkpt lat="45.7693631" lon="13.6954113"><ele>235.39999999999998</ele><time>2026-04-25T08:47:01.207Z</time></trkpt><trkpt lat="45.7694565" lon="13.6954762"><ele>234.0</ele><time>2026-04-25T08:47:02.207Z</time></trkpt><trkpt lat="45.7695412" lon="13.6955362"><ele>234.0</ele><time>2026-04-25T08:47:03.208Z</time></trkpt><trkpt lat="45.7696094" lon="13.695582"><ele>234.0</ele><time>2026-04-25T08:47:04.207Z</time></trkpt><trkpt lat="45.7696778" lon="13.6956509"><ele>234.0</ele><time>2026-04-25T08:47:06.207Z</time></trkpt><trkpt lat="45.7696886" lon="13.6955505"><ele>234.0</ele><time>2026-04-25T08:47:21.207Z</time></trkpt><trkpt lat="45.7696054" lon="13.6955117"><ele>234.0</ele><time>2026-04-25T08:47:22.207Z</time></trkpt><trkpt lat="45.7695393" lon="13.6954781"><ele>234.0</ele><time>2026-04-25T08:47:23.208Z</time></trkpt><trkpt lat="45.7694556" lon="13.6954292"><ele>233.75</ele><time>2026-04-25T08:47:24.207Z</time></trkpt><trkpt lat="45.7693493" lon="13.69536"><ele>233.5</ele><time>2026-04-25T08:47:25.207Z</time></trkpt><trkpt lat="45.7692336" lon="13.6952857"><ele>233.25</ele><time>2026-04-25T08:47:26.207Z</time></trkpt><trkpt lat="45.76912" lon="13.6952139"><ele>233.0</ele><time>2026-04-25T08:47:27.207Z</time></trkpt><trkpt lat="45.7690115" lon="13.6951406"><ele>234.60000000000002</ele><time>2026-04-25T08:47:28.207Z</time></trkpt><trkpt lat="45.7689101" lon="13.6950726"><ele>236.20000000000002</ele><time>2026-04-25T08:47:29.207Z</time></trkpt><trkpt lat="45.7688138" lon="13.6950147"><ele>237.8</ele><time>2026-04-25T08:47:30.207Z</time></trkpt><trkpt lat="45.7687322" lon="13.6949558"><ele>239.4</ele><time>2026-04-25T08:47:31.207Z</time></trkpt><trkpt lat="45.7686614" lon="13.6948948"><ele>241.0</ele><time>2026-04-25T08:47:32.207Z</time></trkpt><trkpt lat="45.7686066" lon="13.6948225"><ele>241.0</ele><time>2026-04-25T08:47:33.208Z</time></trkpt><trkpt lat="45.7685647" lon="13.6947416"><ele>241.00000000000003</ele><time>2026-04-25T08:47:34.208Z</time></trkpt><trkpt lat="45.7685339" lon="13.6946531"><ele>241.0</ele><time>2026-04-25T08:47:35.207Z</time></trkpt><trkpt lat="45.7685078" lon="13.6945616"><ele>241.0</ele><time>2026-04-25T08:47:36.207Z</time></trkpt><trkpt lat="45.7685041" lon="13.6944574"><ele>241.00000000000003</ele><time>2026-04-25T08:47:37.207Z</time></trkpt><trkpt lat="45.768506" lon="13.6943498"><ele>241.0</ele><time>2026-04-25T08:47:38.207Z</time></trkpt><trkpt lat="45.7685142" lon="13.6942408"><ele>241.0</ele><time>2026-04-25T08:47:39.207Z</time></trkpt><trkpt lat="45.7685275" lon="13.69412"><ele>240.60000000000002</ele><time>2026-04-25T08:47:40.207Z</time></trkpt><trkpt lat="45.7685347" lon="13.6939944"><ele>240.20000000000002</ele><time>2026-04-25T08:47:41.207Z</time></trkpt><trkpt lat="45.7685391" lon="13.69386"><ele>239.79999999999998</ele><time>2026-04-25T08:47:42.208Z</time></trkpt><trkpt lat="45.7685319" lon="13.6937202"><ele>239.39999999999998</ele><time>2026-04-25T08:47:43.207Z</time></trkpt><trkpt lat="45.7685251" lon="13.6935802"><ele>239.0</ele><time>2026-04-25T08:47:44.207Z</time></trkpt><trkpt lat="45.7685171" lon="13.6934517"><ele>239.00000000000003</ele><time>2026-04-25T08:47:45.208Z</time></trkpt><trkpt lat="45.7685143" lon="13.6933331"><ele>239.0</ele><time>2026-04-25T08:47:46.207Z</time></trkpt><trkpt lat="45.7685135" lon="13.693219"><ele>239.0</ele><time>2026-04-25T08:47:47.207Z</time></trkpt><trkpt lat="45.7685211" lon="13.6931161"><ele>239.0</ele><time>2026-04-25T08:47:48.207Z</time></trkpt><trkpt lat="45.7685412" lon="13.6930108"><ele>239.00000000000003</ele><time>2026-04-25T08:47:50.207Z</time></trkpt><trkpt lat="45.7685481" lon="13.6929199"><ele>239.0</ele><time>2026-04-25T08:48:35.207Z</time></trkpt><trkpt lat="45.7684943" lon="13.6929988"><ele>239.0</ele><time>2026-04-25T08:48:38.207Z</time></trkpt><trkpt lat="45.7684991" lon="13.6931804"><ele>238.99999999999997</ele><time>2026-04-25T08:48:40.207Z</time></trkpt><trkpt lat="45.7685112" lon="13.6933138"><ele>238.99999999999997</ele><time>2026-04-25T08:48:41.207Z</time></trkpt><trkpt lat="45.7685171" lon="13.6934705"><ele>239.0</ele><time>2026-04-25T08:48:42.207Z</time></trkpt><trkpt lat="45.76852" lon="13.6936198"><ele>239.0</ele><time>2026-04-25T08:48:43.207Z</time></trkpt><trkpt lat="45.7685183" lon="13.6937735"><ele>239.50000000000003</ele><time>2026-04-25T08:48:44.208Z</time></trkpt><trkpt lat="45.7685201" lon="13.6939049"><ele>240.0</ele><time>2026-04-25T08:48:45.207Z</time></trkpt><trkpt lat="45.7685182" lon="13.6940327"><ele>240.5</ele><time>2026-04-25T08:48:46.207Z</time></trkpt><trkpt lat="45.768511" lon="13.6941477"><ele>241.0</ele><time>2026-04-25T08:48:47.207Z</time></trkpt><trkpt lat="45.7685019" lon="13.694259"><ele>241.50000000000003</ele><time>2026-04-25T08:48:48.207Z</time></trkpt><trkpt lat="45.7684919" lon="13.6943595"><ele>242.0</ele><time>2026-04-25T08:48:49.207Z</time></trkpt><trkpt lat="45.7684848" lon="13.6944513"><ele>242.2</ele><time>2026-04-25T08:48:50.207Z</time></trkpt><trkpt lat="45.7684657" lon="13.6946147"><ele>242.39999999999998</ele><time>2026-04-25T08:48:52.207Z</time></trkpt><trkpt lat="45.7684371" lon="13.6947332"><ele>242.60000000000002</ele><time>2026-04-25T08:48:54.208Z</time></trkpt><trkpt lat="45.7684576" lon="13.6948353"><ele>242.8</ele><time>2026-04-25T08:48:57.207Z</time></trkpt><trkpt lat="45.7685617" lon="13.6949167"><ele>243.0</ele><time>2026-04-25T08:48:59.207Z</time></trkpt><trkpt lat="45.7686404" lon="13.6949464"><ele>242.5</ele><time>2026-04-25T08:49:00.207Z</time></trkpt><trkpt lat="45.7687346" lon="13.6949877"><ele>242.0</ele><time>2026-04-25T08:49:01.207Z</time></trkpt><trkpt lat="45.7688355" lon="13.6950451"><ele>241.5</ele><time>2026-04-25T08:49:02.207Z</time></trkpt><trkpt lat="45.7689506" lon="13.6951159"><ele>241.0</ele><time>2026-04-25T08:49:03.208Z</time></trkpt><trkpt lat="45.7690738" lon="13.6952016"><ele>239.25</ele><time>2026-04-25T08:49:04.207Z</time></trkpt><trkpt lat="45.7691977" lon="13.6952859"><ele>237.5</ele><time>2026-04-25T08:49:05.208Z</time></trkpt><trkpt lat="45.769329" lon="13.6953735"><ele>235.75</ele><time>2026-04-25T08:49:06.207Z</time></trkpt><trkpt lat="45.7694651" lon="13.6954559"><ele>234.0</ele><time>2026-04-25T08:49:07.207Z</time></trkpt><trkpt lat="45.7696014" lon="13.6955444"><ele>234.0</ele><time>2026-04-25T08:49:08.207Z</time></trkpt><trkpt lat="45.7697305" lon="13.6956398"><ele>234.0</ele><time>2026-04-25T08:49:09.207Z</time></trkpt><trkpt lat="45.7698619" lon="13.6957376"><ele>234.0</ele><time>2026-04-25T08:49:10.207Z</time></trkpt><trkpt lat="45.7699896" lon="13.6958319"><ele>234.0</ele><time>2026-04-25T08:49:11.207Z</time></trkpt><trkpt lat="45.7701174" lon="13.6959227"><ele>235.75</ele><time>2026-04-25T08:49:12.207Z</time></trkpt><trkpt lat="45.7702486" lon="13.6960033"><ele>237.5</ele><time>2026-04-25T08:49:13.207Z</time></trkpt><trkpt lat="45.770389" lon="13.6960753"><ele>239.25</ele><time>2026-04-25T08:49:14.207Z</time></trkpt><trkpt lat="45.7705274" lon="13.6961505"><ele>241.0</ele><time>2026-04-25T08:49:15.207Z</time></trkpt><trkpt lat="45.7706728" lon="13.6962165"><ele>235.0</ele><time>2026-04-25T08:49:16.207Z</time></trkpt><trkpt lat="45.7708252" lon="13.6962738"><ele>229.0</ele><time>2026-04-25T08:49:17.207Z</time></trkpt><trkpt lat="45.7709835" lon="13.6963237"><ele>223.0</ele><time>2026-04-25T08:49:18.207Z</time></trkpt><trkpt lat="45.7711446" lon="13.6963636"><ele>223.0</ele><time>2026-04-25T08:49:19.207Z</time></trkpt><trkpt lat="45.7713059" lon="13.69639"><ele>223.0</ele><time>2026-04-25T08:49:20.207Z</time></trkpt><trkpt lat="45.7714699" lon="13.6964034"><ele>223.0</ele><time>2026-04-25T08:49:21.207Z</time></trkpt><trkpt lat="45.7716364" lon="13.6964092"><ele>223.0</ele><time>2026-04-25T08:49:22.207Z</time></trkpt><trkpt lat="45.7718076" lon="13.6964057"><ele>223.0</ele><time>2026-04-25T08:49:23.207Z</time></trkpt><trkpt lat="45.7719819" lon="13.6963947"><ele>223.0</ele><time>2026-04-25T08:49:24.207Z</time></trkpt><trkpt lat="45.7721571" lon="13.6964011"><ele>223.0</ele><time>2026-04-25T08:49:25.207Z</time></trkpt><trkpt lat="45.7723432" lon="13.6963999"><ele>223.0</ele><time>2026-04-25T08:49:26.207Z</time></trkpt><trkpt lat="45.7725188" lon="13.6963899"><ele>223.0</ele><time>2026-04-25T08:49:27.207Z</time></trkpt><trkpt lat="45.7727009" lon="13.6963991"><ele>223.0</ele><time>2026-04-25T08:49:28.207Z</time></trkpt><trkpt lat="45.7728758" lon="13.6964235"><ele>223.0</ele><time>2026-04-25T08:49:29.208Z</time></trkpt><trkpt lat="45.7730443" lon="13.696452"><ele>223.0</ele><time>2026-04-25T08:49:30.207Z</time></trkpt><trkpt lat="45.7732274" lon="13.6965161"><ele>223.0</ele><time>2026-04-25T08:49:31.207Z</time></trkpt><trkpt lat="45.7734032" lon="13.6965718"><ele>223.0</ele><time>2026-04-25T08:49:32.207Z</time></trkpt><trkpt lat="45.7735761" lon="13.6966239"><ele>223.0</ele><time>2026-04-25T08:49:33.207Z</time></trkpt><trkpt lat="45.773751" lon="13.6966759"><ele>224.66666666666666</ele><time>2026-04-25T08:49:34.207Z</time></trkpt><trkpt lat="45.7739202" lon="13.6967324"><ele>226.33333333333331</ele><time>2026-04-25T08:49:35.208Z</time></trkpt><trkpt lat="45.7740841" lon="13.6967904"><ele>228.0</ele><time>2026-04-25T08:49:36.207Z</time></trkpt><trkpt lat="45.7742448" lon="13.6968376"><ele>229.66666666666669</ele><time>2026-04-25T08:49:37.207Z</time></trkpt><trkpt lat="45.7744037" lon="13.6968886"><ele>231.33333333333334</ele><time>2026-04-25T08:49:38.208Z</time></trkpt><trkpt lat="45.7745529" lon="13.6969638"><ele>233.0</ele><time>2026-04-25T08:49:39.207Z</time></trkpt><trkpt lat="45.77469" lon="13.6970641"><ele>228.66666666666669</ele><time>2026-04-25T08:49:40.207Z</time></trkpt><trkpt lat="45.7748289" lon="13.6971879"><ele>224.33333333333331</ele><time>2026-04-25T08:49:41.207Z</time></trkpt><trkpt lat="45.7749582" lon="13.6973217"><ele>220.0</ele><time>2026-04-25T08:49:42.207Z</time></trkpt><trkpt lat="45.7750832" lon="13.6974645"><ele>220.33333333333331</ele><time>2026-04-25T08:49:43.207Z</time></trkpt><trkpt lat="45.7752053" lon="13.6976009"><ele>220.66666666666669</ele><time>2026-04-25T08:49:44.207Z</time></trkpt><trkpt lat="45.7753238" lon="13.697735"><ele>221.0</ele><time>2026-04-25T08:49:45.207Z</time></trkpt><trkpt lat="45.7754444" lon="13.6978691"><ele>218.33333333333334</ele><time>2026-04-25T08:49:46.207Z</time></trkpt><trkpt lat="45.7755726" lon="13.6980082"><ele>215.66666666666669</ele><time>2026-04-25T08:49:47.207Z</time></trkpt><trkpt lat="45.7757136" lon="13.6981456"><ele>213.0</ele><time>2026-04-25T08:49:48.207Z</time></trkpt><trkpt lat="45.7758568" lon="13.6982848"><ele>213.0</ele><time>2026-04-25T08:49:49.207Z</time></trkpt><trkpt lat="45.7760047" lon="13.6984188"><ele>213.0</ele><time>2026-04-25T08:49:50.207Z</time></trkpt><trkpt lat="45.7761519" lon="13.6985466"><ele>213.0</ele><time>2026-04-25T08:49:51.207Z</time></trkpt><trkpt lat="45.7762997" lon="13.698663"><ele>211.66666666666669</ele><time>2026-04-25T08:49:52.207Z</time></trkpt><trkpt lat="45.7764428" lon="13.6987786"><ele>210.33333333333334</ele><time>2026-04-25T08:49:53.207Z</time></trkpt><trkpt lat="45.7765769" lon="13.698895"><ele>209.0</ele><time>2026-04-25T08:49:54.207Z</time></trkpt><trkpt lat="45.7767029" lon="13.6990191"><ele>209.0</ele><time>2026-04-25T08:49:55.207Z</time></trkpt><trkpt lat="45.7768204" lon="13.6991438"><ele>209.0</ele><time>2026-04-25T08:49:56.208Z</time></trkpt><trkpt lat="45.7769347" lon="13.6992639"><ele>209.0</ele><time>2026-04-25T08:49:57.207Z</time></trkpt><trkpt lat="45.777048" lon="13.699389"><ele>209.0</ele><time>2026-04-25T08:49:58.207Z</time></trkpt><trkpt lat="45.7771677" lon="13.6995177"><ele>205.66666666666669</ele><time>2026-04-25T08:49:59.207Z</time></trkpt><trkpt lat="45.7772902" lon="13.6996521"><ele>202.33333333333331</ele><time>2026-04-25T08:50:00.207Z</time></trkpt><trkpt lat="45.7774176" lon="13.6997903"><ele>199.0</ele><time>2026-04-25T08:50:01.207Z</time></trkpt><trkpt lat="45.777549" lon="13.6999294"><ele>199.0</ele><time>2026-04-25T08:50:02.207Z</time></trkpt><trkpt lat="45.7776787" lon="13.7000679"><ele>199.0</ele><time>2026-04-25T08:50:03.207Z</time></trkpt><trkpt lat="45.7778034" lon="13.7002035"><ele>199.0</ele><time>2026-04-25T08:50:04.207Z</time></trkpt><trkpt lat="45.7779197" lon="13.7003443"><ele>197.5</ele><time>2026-04-25T08:50:05.207Z</time></trkpt><trkpt lat="45.7780317" lon="13.7004871"><ele>196.0</ele><time>2026-04-25T08:50:06.207Z</time></trkpt><trkpt lat="45.7781448" lon="13.7006195"><ele>194.5</ele><time>2026-04-25T08:50:07.207Z</time></trkpt><trkpt lat="45.7782638" lon="13.7007347"><ele>193.0</ele><time>2026-04-25T08:50:08.207Z</time></trkpt><trkpt lat="45.7783838" lon="13.7008144"><ele>193.0</ele><time>2026-04-25T08:50:09.208Z</time></trkpt><trkpt lat="45.7785017" lon="13.7008607"><ele>193.0</ele><time>2026-04-25T08:50:10.207Z</time></trkpt><trkpt lat="45.7786139" lon="13.7008847"><ele>193.0</ele><time>2026-04-25T08:50:11.207Z</time></trkpt><trkpt lat="45.7787263" lon="13.7009008"><ele>193.0</ele><time>2026-04-25T08:50:12.207Z</time></trkpt><trkpt lat="45.7788435" lon="13.7008985"><ele>191.5</ele><time>2026-04-25T08:50:13.207Z</time></trkpt><trkpt lat="45.7789622" lon="13.7008744"><ele>190.0</ele><time>2026-04-25T08:50:14.207Z</time></trkpt><trkpt lat="45.7790784" lon="13.700841"><ele>188.5</ele><time>2026-04-25T08:50:15.207Z</time></trkpt><trkpt lat="45.7791996" lon="13.7007917"><ele>187.0</ele><time>2026-04-25T08:50:16.207Z</time></trkpt><trkpt lat="45.7793202" lon="13.7007407"><ele>185.5</ele><time>2026-04-25T08:50:17.207Z</time></trkpt><trkpt lat="45.7794416" lon="13.7006955"><ele>184.0</ele><time>2026-04-25T08:50:18.207Z</time></trkpt><trkpt lat="45.779558" lon="13.7006541"><ele>182.5</ele><time>2026-04-25T08:50:19.207Z</time></trkpt><trkpt lat="45.7796803" lon="13.7006124"><ele>181.0</ele><time>2026-04-25T08:50:20.208Z</time></trkpt><trkpt lat="45.7798118" lon="13.7005672"><ele>181.0</ele><time>2026-04-25T08:50:21.207Z</time></trkpt><trkpt lat="45.7799425" lon="13.7005163"><ele>181.0</ele><time>2026-04-25T08:50:22.207Z</time></trkpt><trkpt lat="45.7800824" lon="13.700472"><ele>181.0</ele><time>2026-04-25T08:50:23.207Z</time></trkpt><trkpt lat="45.7802124" lon="13.7004199"><ele>181.0</ele><time>2026-04-25T08:50:24.207Z</time></trkpt><trkpt lat="45.7803449" lon="13.7003725"><ele>179.75</ele><time>2026-04-25T08:50:25.207Z</time></trkpt><trkpt lat="45.7804743" lon="13.700319"><ele>178.5</ele><time>2026-04-25T08:50:26.207Z</time></trkpt><trkpt lat="45.7805989" lon="13.7002682"><ele>177.25</ele><time>2026-04-25T08:50:27.207Z</time></trkpt><trkpt lat="45.7807248" lon="13.700221"><ele>176.0</ele><time>2026-04-25T08:50:28.207Z</time></trkpt><trkpt lat="45.7808484" lon="13.7001791"><ele>176.0</ele><time>2026-04-25T08:50:29.207Z</time></trkpt><trkpt lat="45.7809668" lon="13.7001316"><ele>176.0</ele><time>2026-04-25T08:50:30.207Z</time></trkpt><trkpt lat="45.7810765" lon="13.70008"><ele>176.0</ele><time>2026-04-25T08:50:31.207Z</time></trkpt><trkpt lat="45.7811853" lon="13.7000343"><ele>176.0</ele><time>2026-04-25T08:50:32.207Z</time></trkpt><trkpt lat="45.7812884" lon="13.6999894"><ele>174.4</ele><time>2026-04-25T08:50:33.207Z</time></trkpt><trkpt lat="45.7813906" lon="13.6999425"><ele>172.8</ele><time>2026-04-25T08:50:34.207Z</time></trkpt><trkpt lat="45.7814887" lon="13.6998988"><ele>171.20000000000002</ele><time>2026-04-25T08:50:35.207Z</time></trkpt><trkpt lat="45.7815834" lon="13.699854"><ele>169.60000000000002</ele><time>2026-04-25T08:50:36.207Z</time></trkpt><trkpt lat="45.7816661" lon="13.6998225"><ele>168.0</ele><time>2026-04-25T08:50:37.207Z</time></trkpt><trkpt lat="45.7817366" lon="13.699799"><ele>168.0</ele><time>2026-04-25T08:50:38.207Z</time></trkpt><trkpt lat="45.7818305" lon="13.6997687"><ele>168.0</ele><time>2026-04-25T08:50:40.207Z</time></trkpt><trkpt lat="45.7819129" lon="13.699776"><ele>168.0</ele><time>2026-04-25T08:50:43.207Z</time></trkpt><trkpt lat="45.7819779" lon="13.6997204"><ele>168.0</ele><time>2026-04-25T08:51:05.207Z</time></trkpt><trkpt lat="45.7820978" lon="13.6997126"><ele>168.0</ele><time>2026-04-25T08:51:07.207Z</time></trkpt><trkpt lat="45.7821804" lon="13.6997189"><ele>168.0</ele><time>2026-04-25T08:51:08.207Z</time></trkpt><trkpt lat="45.7822855" lon="13.6997342"><ele>168.0</ele><time>2026-04-25T08:51:09.207Z</time></trkpt><trkpt lat="45.7823937" lon="13.6997489"><ele>168.0</ele><time>2026-04-25T08:51:10.207Z</time></trkpt><trkpt lat="45.7825152" lon="13.6997638"><ele>168.0</ele><time>2026-04-25T08:51:11.207Z</time></trkpt><trkpt lat="45.7826396" lon="13.6997806"><ele>166.25</ele><time>2026-04-25T08:51:12.207Z</time></trkpt><trkpt lat="45.7827682" lon="13.699804"><ele>164.5</ele><time>2026-04-25T08:51:13.207Z</time></trkpt><trkpt lat="45.7828966" lon="13.6998181"><ele>162.75</ele><time>2026-04-25T08:51:14.208Z</time></trkpt><trkpt lat="45.7830276" lon="13.699834"><ele>161.0</ele><time>2026-04-25T08:51:15.207Z</time></trkpt><trkpt lat="45.7831637" lon="13.6998553"><ele>161.0</ele><time>2026-04-25T08:51:16.207Z</time></trkpt><trkpt lat="45.7832996" lon="13.6998817"><ele>161.0</ele><time>2026-04-25T08:51:17.207Z</time></trkpt><trkpt lat="45.7834319" lon="13.6999005"><ele>161.0</ele><time>2026-04-25T08:51:18.207Z</time></trkpt><trkpt lat="45.7835545" lon="13.6999197"><ele>161.0</ele><time>2026-04-25T08:51:19.207Z</time></trkpt><trkpt lat="45.7836724" lon="13.6999351"><ele>161.75</ele><time>2026-04-25T08:51:20.207Z</time></trkpt><trkpt lat="45.7837821" lon="13.6999588"><ele>162.5</ele><time>2026-04-25T08:51:21.207Z</time></trkpt><trkpt lat="45.7838953" lon="13.6999923"><ele>163.25</ele><time>2026-04-25T08:51:22.207Z</time></trkpt><trkpt lat="45.7840042" lon="13.7000528"><ele>164.0</ele><time>2026-04-25T08:51:23.207Z</time></trkpt><trkpt lat="45.7841143" lon="13.7001395"><ele>164.0</ele><time>2026-04-25T08:51:24.207Z</time></trkpt><trkpt lat="45.7842194" lon="13.7002421"><ele>164.0</ele><time>2026-04-25T08:51:25.207Z</time></trkpt><trkpt lat="45.7843265" lon="13.7003332"><ele>164.0</ele><time>2026-04-25T08:51:26.207Z</time></trkpt><trkpt lat="45.7844255" lon="13.7004282"><ele>164.0</ele><time>2026-04-25T08:51:27.207Z</time></trkpt><trkpt lat="45.7845123" lon="13.7005249"><ele>162.2</ele><time>2026-04-25T08:51:28.207Z</time></trkpt><trkpt lat="45.7845887" lon="13.7006096"><ele>160.39999999999998</ele><time>2026-04-25T08:51:29.207Z</time></trkpt><trkpt lat="45.7846508" lon="13.70068"><ele>158.6</ele><time>2026-04-25T08:51:30.207Z</time></trkpt><trkpt lat="45.7847056" lon="13.7007461"><ele>156.8</ele><time>2026-04-25T08:51:31.207Z</time></trkpt><trkpt lat="45.7848021" lon="13.7008277"><ele>155.0</ele><time>2026-04-25T08:51:33.207Z</time></trkpt><trkpt lat="45.7849037" lon="13.7009225"><ele>155.0</ele><time>2026-04-25T08:51:35.207Z</time></trkpt><trkpt lat="45.7849598" lon="13.7009715"><ele>155.0</ele><time>2026-04-25T08:51:36.207Z</time></trkpt><trkpt lat="45.7850197" lon="13.70102"><ele>155.0</ele><time>2026-04-25T08:51:37.207Z</time></trkpt><trkpt lat="45.7851121" lon="13.7010984"><ele>155.0</ele><time>2026-04-25T08:51:39.207Z</time></trkpt><trkpt lat="45.7851801" lon="13.701161"><ele>155.0</ele><time>2026-04-25T08:51:41.207Z</time></trkpt><trkpt lat="45.7852393" lon="13.7012286"><ele>155.0</ele><time>2026-04-25T08:51:43.207Z</time></trkpt><trkpt lat="45.7853208" lon="13.701323"><ele>154.5</ele><time>2026-04-25T08:51:45.207Z</time></trkpt><trkpt lat="45.7853702" lon="13.7013822"><ele>154.0</ele><time>2026-04-25T08:51:46.207Z</time></trkpt><trkpt lat="45.7854191" lon="13.7014543"><ele>153.5</ele><time>2026-04-25T08:51:47.207Z</time></trkpt><trkpt lat="45.7854745" lon="13.7015296"><ele>153.0</ele><time>2026-04-25T08:51:48.207Z</time></trkpt><trkpt lat="45.7855309" lon="13.7016072"><ele>152.5</ele><time>2026-04-25T08:51:49.207Z</time></trkpt><trkpt lat="45.7855932" lon="13.7016892"><ele>152.0</ele><time>2026-04-25T08:51:50.207Z</time></trkpt><trkpt lat="45.7856713" lon="13.7017887"><ele>152.0</ele><time>2026-04-25T08:51:51.207Z</time></trkpt><trkpt lat="45.7857557" lon="13.7018922"><ele>152.0</ele><time>2026-04-25T08:51:52.207Z</time></trkpt><trkpt lat="45.7858465" lon="13.7020123"><ele>152.0</ele><time>2026-04-25T08:51:53.207Z</time></trkpt><trkpt lat="45.7859398" lon="13.7021389"><ele>152.0</ele><time>2026-04-25T08:51:54.207Z</time></trkpt><trkpt lat="45.786039" lon="13.7022736"><ele>151.75</ele><time>2026-04-25T08:51:55.207Z</time></trkpt><trkpt lat="45.7861473" lon="13.7024125"><ele>151.5</ele><time>2026-04-25T08:51:56.207Z</time></trkpt><trkpt lat="45.786256" lon="13.7025523"><ele>151.25</ele><time>2026-04-25T08:51:57.207Z</time></trkpt><trkpt lat="45.7863696" lon="13.7026818"><ele>151.0</ele><time>2026-04-25T08:51:58.207Z</time></trkpt><trkpt lat="45.7864906" lon="13.7027995"><ele>151.5</ele><time>2026-04-25T08:51:59.207Z</time></trkpt><trkpt lat="45.786614" lon="13.7028996"><ele>152.0</ele><time>2026-04-25T08:52:00.207Z</time></trkpt><trkpt lat="45.7867427" lon="13.7029831"><ele>152.5</ele><time>2026-04-25T08:52:01.207Z</time></trkpt><trkpt lat="45.7868669" lon="13.7030602"><ele>153.0</ele><time>2026-04-25T08:52:02.207Z</time></trkpt><trkpt lat="45.7869826" lon="13.7031346"><ele>153.0</ele><time>2026-04-25T08:52:03.207Z</time></trkpt><trkpt lat="45.7870974" lon="13.7032248"><ele>153.0</ele><time>2026-04-25T08:52:04.208Z</time></trkpt><trkpt lat="45.7872101" lon="13.7033439"><ele>153.0</ele><time>2026-04-25T08:52:05.207Z</time></trkpt><trkpt lat="45.7873163" lon="13.7034888"><ele>153.0</ele><time>2026-04-25T08:52:06.208Z</time></trkpt><trkpt lat="45.7874245" lon="13.7036391"><ele>153.0</ele><time>2026-04-25T08:52:07.207Z</time></trkpt><trkpt lat="45.7875299" lon="13.7037847"><ele>153.0</ele><time>2026-04-25T08:52:08.207Z</time></trkpt><trkpt lat="45.7876362" lon="13.7039317"><ele>153.0</ele><time>2026-04-25T08:52:09.207Z</time></trkpt><trkpt lat="45.7877382" lon="13.7040816"><ele>153.0</ele><time>2026-04-25T08:52:10.207Z</time></trkpt><trkpt lat="45.7878341" lon="13.7042342"><ele>153.0</ele><time>2026-04-25T08:52:11.207Z</time></trkpt><trkpt lat="45.7879179" lon="13.704395"><ele>153.0</ele><time>2026-04-25T08:52:12.207Z</time></trkpt><trkpt lat="45.7879819" lon="13.70457"><ele>153.0</ele><time>2026-04-25T08:52:13.207Z</time></trkpt><trkpt lat="45.7880254" lon="13.704748"><ele>153.0</ele><time>2026-04-25T08:52:14.207Z</time></trkpt><trkpt lat="45.7880631" lon="13.7049122"><ele>152.75</ele><time>2026-04-25T08:52:15.208Z</time></trkpt><trkpt lat="45.7881157" lon="13.7050719"><ele>152.5</ele><time>2026-04-25T08:52:16.207Z</time></trkpt><trkpt lat="45.7881996" lon="13.7052243"><ele>152.25</ele><time>2026-04-25T08:52:17.207Z</time></trkpt><trkpt lat="45.7882973" lon="13.7053708"><ele>152.0</ele><time>2026-04-25T08:52:18.207Z</time></trkpt><trkpt lat="45.7884049" lon="13.705505"><ele>151.75</ele><time>2026-04-25T08:52:19.207Z</time></trkpt><trkpt lat="45.7885128" lon="13.7056396"><ele>151.5</ele><time>2026-04-25T08:52:20.207Z</time></trkpt><trkpt lat="45.7886191" lon="13.7057701"><ele>151.25</ele><time>2026-04-25T08:52:21.207Z</time></trkpt><trkpt lat="45.7887311" lon="13.7058948"><ele>151.0</ele><time>2026-04-25T08:52:22.208Z</time></trkpt><trkpt lat="45.7888456" lon="13.7060148"><ele>152.0</ele><time>2026-04-25T08:52:23.207Z</time></trkpt><trkpt lat="45.788962" lon="13.7061276"><ele>153.0</ele><time>2026-04-25T08:52:24.207Z</time></trkpt><trkpt lat="45.7890736" lon="13.706234"><ele>154.0</ele><time>2026-04-25T08:52:25.207Z</time></trkpt><trkpt lat="45.7891769" lon="13.7063349"><ele>155.0</ele><time>2026-04-25T08:52:26.207Z</time></trkpt><trkpt lat="45.7892776" lon="13.7064244"><ele>153.25</ele><time>2026-04-25T08:52:27.208Z</time></trkpt><trkpt lat="45.7893946" lon="13.7065016"><ele>151.5</ele><time>2026-04-25T08:52:28.207Z</time></trkpt><trkpt lat="45.789521" lon="13.7065637"><ele>149.75</ele><time>2026-04-25T08:52:29.208Z</time></trkpt><trkpt lat="45.7896463" lon="13.7066137"><ele>148.0</ele><time>2026-04-25T08:52:30.207Z</time></trkpt><trkpt lat="45.7897674" lon="13.7066666"><ele>148.0</ele><time>2026-04-25T08:52:31.207Z</time></trkpt><trkpt lat="45.7898827" lon="13.7067258"><ele>148.0</ele><time>2026-04-25T08:52:32.207Z</time></trkpt><trkpt lat="45.7900113" lon="13.7067968"><ele>148.0</ele><time>2026-04-25T08:52:33.207Z</time></trkpt><trkpt lat="45.7901459" lon="13.7068727"><ele>148.0</ele><time>2026-04-25T08:52:34.207Z</time></trkpt><trkpt lat="45.7902814" lon="13.7069517"><ele>148.0</ele><time>2026-04-25T08:52:35.207Z</time></trkpt><trkpt lat="45.7904216" lon="13.7070224"><ele>148.0</ele><time>2026-04-25T08:52:36.207Z</time></trkpt><trkpt lat="45.7905629" lon="13.7070846"><ele>148.0</ele><time>2026-04-25T08:52:37.207Z</time></trkpt><trkpt lat="45.7907064" lon="13.7071353"><ele>148.0</ele><time>2026-04-25T08:52:38.207Z</time></trkpt><trkpt lat="45.7908521" lon="13.7071744"><ele>148.0</ele><time>2026-04-25T08:52:39.207Z</time></trkpt><trkpt lat="45.7909997" lon="13.7072098"><ele>148.0</ele><time>2026-04-25T08:52:40.207Z</time></trkpt><trkpt lat="45.7911517" lon="13.707239"><ele>148.0</ele><time>2026-04-25T08:52:41.207Z</time></trkpt><trkpt lat="45.7913056" lon="13.7072717"><ele>145.66666666666669</ele><time>2026-04-25T08:52:42.207Z</time></trkpt><trkpt lat="45.7914551" lon="13.7073093"><ele>143.33333333333334</ele><time>2026-04-25T08:52:43.207Z</time></trkpt><trkpt lat="45.7916078" lon="13.7073383"><ele>141.0</ele><time>2026-04-25T08:52:44.207Z</time></trkpt><trkpt lat="45.7917621" lon="13.7073592"><ele>141.75</ele><time>2026-04-25T08:52:45.208Z</time></trkpt><trkpt lat="45.7919048" lon="13.7073789"><ele>142.5</ele><time>2026-04-25T08:52:46.207Z</time></trkpt><trkpt lat="45.7920352" lon="13.7073929"><ele>143.25</ele><time>2026-04-25T08:52:47.208Z</time></trkpt><trkpt lat="45.7921535" lon="13.7074146"><ele>144.0</ele><time>2026-04-25T08:52:48.208Z</time></trkpt><trkpt lat="45.7922552" lon="13.7074475"><ele>144.0</ele><time>2026-04-25T08:52:49.207Z</time></trkpt><trkpt lat="45.7923494" lon="13.7075085"><ele>144.0</ele><time>2026-04-25T08:52:50.208Z</time></trkpt><trkpt lat="45.7924252" lon="13.707599"><ele>144.0</ele><time>2026-04-25T08:52:51.207Z</time></trkpt><trkpt lat="45.792483" lon="13.7077246"><ele>144.0</ele><time>2026-04-25T08:52:52.207Z</time></trkpt><trkpt lat="45.7925237" lon="13.7078738"><ele>144.0</ele><time>2026-04-25T08:52:53.207Z</time></trkpt><trkpt lat="45.7925629" lon="13.7080283"><ele>144.75</ele><time>2026-04-25T08:52:54.207Z</time></trkpt><trkpt lat="45.7926071" lon="13.7081921"><ele>145.5</ele><time>2026-04-25T08:52:55.207Z</time></trkpt><trkpt lat="45.7926584" lon="13.7083591"><ele>146.25</ele><time>2026-04-25T08:52:56.207Z</time></trkpt><trkpt lat="45.7927216" lon="13.708521"><ele>147.0</ele><time>2026-04-25T08:52:57.207Z</time></trkpt><trkpt lat="45.7927989" lon="13.7086801"><ele>150.0</ele><time>2026-04-25T08:52:58.207Z</time></trkpt><trkpt lat="45.7928792" lon="13.7088431"><ele>153.0</ele><time>2026-04-25T08:52:59.207Z</time></trkpt><trkpt lat="45.792959" lon="13.7090136"><ele>156.0</ele><time>2026-04-25T08:53:00.207Z</time></trkpt><trkpt lat="45.7930411" lon="13.7091825"><ele>159.0</ele><time>2026-04-25T08:53:01.207Z</time></trkpt><trkpt lat="45.7931237" lon="13.7093488"><ele>158.5</ele><time>2026-04-25T08:53:02.207Z</time></trkpt><trkpt lat="45.793197" lon="13.7095047"><ele>158.0</ele><time>2026-04-25T08:53:03.208Z</time></trkpt><trkpt lat="45.7932718" lon="13.7096479"><ele>157.5</ele><time>2026-04-25T08:53:04.207Z</time></trkpt><trkpt lat="45.7933406" lon="13.7097897"><ele>157.0</ele><time>2026-04-25T08:53:05.207Z</time></trkpt><trkpt lat="45.7934109" lon="13.7099273"><ele>157.0</ele><time>2026-04-25T08:53:06.207Z</time></trkpt><trkpt lat="45.7934961" lon="13.7100452"><ele>157.0</ele><time>2026-04-25T08:53:07.207Z</time></trkpt><trkpt lat="45.7935945" lon="13.710126"><ele>157.0</ele><time>2026-04-25T08:53:08.207Z</time></trkpt><trkpt lat="45.7936953" lon="13.7101714"><ele>157.0</ele><time>2026-04-25T08:53:09.207Z</time></trkpt><trkpt lat="45.7937937" lon="13.7101831"><ele>157.0</ele><time>2026-04-25T08:53:10.207Z</time></trkpt><trkpt lat="45.7938994" lon="13.7101597"><ele>157.75</ele><time>2026-04-25T08:53:11.207Z</time></trkpt><trkpt lat="45.7940087" lon="13.7101101"><ele>158.5</ele><time>2026-04-25T08:53:12.208Z</time></trkpt><trkpt lat="45.794122" lon="13.7100498"><ele>159.25</ele><time>2026-04-25T08:53:13.207Z</time></trkpt><trkpt lat="45.7942397" lon="13.7099861"><ele>160.0</ele><time>2026-04-25T08:53:14.207Z</time></trkpt><trkpt lat="45.7943489" lon="13.7099221"><ele>160.0</ele><time>2026-04-25T08:53:15.207Z</time></trkpt><trkpt lat="45.7944564" lon="13.7098702"><ele>160.0</ele><time>2026-04-25T08:53:16.207Z</time></trkpt><trkpt lat="45.794571" lon="13.7098525"><ele>160.0</ele><time>2026-04-25T08:53:17.207Z</time></trkpt><trkpt lat="45.7946968" lon="13.7098466"><ele>160.0</ele><time>2026-04-25T08:53:18.207Z</time></trkpt><trkpt lat="45.7948325" lon="13.7098662"><ele>160.0</ele><time>2026-04-25T08:53:19.207Z</time></trkpt><trkpt lat="45.7949687" lon="13.7098929"><ele>160.0</ele><time>2026-04-25T08:53:20.207Z</time></trkpt><trkpt lat="45.7951129" lon="13.7099362"><ele>160.0</ele><time>2026-04-25T08:53:21.207Z</time></trkpt><trkpt lat="45.7952623" lon="13.7099805"><ele>160.0</ele><time>2026-04-25T08:53:22.207Z</time></trkpt><trkpt lat="45.7954188" lon="13.7100264"><ele>161.33333333333334</ele><time>2026-04-25T08:53:23.207Z</time></trkpt><trkpt lat="45.7955777" lon="13.7100812"><ele>162.66666666666666</ele><time>2026-04-25T08:53:24.207Z</time></trkpt><trkpt lat="45.7957314" lon="13.7101321"><ele>164.0</ele><time>2026-04-25T08:53:25.207Z</time></trkpt><trkpt lat="45.7958837" lon="13.7101768"><ele>165.25</ele><time>2026-04-25T08:53:26.207Z</time></trkpt><trkpt lat="45.7960341" lon="13.7102239"><ele>166.5</ele><time>2026-04-25T08:53:27.208Z</time></trkpt><trkpt lat="45.7961828" lon="13.710268"><ele>167.75</ele><time>2026-04-25T08:53:28.207Z</time></trkpt><trkpt lat="45.7963218" lon="13.7103067"><ele>169.0</ele><time>2026-04-25T08:53:29.207Z</time></trkpt><trkpt lat="45.7964379" lon="13.7103388"><ele>169.0</ele><time>2026-04-25T08:53:30.207Z</time></trkpt><trkpt lat="45.7965308" lon="13.7103682"><ele>169.0</ele><time>2026-04-25T08:53:31.207Z</time></trkpt><trkpt lat="45.7966135" lon="13.7104157"><ele>169.0</ele><time>2026-04-25T08:53:33.207Z</time></trkpt><trkpt lat="45.7966078" lon="13.7105107"><ele>169.0</ele><time>2026-04-25T08:53:37.207Z</time></trkpt><trkpt lat="45.796561" lon="13.7106037"><ele>169.0</ele><time>2026-04-25T08:53:42.207Z</time></trkpt><trkpt lat="45.7965144" lon="13.710715"><ele>169.0</ele><time>2026-04-25T08:53:45.208Z</time></trkpt><trkpt lat="45.7964874" lon="13.7107983"><ele>169.0</ele><time>2026-04-25T08:53:47.207Z</time></trkpt><trkpt lat="45.7964496" lon="13.7108916"><ele>169.0</ele><time>2026-04-25T08:53:49.207Z</time></trkpt><trkpt lat="45.7964047" lon="13.7109755"><ele>169.0</ele><time>2026-04-25T08:53:51.207Z</time></trkpt><trkpt lat="45.7963662" lon="13.7110605"><ele>169.0</ele><time>2026-04-25T08:53:53.207Z</time></trkpt><trkpt lat="45.796324" lon="13.7111545"><ele>169.0</ele><time>2026-04-25T08:53:55.207Z</time></trkpt><trkpt lat="45.7962783" lon="13.71124"><ele>169.0</ele><time>2026-04-25T08:53:57.207Z</time></trkpt><trkpt lat="45.7962135" lon="13.7113002"><ele>169.16666666666669</ele><time>2026-04-25T08:53:59.207Z</time></trkpt><trkpt lat="45.7961299" lon="13.7113446"><ele>169.33333333333334</ele><time>2026-04-25T08:54:01.207Z</time></trkpt><trkpt lat="45.7960555" lon="13.7113968"><ele>169.5</ele><time>2026-04-25T08:54:03.207Z</time></trkpt><trkpt lat="45.7959828" lon="13.7114591"><ele>169.66666666666666</ele><time>2026-04-25T08:54:05.207Z</time></trkpt><trkpt lat="45.795921" lon="13.7115172"><ele>169.83333333333331</ele><time>2026-04-25T08:54:07.207Z</time></trkpt><trkpt lat="45.7958704" lon="13.7115812"><ele>170.0</ele><time>2026-04-25T08:54:09.207Z</time></trkpt><trkpt lat="45.795834" lon="13.7116853"><ele>170.0</ele><time>2026-04-25T08:54:13.207Z</time></trkpt><trkpt lat="45.7958675" lon="13.7115805"><ele>170.0</ele><time>2026-04-25T08:54:24.207Z</time></trkpt><trkpt lat="45.795938" lon="13.7114919"><ele>170.0</ele><time>2026-04-25T08:54:27.207Z</time></trkpt><trkpt lat="45.7960028" lon="13.7114401"><ele>170.0</ele><time>2026-04-25T08:54:29.207Z</time></trkpt><trkpt lat="45.7960668" lon="13.7113894"><ele>170.0</ele><time>2026-04-25T08:54:31.207Z</time></trkpt><trkpt lat="45.7961491" lon="13.7113457"><ele>170.0</ele><time>2026-04-25T08:54:33.207Z</time></trkpt><trkpt lat="45.7962095" lon="13.711288"><ele>170.0</ele><time>2026-04-25T08:54:35.207Z</time></trkpt><trkpt lat="45.796266" lon="13.7112222"><ele>170.0</ele><time>2026-04-25T08:55:25.207Z</time></trkpt><trkpt lat="45.7963304" lon="13.7111157"><ele>170.0</ele><time>2026-04-25T08:55:28.207Z</time></trkpt><trkpt lat="45.7963915" lon="13.7109976"><ele>170.0</ele><time>2026-04-25T08:55:30.207Z</time></trkpt><trkpt lat="45.7964467" lon="13.7108723"><ele>170.0</ele><time>2026-04-25T08:55:32.207Z</time></trkpt><trkpt lat="45.7965094" lon="13.7107474"><ele>169.83333333333331</ele><time>2026-04-25T08:55:34.207Z</time></trkpt><trkpt lat="45.7965584" lon="13.7106309"><ele>169.66666666666666</ele><time>2026-04-25T08:55:36.207Z</time></trkpt><trkpt lat="45.7966002" lon="13.7105239"><ele>169.5</ele><time>2026-04-25T08:55:38.208Z</time></trkpt><trkpt lat="45.7966476" lon="13.7104439"><ele>169.33333333333334</ele><time>2026-04-25T08:55:45.207Z</time></trkpt><trkpt lat="45.7967345" lon="13.7104395"><ele>169.16666666666669</ele><time>2026-04-25T08:55:47.207Z</time></trkpt><trkpt lat="45.7968053" lon="13.7104635"><ele>169.0</ele><time>2026-04-25T08:55:48.207Z</time></trkpt><trkpt lat="45.7968875" lon="13.7104963"><ele>170.5</ele><time>2026-04-25T08:55:49.207Z</time></trkpt><trkpt lat="45.7969892" lon="13.7105337"><ele>172.0</ele><time>2026-04-25T08:55:50.207Z</time></trkpt><trkpt lat="45.7970984" lon="13.7105793"><ele>173.5</ele><time>2026-04-25T08:55:51.207Z</time></trkpt><trkpt lat="45.7972125" lon="13.7106252"><ele>175.0</ele><time>2026-04-25T08:55:52.207Z</time></trkpt><trkpt lat="45.7973311" lon="13.7106727"><ele>175.0</ele><time>2026-04-25T08:55:53.207Z</time></trkpt><trkpt lat="45.797457" lon="13.7107065"><ele>175.0</ele><time>2026-04-25T08:55:54.207Z</time></trkpt><trkpt lat="45.7975945" lon="13.7107272"><ele>175.0</ele><time>2026-04-25T08:55:55.207Z</time></trkpt><trkpt lat="45.7977433" lon="13.7107401"><ele>175.0</ele><time>2026-04-25T08:55:56.207Z</time></trkpt><trkpt lat="45.7978998" lon="13.7107338"><ele>178.33333333333334</ele><time>2026-04-25T08:55:57.207Z</time></trkpt><trkpt lat="45.7980575" lon="13.710693"><ele>181.66666666666666</ele><time>2026-04-25T08:55:58.207Z</time></trkpt><trkpt lat="45.7982181" lon="13.7106515"><ele>185.0</ele><time>2026-04-25T08:55:59.207Z</time></trkpt><trkpt lat="45.7983748" lon="13.7105478"><ele>187.33333333333331</ele><time>2026-04-25T08:56:00.207Z</time></trkpt><trkpt lat="45.7985334" lon="13.710475"><ele>189.66666666666666</ele><time>2026-04-25T08:56:01.207Z</time></trkpt><trkpt lat="45.7986761" lon="13.710399"><ele>192.0</ele><time>2026-04-25T08:56:02.207Z</time></trkpt><trkpt lat="45.7988136" lon="13.7103274"><ele>192.0</ele><time>2026-04-25T08:56:03.207Z</time></trkpt><trkpt lat="45.7989471" lon="13.7102566"><ele>192.0</ele><time>2026-04-25T08:56:04.207Z</time></trkpt><trkpt lat="45.7990763" lon="13.7101894"><ele>192.0</ele><time>2026-04-25T08:56:05.207Z</time></trkpt><trkpt lat="45.7991989" lon="13.7101332"><ele>192.0</ele><time>2026-04-25T08:56:06.207Z</time></trkpt><trkpt lat="45.7993196" lon="13.7100945"><ele>190.8</ele><time>2026-04-25T08:56:07.207Z</time></trkpt><trkpt lat="45.7994331" lon="13.7100914"><ele>189.6</ele><time>2026-04-25T08:56:08.207Z</time></trkpt><trkpt lat="45.7995339" lon="13.7101293"><ele>188.4</ele><time>2026-04-25T08:56:09.207Z</time></trkpt><trkpt lat="45.7996234" lon="13.7102016"><ele>187.20000000000002</ele><time>2026-04-25T08:56:10.207Z</time></trkpt><trkpt lat="45.7997085" lon="13.7102969"><ele>186.0</ele><time>2026-04-25T08:56:11.207Z</time></trkpt><trkpt lat="45.7997985" lon="13.7104045"><ele>186.0</ele><time>2026-04-25T08:56:12.207Z</time></trkpt><trkpt lat="45.7998945" lon="13.7105225"><ele>186.0</ele><time>2026-04-25T08:56:13.207Z</time></trkpt><trkpt lat="45.8000015" lon="13.7106324"><ele>186.0</ele><time>2026-04-25T08:56:14.207Z</time></trkpt><trkpt lat="45.8001144" lon="13.7107403"><ele>186.0</ele><time>2026-04-25T08:56:15.207Z</time></trkpt><trkpt lat="45.8002305" lon="13.710841"><ele>186.25</ele><time>2026-04-25T08:56:16.207Z</time></trkpt><trkpt lat="45.8003508" lon="13.7109377"><ele>186.5</ele><time>2026-04-25T08:56:17.207Z</time></trkpt><trkpt lat="45.8004759" lon="13.711011"><ele>186.75</ele><time>2026-04-25T08:56:18.207Z</time></trkpt><trkpt lat="45.8006108" lon="13.7110486"><ele>187.0</ele><time>2026-04-25T08:56:19.207Z</time></trkpt><trkpt lat="45.8007511" lon="13.7110603"><ele>187.0</ele><time>2026-04-25T08:56:20.207Z</time></trkpt><trkpt lat="45.8008826" lon="13.7110629"><ele>187.0</ele><time>2026-04-25T08:56:21.207Z</time></trkpt><trkpt lat="45.801007" lon="13.711065"><ele>187.0</ele><time>2026-04-25T08:56:22.207Z</time></trkpt><trkpt lat="45.8011289" lon="13.7110728"><ele>187.0</ele><time>2026-04-25T08:56:23.207Z</time></trkpt><trkpt lat="45.8012476" lon="13.7110837"><ele>188.8</ele><time>2026-04-25T08:56:24.207Z</time></trkpt><trkpt lat="45.8013619" lon="13.7110997"><ele>190.6</ele><time>2026-04-25T08:56:25.207Z</time></trkpt><trkpt lat="45.8014623" lon="13.7111279"><ele>192.4</ele><time>2026-04-25T08:56:26.207Z</time></trkpt><trkpt lat="45.8015422" lon="13.7111663"><ele>194.20000000000002</ele><time>2026-04-25T08:56:27.207Z</time></trkpt><trkpt lat="45.8016082" lon="13.7112018"><ele>196.0</ele><time>2026-04-25T08:56:28.207Z</time></trkpt><trkpt lat="45.8017027" lon="13.7112552"><ele>195.99999999999997</ele><time>2026-04-25T08:56:30.207Z</time></trkpt><trkpt lat="45.8017756" lon="13.7112761"><ele>196.0</ele><time>2026-04-25T08:56:32.208Z</time></trkpt><trkpt lat="45.8018357" lon="13.7112208"><ele>196.0</ele><time>2026-04-25T08:56:34.207Z</time></trkpt><trkpt lat="45.8019081" lon="13.7111585"><ele>196.0</ele><time>2026-04-25T08:56:36.207Z</time></trkpt><trkpt lat="45.8020335" lon="13.7111825"><ele>195.99999999999997</ele><time>2026-04-25T08:56:38.207Z</time></trkpt><trkpt lat="45.8021158" lon="13.7111927"><ele>196.0</ele><time>2026-04-25T08:56:39.207Z</time></trkpt><trkpt lat="45.8022042" lon="13.7111988"><ele>196.0</ele><time>2026-04-25T08:56:40.208Z</time></trkpt><trkpt lat="45.8023004" lon="13.7111989"><ele>196.0</ele><time>2026-04-25T08:56:41.207Z</time></trkpt><trkpt lat="45.8023981" lon="13.7111997"><ele>196.0</ele><time>2026-04-25T08:56:42.208Z</time></trkpt><trkpt lat="45.8024977" lon="13.7112013"><ele>196.0</ele><time>2026-04-25T08:56:43.207Z</time></trkpt><trkpt lat="45.8025983" lon="13.7112132"><ele>196.0</ele><time>2026-04-25T08:56:44.207Z</time></trkpt><trkpt lat="45.8026953" lon="13.7112251"><ele>196.60000000000002</ele><time>2026-04-25T08:56:45.207Z</time></trkpt><trkpt lat="45.8027856" lon="13.711255"><ele>197.2</ele><time>2026-04-25T08:56:46.207Z</time></trkpt><trkpt lat="45.8028716" lon="13.7112995"><ele>197.8</ele><time>2026-04-25T08:56:47.207Z</time></trkpt><trkpt lat="45.8029508" lon="13.7113495"><ele>198.39999999999998</ele><time>2026-04-25T08:56:48.207Z</time></trkpt><trkpt lat="45.8030156" lon="13.7113959"><ele>199.0</ele><time>2026-04-25T08:56:49.207Z</time></trkpt><trkpt lat="45.8031225" lon="13.711473"><ele>199.0</ele><time>2026-04-25T08:56:51.207Z</time></trkpt><trkpt lat="45.8032131" lon="13.7115529"><ele>199.0</ele><time>2026-04-25T08:56:53.207Z</time></trkpt><trkpt lat="45.8033054" lon="13.7116929"><ele>199.0</ele><time>2026-04-25T08:56:55.207Z</time></trkpt><trkpt lat="45.8033613" lon="13.7117695"><ele>199.0</ele><time>2026-04-25T08:56:56.207Z</time></trkpt><trkpt lat="45.8034178" lon="13.7118511"><ele>199.0</ele><time>2026-04-25T08:56:57.207Z</time></trkpt><trkpt lat="45.803476" lon="13.7119357"><ele>199.33333333333331</ele><time>2026-04-25T08:56:58.207Z</time></trkpt><trkpt lat="45.8035379" lon="13.7120157"><ele>199.66666666666666</ele><time>2026-04-25T08:56:59.207Z</time></trkpt><trkpt lat="45.8036" lon="13.7120938"><ele>200.0</ele><time>2026-04-25T08:57:00.207Z</time></trkpt><trkpt lat="45.8036693" lon="13.7121793"><ele>200.33333333333331</ele><time>2026-04-25T08:57:01.207Z</time></trkpt><trkpt lat="45.803742" lon="13.7122581"><ele>200.66666666666666</ele><time>2026-04-25T08:57:02.207Z</time></trkpt><trkpt lat="45.8038119" lon="13.712337"><ele>201.0</ele><time>2026-04-25T08:57:03.207Z</time></trkpt><trkpt lat="45.8038747" lon="13.7124229"><ele>201.0</ele><time>2026-04-25T08:57:04.207Z</time></trkpt><trkpt lat="45.803927" lon="13.7125075"><ele>201.0</ele><time>2026-04-25T08:57:05.207Z</time></trkpt><trkpt lat="45.8039679" lon="13.7125788"><ele>201.0</ele><time>2026-04-25T08:57:06.207Z</time></trkpt><trkpt lat="45.8040209" lon="13.7126675"><ele>201.0</ele><time>2026-04-25T08:57:08.207Z</time></trkpt><trkpt lat="45.8040725" lon="13.7127246"><ele>201.0</ele><time>2026-04-25T08:57:17.207Z</time></trkpt><trkpt lat="45.8041351" lon="13.7126775"><ele>201.0</ele><time>2026-04-25T08:57:37.207Z</time></trkpt><trkpt lat="45.8042311" lon="13.7127"><ele>202.20000000000002</ele><time>2026-04-25T08:57:40.207Z</time></trkpt><trkpt lat="45.8043338" lon="13.7127347"><ele>203.4</ele><time>2026-04-25T08:57:42.207Z</time></trkpt><trkpt lat="45.8044282" lon="13.7127588"><ele>204.6</ele><time>2026-04-25T08:57:44.207Z</time></trkpt><trkpt lat="45.8045025" lon="13.7127765"><ele>205.8</ele><time>2026-04-25T08:57:46.207Z</time></trkpt><trkpt lat="45.804606" lon="13.7127071"><ele>207.0</ele><time>2026-04-25T08:57:51.207Z</time></trkpt><trkpt lat="45.8046706" lon="13.7125883"><ele>207.16666666666666</ele><time>2026-04-25T08:57:53.207Z</time></trkpt><trkpt lat="45.8047492" lon="13.7124628"><ele>207.33333333333331</ele><time>2026-04-25T08:57:55.207Z</time></trkpt><trkpt lat="45.804782" lon="13.7123827"><ele>207.5</ele><time>2026-04-25T08:57:56.207Z</time></trkpt><trkpt lat="45.8048343" lon="13.7122449"><ele>207.66666666666666</ele><time>2026-04-25T08:57:58.207Z</time></trkpt><trkpt lat="45.8048663" lon="13.7121583"><ele>207.83333333333331</ele><time>2026-04-25T08:58:00.207Z</time></trkpt><trkpt lat="45.804837" lon="13.7122628"><ele>208.0</ele><time>2026-04-25T08:58:46.208Z</time></trkpt><trkpt lat="45.8047868" lon="13.7123626"><ele>208.0</ele><time>2026-04-25T08:58:48.207Z</time></trkpt><trkpt lat="45.8047371" lon="13.712479"><ele>208.0</ele><time>2026-04-25T08:58:50.207Z</time></trkpt><trkpt lat="45.8046707" lon="13.7125888"><ele>208.0</ele><time>2026-04-25T08:58:52.207Z</time></trkpt><trkpt lat="45.8046168" lon="13.7126895"><ele>208.0</ele><time>2026-04-25T08:58:54.207Z</time></trkpt><trkpt lat="45.8045711" lon="13.7128041"><ele>208.0</ele><time>2026-04-25T08:58:56.207Z</time></trkpt><trkpt lat="45.8045446" lon="13.7129275"><ele>207.8</ele><time>2026-04-25T08:58:58.207Z</time></trkpt><trkpt lat="45.8045478" lon="13.713034"><ele>207.60000000000002</ele><time>2026-04-25T08:59:01.207Z</time></trkpt><trkpt lat="45.8046252" lon="13.7129809"><ele>207.39999999999998</ele><time>2026-04-25T08:59:04.207Z</time></trkpt><trkpt lat="45.8047142" lon="13.7129262"><ele>207.2</ele><time>2026-04-25T08:59:06.207Z</time></trkpt><trkpt lat="45.8048241" lon="13.712903"><ele>207.0</ele><time>2026-04-25T08:59:08.207Z</time></trkpt><trkpt lat="45.8049203" lon="13.7129019"><ele>207.0</ele><time>2026-04-25T08:59:10.207Z</time></trkpt><trkpt lat="45.8050031" lon="13.7128473"><ele>207.0</ele><time>2026-04-25T08:59:12.207Z</time></trkpt><trkpt lat="45.8050803" lon="13.7127646"><ele>207.0</ele><time>2026-04-25T08:59:14.207Z</time></trkpt><trkpt lat="45.8051678" lon="13.712671"><ele>207.0</ele><time>2026-04-25T08:59:16.207Z</time></trkpt><trkpt lat="45.8052587" lon="13.7125424"><ele>207.0</ele><time>2026-04-25T08:59:18.207Z</time></trkpt><trkpt lat="45.8053014" lon="13.7124652"><ele>207.66666666666666</ele><time>2026-04-25T08:59:19.207Z</time></trkpt><trkpt lat="45.8053431" lon="13.7123943"><ele>208.33333333333331</ele><time>2026-04-25T08:59:20.207Z</time></trkpt><trkpt lat="45.8054303" lon="13.7122682"><ele>209.0</ele><time>2026-04-25T08:59:22.207Z</time></trkpt><trkpt lat="45.8054779" lon="13.7122015"><ele>209.66666666666666</ele><time>2026-04-25T08:59:23.207Z</time></trkpt><trkpt lat="45.8055264" lon="13.7121433"><ele>210.33333333333331</ele><time>2026-04-25T08:59:24.207Z</time></trkpt><trkpt lat="45.8056175" lon="13.7120619"><ele>211.0</ele><time>2026-04-25T08:59:26.207Z</time></trkpt><trkpt lat="45.8057112" lon="13.7120354"><ele>211.0</ele><time>2026-04-25T08:59:28.208Z</time></trkpt><trkpt lat="45.8058059" lon="13.7120533"><ele>211.0</ele><time>2026-04-25T08:59:30.207Z</time></trkpt><trkpt lat="45.8059288" lon="13.7120457"><ele>211.0</ele><time>2026-04-25T08:59:32.207Z</time></trkpt><trkpt lat="45.8059979" lon="13.7120276"><ele>211.0</ele><time>2026-04-25T08:59:33.207Z</time></trkpt><trkpt lat="45.8060663" lon="13.7120085"><ele>211.0</ele><time>2026-04-25T08:59:34.207Z</time></trkpt><trkpt lat="45.8061756" lon="13.7119728"><ele>210.99999999999997</ele><time>2026-04-25T08:59:36.207Z</time></trkpt><trkpt lat="45.8062542" lon="13.7119509"><ele>211.0</ele><time>2026-04-25T08:59:38.207Z</time></trkpt><trkpt lat="45.8063282" lon="13.7119214"><ele>211.0</ele><time>2026-04-25T08:59:41.207Z</time></trkpt><trkpt lat="45.8064045" lon="13.7118986"><ele>211.0</ele><time>2026-04-25T08:59:43.207Z</time></trkpt><trkpt lat="45.8064969" lon="13.7118838"><ele>210.99999999999997</ele><time>2026-04-25T08:59:45.207Z</time></trkpt><trkpt lat="45.8065992" lon="13.711871"><ele>211.0</ele><time>2026-04-25T08:59:47.207Z</time></trkpt><trkpt lat="45.806705" lon="13.7118509"><ele>211.0</ele><time>2026-04-25T08:59:49.207Z</time></trkpt><trkpt lat="45.8068131" lon="13.7118178"><ele>211.0</ele><time>2026-04-25T08:59:51.207Z</time></trkpt><trkpt lat="45.8069067" lon="13.7117687"><ele>211.0</ele><time>2026-04-25T08:59:53.207Z</time></trkpt><trkpt lat="45.8069979" lon="13.711716"><ele>211.0</ele><time>2026-04-25T08:59:55.207Z</time></trkpt><trkpt lat="45.807088" lon="13.7116768"><ele>211.0</ele><time>2026-04-25T08:59:57.207Z</time></trkpt><trkpt lat="45.8071734" lon="13.7116349"><ele>211.66666666666666</ele><time>2026-04-25T08:59:59.207Z</time></trkpt><trkpt lat="45.8072546" lon="13.7116341"><ele>212.33333333333331</ele><time>2026-04-25T09:00:01.207Z</time></trkpt><trkpt lat="45.8073278" lon="13.7116447"><ele>213.0</ele><time>2026-04-25T09:00:08.207Z</time></trkpt><trkpt lat="45.807404" lon="13.7116274"><ele>213.66666666666669</ele><time>2026-04-25T09:00:12.207Z</time></trkpt><trkpt lat="45.8074865" lon="13.7116021"><ele>214.33333333333334</ele><time>2026-04-25T09:00:14.207Z</time></trkpt><trkpt lat="45.8075712" lon="13.711588"><ele>215.0</ele><time>2026-04-25T09:00:16.208Z</time></trkpt><trkpt lat="45.8076574" lon="13.7115676"><ele>215.2</ele><time>2026-04-25T09:00:18.207Z</time></trkpt><trkpt lat="45.807753" lon="13.7115384"><ele>215.4</ele><time>2026-04-25T09:00:21.207Z</time></trkpt><trkpt lat="45.8078535" lon="13.7115052"><ele>215.60000000000002</ele><time>2026-04-25T09:00:23.207Z</time></trkpt><trkpt lat="45.8079444" lon="13.7114698"><ele>215.8</ele><time>2026-04-25T09:00:25.207Z</time></trkpt><trkpt lat="45.808022" lon="13.7114223"><ele>216.0</ele><time>2026-04-25T09:00:27.207Z</time></trkpt><trkpt lat="45.8080893" lon="13.7113832"><ele>216.0</ele><time>2026-04-25T09:00:29.207Z</time></trkpt><trkpt lat="45.8081544" lon="13.7113546"><ele>216.0</ele><time>2026-04-25T09:00:31.207Z</time></trkpt><trkpt lat="45.8082208" lon="13.7113292"><ele>216.0</ele><time>2026-04-25T09:00:33.208Z</time></trkpt><trkpt lat="45.8082971" lon="13.7113162"><ele>216.0</ele><time>2026-04-25T09:00:35.207Z</time></trkpt><trkpt lat="45.8083693" lon="13.7113068"><ele>216.0</ele><time>2026-04-25T09:00:37.207Z</time></trkpt><trkpt lat="45.8084467" lon="13.7112934"><ele>216.0</ele><time>2026-04-25T09:00:39.207Z</time></trkpt><trkpt lat="45.8085222" lon="13.7112679"><ele>216.0</ele><time>2026-04-25T09:00:41.207Z</time></trkpt><trkpt lat="45.8085886" lon="13.7112399"><ele>216.0</ele><time>2026-04-25T09:00:43.207Z</time></trkpt><trkpt lat="45.8086638" lon="13.7112174"><ele>216.0</ele><time>2026-04-25T09:00:45.207Z</time></trkpt><trkpt lat="45.8087356" lon="13.7111916"><ele>216.0</ele><time>2026-04-25T09:00:47.207Z</time></trkpt><trkpt lat="45.8088049" lon="13.7111727"><ele>216.0</ele><time>2026-04-25T09:00:49.207Z</time></trkpt><trkpt lat="45.8088841" lon="13.7111431"><ele>216.0</ele><time>2026-04-25T09:00:52.207Z</time></trkpt><trkpt lat="45.8089652" lon="13.7112462"><ele>216.0</ele><time>2026-04-25T09:00:57.207Z</time></trkpt><trkpt lat="45.8090084" lon="13.71138"><ele>216.0</ele><time>2026-04-25T09:00:59.207Z</time></trkpt><trkpt lat="45.8090577" lon="13.7115325"><ele>216.00000000000003</ele><time>2026-04-25T09:01:01.207Z</time></trkpt><trkpt lat="45.8090921" lon="13.7116727"><ele>216.00000000000003</ele><time>2026-04-25T09:01:03.207Z</time></trkpt><trkpt lat="45.809133" lon="13.7117578"><ele>216.0</ele><time>2026-04-25T09:01:18.207Z</time></trkpt><trkpt lat="45.8092131" lon="13.7117933"><ele>216.0</ele><time>2026-04-25T09:01:21.207Z</time></trkpt><trkpt lat="45.8092921" lon="13.7118018"><ele>216.0</ele><time>2026-04-25T09:01:23.207Z</time></trkpt><trkpt lat="45.8093788" lon="13.7118466"><ele>216.00000000000003</ele><time>2026-04-25T09:01:25.207Z</time></trkpt><trkpt lat="45.8094645" lon="13.7119262"><ele>216.00000000000003</ele><time>2026-04-25T09:01:27.207Z</time></trkpt><trkpt lat="45.8095357" lon="13.7120026"><ele>216.0</ele><time>2026-04-25T09:01:29.207Z</time></trkpt><trkpt lat="45.8096024" lon="13.7120962"><ele>216.0</ele><time>2026-04-25T09:01:31.207Z</time></trkpt><trkpt lat="45.8096559" lon="13.7121773"><ele>216.66666666666666</ele><time>2026-04-25T09:01:33.207Z</time></trkpt><trkpt lat="45.8097103" lon="13.7122707"><ele>217.33333333333331</ele><time>2026-04-25T09:01:36.207Z</time></trkpt><trkpt lat="45.8097599" lon="13.7123556"><ele>218.0</ele><time>2026-04-25T09:01:39.207Z</time></trkpt><trkpt lat="45.8098198" lon="13.7124281"><ele>218.66666666666666</ele><time>2026-04-25T09:01:42.207Z</time></trkpt><trkpt lat="45.8097747" lon="13.7123379"><ele>219.33333333333331</ele><time>2026-04-25T09:01:53.207Z</time></trkpt><trkpt lat="45.8097232" lon="13.7122551"><ele>220.0</ele><time>2026-04-25T09:01:55.207Z</time></trkpt><trkpt lat="45.8096668" lon="13.7121536"><ele>219.99999999999997</ele><time>2026-04-25T09:01:57.207Z</time></trkpt><trkpt lat="45.809598" lon="13.7120594"><ele>220.0</ele><time>2026-04-25T09:01:59.207Z</time></trkpt><trkpt lat="45.8095255" lon="13.7119743"><ele>220.0</ele><time>2026-04-25T09:02:01.207Z</time></trkpt><trkpt lat="45.8094515" lon="13.7118916"><ele>220.0</ele><time>2026-04-25T09:02:03.208Z</time></trkpt><trkpt lat="45.8093811" lon="13.7118324"><ele>219.99999999999997</ele><time>2026-04-25T09:02:05.207Z</time></trkpt><trkpt lat="45.809312" lon="13.7117896"><ele>220.0</ele><time>2026-04-25T09:02:07.207Z</time></trkpt><trkpt lat="45.8092344" lon="13.7117901"><ele>219.42857142857142</ele><time>2026-04-25T09:02:09.207Z</time></trkpt><trkpt lat="45.8091536" lon="13.7117569"><ele>218.85714285714286</ele><time>2026-04-25T09:02:12.207Z</time></trkpt><trkpt lat="45.8091052" lon="13.7118305"><ele>218.28571428571428</ele><time>2026-04-25T09:02:16.208Z</time></trkpt><trkpt lat="45.8091643" lon="13.7117821"><ele>217.71428571428572</ele><time>2026-04-25T09:03:43.207Z</time></trkpt><trkpt lat="45.8092302" lon="13.7117735"><ele>217.14285714285714</ele><time>2026-04-25T09:03:48.207Z</time></trkpt><trkpt lat="45.809297" lon="13.7117723"><ele>216.57142857142856</ele><time>2026-04-25T09:03:51.208Z</time></trkpt><trkpt lat="45.8093709" lon="13.7117565"><ele>216.0</ele><time>2026-04-25T09:04:09.207Z</time></trkpt><trkpt lat="45.8094301" lon="13.7117172"><ele>216.0</ele><time>2026-04-25T09:04:11.207Z</time></trkpt><trkpt lat="45.8095033" lon="13.711666"><ele>216.00000000000003</ele><time>2026-04-25T09:04:13.208Z</time></trkpt><trkpt lat="45.8095772" lon="13.7116076"><ele>216.00000000000003</ele><time>2026-04-25T09:04:15.207Z</time></trkpt><trkpt lat="45.8096666" lon="13.7115095"><ele>216.0</ele><time>2026-04-25T09:04:17.207Z</time></trkpt><trkpt lat="45.8097332" lon="13.7114043"><ele>216.0</ele><time>2026-04-25T09:04:19.207Z</time></trkpt><trkpt lat="45.8098095" lon="13.7112967"><ele>216.0</ele><time>2026-04-25T09:04:21.207Z</time></trkpt><trkpt lat="45.8098968" lon="13.7112245"><ele>216.00000000000003</ele><time>2026-04-25T09:04:23.207Z</time></trkpt><trkpt lat="45.8099894" lon="13.7111629"><ele>216.00000000000003</ele><time>2026-04-25T09:04:25.207Z</time></trkpt><trkpt lat="45.8100813" lon="13.7111041"><ele>216.0</ele><time>2026-04-25T09:04:27.207Z</time></trkpt><trkpt lat="45.8101671" lon="13.711109"><ele>216.0</ele><time>2026-04-25T09:04:29.207Z</time></trkpt><trkpt lat="45.8102585" lon="13.7111667"><ele>216.8</ele><time>2026-04-25T09:04:31.207Z</time></trkpt><trkpt lat="45.8103732" lon="13.7112176"><ele>217.60000000000002</ele><time>2026-04-25T09:04:33.207Z</time></trkpt><trkpt lat="45.8104671" lon="13.7112123"><ele>218.4</ele><time>2026-04-25T09:04:35.207Z</time></trkpt><trkpt lat="45.8105661" lon="13.7111734"><ele>219.2</ele><time>2026-04-25T09:04:38.207Z</time></trkpt><trkpt lat="45.8106502" lon="13.7111323"><ele>220.0</ele><time>2026-04-25T09:04:40.207Z</time></trkpt><trkpt lat="45.8107323" lon="13.7111015"><ele>219.8</ele><time>2026-04-25T09:04:42.207Z</time></trkpt><trkpt lat="45.810845" lon="13.7110626"><ele>219.6</ele><time>2026-04-25T09:04:44.207Z</time></trkpt><trkpt lat="45.8109046" lon="13.7110275"><ele>219.39999999999998</ele><time>2026-04-25T09:04:45.207Z</time></trkpt><trkpt lat="45.8110243" lon="13.7110066"><ele>219.2</ele><time>2026-04-25T09:04:47.207Z</time></trkpt><trkpt lat="45.8111194" lon="13.7109842"><ele>219.0</ele><time>2026-04-25T09:04:49.207Z</time></trkpt><trkpt lat="45.8112158" lon="13.710963"><ele>221.0</ele><time>2026-04-25T09:04:51.208Z</time></trkpt><trkpt lat="45.8113256" lon="13.7109289"><ele>222.99999999999997</ele><time>2026-04-25T09:04:53.207Z</time></trkpt><trkpt lat="45.8113885" lon="13.7109048"><ele>224.99999999999997</ele><time>2026-04-25T09:04:54.207Z</time></trkpt><trkpt lat="45.8115007" lon="13.7108545"><ele>227.0</ele><time>2026-04-25T09:04:56.207Z</time></trkpt><trkpt lat="45.811601" lon="13.7108016"><ele>229.0</ele><time>2026-04-25T09:04:58.207Z</time></trkpt><trkpt lat="45.8116949" lon="13.7107783"><ele>229.0</ele><time>2026-04-25T09:05:00.208Z</time></trkpt><trkpt lat="45.8117951" lon="13.7107827"><ele>228.99999999999997</ele><time>2026-04-25T09:05:02.208Z</time></trkpt><trkpt lat="45.811889" lon="13.7107956"><ele>228.99999999999997</ele><time>2026-04-25T09:05:04.207Z</time></trkpt><trkpt lat="45.8119918" lon="13.7108145"><ele>229.0</ele><time>2026-04-25T09:05:06.207Z</time></trkpt><trkpt lat="45.8121028" lon="13.7108039"><ele>229.0</ele><time>2026-04-25T09:05:08.207Z</time></trkpt><trkpt lat="45.8122091" lon="13.7107894"><ele>230.39999999999998</ele><time>2026-04-25T09:05:10.207Z</time></trkpt><trkpt lat="45.8123175" lon="13.710775"><ele>231.79999999999998</ele><time>2026-04-25T09:05:12.207Z</time></trkpt><trkpt lat="45.8124352" lon="13.7107404"><ele>233.20000000000002</ele><time>2026-04-25T09:05:14.207Z</time></trkpt><trkpt lat="45.8124974" lon="13.7107261"><ele>234.60000000000002</ele><time>2026-04-25T09:05:15.207Z</time></trkpt><trkpt lat="45.8126034" lon="13.7107088"><ele>236.0</ele><time>2026-04-25T09:05:17.207Z</time></trkpt><trkpt lat="45.8126998" lon="13.710697"><ele>237.33333333333334</ele><time>2026-04-25T09:05:19.208Z</time></trkpt><trkpt lat="45.8127667" lon="13.7106883"><ele>238.66666666666669</ele><time>2026-04-25T09:05:20.207Z</time></trkpt><trkpt lat="45.812854" lon="13.7107298"><ele>240.0</ele><time>2026-04-25T09:05:23.207Z</time></trkpt><trkpt lat="45.8129366" lon="13.7107796"><ele>241.33333333333331</ele><time>2026-04-25T09:05:25.208Z</time></trkpt><trkpt lat="45.8130093" lon="13.7108277"><ele>242.66666666666666</ele><time>2026-04-25T09:05:27.208Z</time></trkpt><trkpt lat="45.8130981" lon="13.7108753"><ele>244.0</ele><time>2026-04-25T09:05:29.207Z</time></trkpt><trkpt lat="45.8131913" lon="13.710902"><ele>244.0</ele><time>2026-04-25T09:05:31.207Z</time></trkpt><trkpt lat="45.813307" lon="13.7108987"><ele>244.0</ele><time>2026-04-25T09:05:33.208Z</time></trkpt><trkpt lat="45.8134267" lon="13.7109218"><ele>244.0</ele><time>2026-04-25T09:05:35.207Z</time></trkpt><trkpt lat="45.8135397" lon="13.7109898"><ele>244.0</ele><time>2026-04-25T09:05:37.207Z</time></trkpt><trkpt lat="45.8136514" lon="13.7110525"><ele>244.83333333333331</ele><time>2026-04-25T09:05:39.207Z</time></trkpt><trkpt lat="45.8137738" lon="13.7110415"><ele>245.66666666666666</ele><time>2026-04-25T09:05:41.207Z</time></trkpt><trkpt lat="45.8138378" lon="13.7110217"><ele>246.5</ele><time>2026-04-25T09:05:42.207Z</time></trkpt><trkpt lat="45.8139042" lon="13.7110042"><ele>247.33333333333331</ele><time>2026-04-25T09:05:43.207Z</time></trkpt><trkpt lat="45.8139696" lon="13.7109911"><ele>248.16666666666666</ele><time>2026-04-25T09:05:44.207Z</time></trkpt><trkpt lat="45.8140365" lon="13.7109805"><ele>249.0</ele><time>2026-04-25T09:05:45.207Z</time></trkpt><trkpt lat="45.8141029" lon="13.7109705"><ele>249.0</ele><time>2026-04-25T09:05:46.207Z</time></trkpt><trkpt lat="45.8141714" lon="13.7109748"><ele>249.0</ele><time>2026-04-25T09:05:47.208Z</time></trkpt><trkpt lat="45.8142406" lon="13.7109875"><ele>249.0</ele><time>2026-04-25T09:05:48.208Z</time></trkpt><trkpt lat="45.8143153" lon="13.7109931"><ele>249.0</ele><time>2026-04-25T09:05:49.207Z</time></trkpt><trkpt lat="45.8143902" lon="13.7110058"><ele>249.0</ele><time>2026-04-25T09:05:50.208Z</time></trkpt><trkpt lat="45.8144583" lon="13.7110145"><ele>249.0</ele><time>2026-04-25T09:05:51.207Z</time></trkpt><trkpt lat="45.8145674" lon="13.7110308"><ele>250.2</ele><time>2026-04-25T09:05:53.207Z</time></trkpt><trkpt lat="45.8146705" lon="13.7110526"><ele>251.39999999999998</ele><time>2026-04-25T09:05:55.207Z</time></trkpt><trkpt lat="45.8147648" lon="13.7110942"><ele>252.6</ele><time>2026-04-25T09:05:57.207Z</time></trkpt><trkpt lat="45.8148829" lon="13.7111459"><ele>253.8</ele><time>2026-04-25T09:05:59.207Z</time></trkpt><trkpt lat="45.8149925" lon="13.7111985"><ele>255.0</ele><time>2026-04-25T09:06:01.207Z</time></trkpt><trkpt lat="45.815102" lon="13.711231"><ele>256.6</ele><time>2026-04-25T09:06:03.207Z</time></trkpt><trkpt lat="45.8151954" lon="13.7112157"><ele>258.2</ele><time>2026-04-25T09:06:05.207Z</time></trkpt><trkpt lat="45.815295" lon="13.7111191"><ele>259.8</ele><time>2026-04-25T09:06:07.207Z</time></trkpt><trkpt lat="45.8153449" lon="13.7110606"><ele>261.4</ele><time>2026-04-25T09:06:08.207Z</time></trkpt><trkpt lat="45.8153928" lon="13.7110013"><ele>263.0</ele><time>2026-04-25T09:06:09.207Z</time></trkpt><trkpt lat="45.8154804" lon="13.7108784"><ele>263.0</ele><time>2026-04-25T09:06:11.207Z</time></trkpt><trkpt lat="45.8155686" lon="13.7108252"><ele>263.0</ele><time>2026-04-25T09:06:13.207Z</time></trkpt><trkpt lat="45.8156619" lon="13.7108609"><ele>263.0</ele><time>2026-04-25T09:06:15.207Z</time></trkpt><trkpt lat="45.8157826" lon="13.7108921"><ele>263.0</ele><time>2026-04-25T09:06:17.207Z</time></trkpt><trkpt lat="45.8158953" lon="13.71087"><ele>263.0</ele><time>2026-04-25T09:06:19.207Z</time></trkpt><trkpt lat="45.8159611" lon="13.7108405"><ele>264.0</ele><time>2026-04-25T09:06:20.207Z</time></trkpt><trkpt lat="45.8160623" lon="13.7107982"><ele>265.0</ele><time>2026-04-25T09:06:22.207Z</time></trkpt><trkpt lat="45.8161225" lon="13.7107437"><ele>266.0</ele><time>2026-04-25T09:06:23.207Z</time></trkpt><trkpt lat="45.8161745" lon="13.7106872"><ele>267.0</ele><time>2026-04-25T09:06:24.207Z</time></trkpt><trkpt lat="45.8162223" lon="13.7106259"><ele>268.0</ele><time>2026-04-25T09:06:25.207Z</time></trkpt><trkpt lat="45.8162644" lon="13.7105532"><ele>269.0</ele><time>2026-04-25T09:06:26.207Z</time></trkpt><trkpt lat="45.8163119" lon="13.7104839"><ele>270.0</ele><time>2026-04-25T09:06:27.207Z</time></trkpt><trkpt lat="45.8163728" lon="13.7104251"><ele>270.0</ele><time>2026-04-25T09:06:28.207Z</time></trkpt><trkpt lat="45.8164316" lon="13.7103831"><ele>270.0</ele><time>2026-04-25T09:06:29.207Z</time></trkpt><trkpt lat="45.8164991" lon="13.7103418"><ele>270.0</ele><time>2026-04-25T09:06:31.207Z</time></trkpt><trkpt lat="45.8165696" lon="13.7103304"><ele>270.0</ele><time>2026-04-25T09:06:47.207Z</time></trkpt><trkpt lat="45.8166594" lon="13.7103286"><ele>270.0</ele><time>2026-04-25T09:06:49.207Z</time></trkpt><trkpt lat="45.8167357" lon="13.7103309"><ele>270.0</ele><time>2026-04-25T09:06:51.207Z</time></trkpt><trkpt lat="45.8167956" lon="13.7103875"><ele>270.0</ele><time>2026-04-25T09:06:53.207Z</time></trkpt><trkpt lat="45.8168616" lon="13.7104857"><ele>271.3333333333333</ele><time>2026-04-25T09:06:55.207Z</time></trkpt><trkpt lat="45.8169094" lon="13.7106324"><ele>272.6666666666667</ele><time>2026-04-25T09:06:57.207Z</time></trkpt><trkpt lat="45.8169371" lon="13.7107157"><ele>274.0</ele><time>2026-04-25T09:06:58.208Z</time></trkpt><trkpt lat="45.8169687" lon="13.710797"><ele>275.33333333333337</ele><time>2026-04-25T09:06:59.207Z</time></trkpt><trkpt lat="45.8170089" lon="13.7108702"><ele>276.6666666666667</ele><time>2026-04-25T09:07:00.207Z</time></trkpt><trkpt lat="45.817056" lon="13.7109309"><ele>278.0</ele><time>2026-04-25T09:07:01.207Z</time></trkpt><trkpt lat="45.8171557" lon="13.7110272"><ele>277.6</ele><time>2026-04-25T09:07:03.207Z</time></trkpt><trkpt lat="45.8172615" lon="13.7110914"><ele>277.20000000000005</ele><time>2026-04-25T09:07:05.207Z</time></trkpt><trkpt lat="45.8173609" lon="13.711172"><ele>276.8</ele><time>2026-04-25T09:07:07.207Z</time></trkpt><trkpt lat="45.8174553" lon="13.711248"><ele>276.40000000000003</ele><time>2026-04-25T09:07:09.207Z</time></trkpt><trkpt lat="45.8175598" lon="13.7112771"><ele>276.0</ele><time>2026-04-25T09:07:11.207Z</time></trkpt><trkpt lat="45.8176825" lon="13.7112809"><ele>278.1666666666667</ele><time>2026-04-25T09:07:13.207Z</time></trkpt><trkpt lat="45.8177572" lon="13.711246"><ele>280.3333333333333</ele><time>2026-04-25T09:07:15.207Z</time></trkpt><trkpt lat="45.8178196" lon="13.7111984"><ele>282.5</ele><time>2026-04-25T09:07:17.207Z</time></trkpt><trkpt lat="45.8179064" lon="13.7111159"><ele>284.66666666666663</ele><time>2026-04-25T09:07:19.207Z</time></trkpt><trkpt lat="45.8180035" lon="13.7110512"><ele>286.8333333333333</ele><time>2026-04-25T09:07:21.207Z</time></trkpt><trkpt lat="45.8180842" lon="13.7109997"><ele>289.0</ele><time>2026-04-25T09:07:23.207Z</time></trkpt><trkpt lat="45.8181542" lon="13.7109871"><ele>289.0</ele><time>2026-04-25T09:07:25.208Z</time></trkpt><trkpt lat="45.8182165" lon="13.7110256"><ele>289.0</ele><time>2026-04-25T09:07:28.207Z</time></trkpt><trkpt lat="45.8182913" lon="13.7108891"><ele>289.0</ele><time>2026-04-25T09:07:31.208Z</time></trkpt><trkpt lat="45.818321" lon="13.7107958"><ele>289.0</ele><time>2026-04-25T09:07:32.207Z</time></trkpt><trkpt lat="45.8183662" lon="13.7106746"><ele>289.0</ele><time>2026-04-25T09:07:33.207Z</time></trkpt><trkpt lat="45.8184245" lon="13.7105393"><ele>289.0</ele><time>2026-04-25T09:07:34.207Z</time></trkpt><trkpt lat="45.8184743" lon="13.7103992"><ele>289.0</ele><time>2026-04-25T09:07:35.207Z</time></trkpt><trkpt lat="45.8185158" lon="13.7102692"><ele>289.0</ele><time>2026-04-25T09:07:36.207Z</time></trkpt><trkpt lat="45.8185537" lon="13.7101405"><ele>289.0</ele><time>2026-04-25T09:07:37.207Z</time></trkpt><trkpt lat="45.8185857" lon="13.7100105"><ele>289.0</ele><time>2026-04-25T09:07:38.207Z</time></trkpt><trkpt lat="45.8186092" lon="13.7098617"><ele>290.59999999999997</ele><time>2026-04-25T09:07:39.207Z</time></trkpt><trkpt lat="45.8186146" lon="13.7096945"><ele>292.2</ele><time>2026-04-25T09:07:40.208Z</time></trkpt><trkpt lat="45.8186175" lon="13.7095288"><ele>293.79999999999995</ele><time>2026-04-25T09:07:41.207Z</time></trkpt><trkpt lat="45.8186381" lon="13.7093784"><ele>295.4</ele><time>2026-04-25T09:07:42.207Z</time></trkpt><trkpt lat="45.8186685" lon="13.7092511"><ele>297.0</ele><time>2026-04-25T09:07:43.207Z</time></trkpt><trkpt lat="45.8186987" lon="13.7091451"><ele>297.0</ele><time>2026-04-25T09:07:44.207Z</time></trkpt><trkpt lat="45.8187143" lon="13.7090573"><ele>297.0</ele><time>2026-04-25T09:07:45.207Z</time></trkpt><trkpt lat="45.8187337" lon="13.7089597"><ele>297.0</ele><time>2026-04-25T09:07:46.207Z</time></trkpt><trkpt lat="45.8187379" lon="13.7088617"><ele>297.0</ele><time>2026-04-25T09:07:47.207Z</time></trkpt><trkpt lat="45.818745" lon="13.7087716"><ele>297.0</ele><time>2026-04-25T09:07:48.207Z</time></trkpt><trkpt lat="45.8186702" lon="13.7086393"><ele>297.0</ele><time>2026-04-25T09:07:49.207Z</time></trkpt><trkpt lat="45.8186051" lon="13.7085228"><ele>297.0</ele><time>2026-04-25T09:07:50.207Z</time></trkpt><trkpt lat="45.8185387" lon="13.7083995"><ele>297.0</ele><time>2026-04-25T09:07:51.207Z</time></trkpt><trkpt lat="45.8184786" lon="13.7082941"><ele>297.0</ele><time>2026-04-25T09:07:52.207Z</time></trkpt><trkpt lat="45.8184278" lon="13.7081917"><ele>297.0</ele><time>2026-04-25T09:07:53.207Z</time></trkpt><trkpt lat="45.8183865" lon="13.7081128"><ele>297.0</ele><time>2026-04-25T09:07:54.207Z</time></trkpt><trkpt lat="45.8183625" lon="13.7080206"><ele>297.0</ele><time>2026-04-25T09:07:56.207Z</time></trkpt><trkpt lat="45.818357" lon="13.7081292"><ele>297.0</ele><time>2026-04-25T09:08:05.207Z</time></trkpt><trkpt lat="45.8183952" lon="13.7082041"><ele>297.0</ele><time>2026-04-25T09:08:06.207Z</time></trkpt><trkpt lat="45.8184478" lon="13.708287"><ele>297.0</ele><time>2026-04-25T09:08:07.207Z</time></trkpt><trkpt lat="45.8185041" lon="13.7083828"><ele>297.0</ele><time>2026-04-25T09:08:08.207Z</time></trkpt><trkpt lat="45.8185611" lon="13.708477"><ele>297.0</ele><time>2026-04-25T09:08:09.207Z</time></trkpt><trkpt lat="45.8186168" lon="13.7085723"><ele>297.0</ele><time>2026-04-25T09:08:10.207Z</time></trkpt><trkpt lat="45.8186684" lon="13.7086663"><ele>297.0</ele><time>2026-04-25T09:08:11.207Z</time></trkpt><trkpt lat="45.8187048" lon="13.708753"><ele>297.0</ele><time>2026-04-25T09:08:12.207Z</time></trkpt><trkpt lat="45.8187243" lon="13.7088402"><ele>297.0</ele><time>2026-04-25T09:08:13.207Z</time></trkpt><trkpt lat="45.8187071" lon="13.709012"><ele>297.0</ele><time>2026-04-25T09:08:15.208Z</time></trkpt><trkpt lat="45.8187159" lon="13.7091417"><ele>297.0</ele><time>2026-04-25T09:08:17.207Z</time></trkpt><trkpt lat="45.818819" lon="13.7092015"><ele>297.0</ele><time>2026-04-25T09:08:19.207Z</time></trkpt><trkpt lat="45.8188879" lon="13.7092223"><ele>297.0</ele><time>2026-04-25T09:08:20.207Z</time></trkpt><trkpt lat="45.81897" lon="13.7092052"><ele>297.0</ele><time>2026-04-25T09:08:21.207Z</time></trkpt><trkpt lat="45.8190422" lon="13.7091808"><ele>297.0</ele><time>2026-04-25T09:08:22.207Z</time></trkpt><trkpt lat="45.8191047" lon="13.7091373"><ele>297.0</ele><time>2026-04-25T09:08:23.207Z</time></trkpt><trkpt lat="45.8191602" lon="13.7090852"><ele>297.0</ele><time>2026-04-25T09:08:24.207Z</time></trkpt><trkpt lat="45.8192455" lon="13.7089433"><ele>297.0</ele><time>2026-04-25T09:08:26.207Z</time></trkpt><trkpt lat="45.8193055" lon="13.708885"><ele>297.0</ele><time>2026-04-25T09:08:27.207Z</time></trkpt><trkpt lat="45.8193748" lon="13.7088116"><ele>297.0</ele><time>2026-04-25T09:08:28.207Z</time></trkpt><trkpt lat="45.8194424" lon="13.7087292"><ele>297.0</ele><time>2026-04-25T09:08:29.207Z</time></trkpt><trkpt lat="45.8195112" lon="13.7086616"><ele>297.0</ele><time>2026-04-25T09:08:30.208Z</time></trkpt><trkpt lat="45.8195826" lon="13.7086003"><ele>297.0</ele><time>2026-04-25T09:08:31.207Z</time></trkpt><trkpt lat="45.8196522" lon="13.7085375"><ele>297.8333333333333</ele><time>2026-04-25T09:08:32.208Z</time></trkpt><trkpt lat="45.8197157" lon="13.708468"><ele>298.6666666666667</ele><time>2026-04-25T09:08:33.207Z</time></trkpt><trkpt lat="45.819775" lon="13.70839"><ele>299.5</ele><time>2026-04-25T09:08:34.207Z</time></trkpt><trkpt lat="45.8198309" lon="13.7083077"><ele>300.33333333333337</ele><time>2026-04-25T09:08:35.207Z</time></trkpt><trkpt lat="45.8198845" lon="13.7082431"><ele>301.1666666666667</ele><time>2026-04-25T09:08:36.207Z</time></trkpt><trkpt lat="45.8199447" lon="13.7081921"><ele>302.0</ele><time>2026-04-25T09:08:37.207Z</time></trkpt><trkpt lat="45.8200289" lon="13.7081009"><ele>302.0</ele><time>2026-04-25T09:08:39.207Z</time></trkpt><trkpt lat="45.8200898" lon="13.7080424"><ele>302.0</ele><time>2026-04-25T09:08:41.207Z</time></trkpt><trkpt lat="45.8201524" lon="13.7079478"><ele>302.0</ele><time>2026-04-25T09:08:54.207Z</time></trkpt><trkpt lat="45.8202331" lon="13.7078385"><ele>302.0</ele><time>2026-04-25T09:08:56.207Z</time></trkpt><trkpt lat="45.8203355" lon="13.707748"><ele>302.0</ele><time>2026-04-25T09:08:58.207Z</time></trkpt><trkpt lat="45.820449" lon="13.7076718"><ele>303.0</ele><time>2026-04-25T09:09:00.207Z</time></trkpt><trkpt lat="45.8205135" lon="13.7076358"><ele>304.0</ele><time>2026-04-25T09:09:01.207Z</time></trkpt><trkpt lat="45.8205812" lon="13.7075906"><ele>305.0</ele><time>2026-04-25T09:09:02.207Z</time></trkpt><trkpt lat="45.8206478" lon="13.7075434"><ele>306.0</ele><time>2026-04-25T09:09:03.207Z</time></trkpt><trkpt lat="45.8207162" lon="13.7074993"><ele>307.0</ele><time>2026-04-25T09:09:04.207Z</time></trkpt><trkpt lat="45.8207874" lon="13.7074459"><ele>308.0</ele><time>2026-04-25T09:09:05.207Z</time></trkpt><trkpt lat="45.8208583" lon="13.7073751"><ele>308.0</ele><time>2026-04-25T09:09:06.207Z</time></trkpt><trkpt lat="45.8209254" lon="13.7073096"><ele>308.0</ele><time>2026-04-25T09:09:07.207Z</time></trkpt><trkpt lat="45.8209946" lon="13.707244"><ele>308.0</ele><time>2026-04-25T09:09:08.207Z</time></trkpt><trkpt lat="45.821068" lon="13.7071883"><ele>308.0</ele><time>2026-04-25T09:09:09.207Z</time></trkpt><trkpt lat="45.8211381" lon="13.7071249"><ele>308.0</ele><time>2026-04-25T09:09:10.207Z</time></trkpt><trkpt lat="45.821198" lon="13.7070658"><ele>308.0</ele><time>2026-04-25T09:09:11.207Z</time></trkpt><trkpt lat="45.8212594" lon="13.7070119"><ele>308.6666666666667</ele><time>2026-04-25T09:09:12.207Z</time></trkpt><trkpt lat="45.8213292" lon="13.7069508"><ele>309.33333333333337</ele><time>2026-04-25T09:09:13.207Z</time></trkpt><trkpt lat="45.8214001" lon="13.7068956"><ele>310.0</ele><time>2026-04-25T09:09:14.207Z</time></trkpt><trkpt lat="45.8214712" lon="13.7068525"><ele>310.6666666666667</ele><time>2026-04-25T09:09:15.207Z</time></trkpt><trkpt lat="45.8215502" lon="13.7068161"><ele>311.3333333333333</ele><time>2026-04-25T09:09:16.207Z</time></trkpt><trkpt lat="45.8216311" lon="13.7067802"><ele>312.0</ele><time>2026-04-25T09:09:17.207Z</time></trkpt><trkpt lat="45.8217174" lon="13.7067428"><ele>312.3333333333333</ele><time>2026-04-25T09:09:18.207Z</time></trkpt><trkpt lat="45.8218042" lon="13.7067034"><ele>312.6666666666667</ele><time>2026-04-25T09:09:19.207Z</time></trkpt><trkpt lat="45.8218912" lon="13.706664"><ele>313.0</ele><time>2026-04-25T09:09:20.207Z</time></trkpt><trkpt lat="45.8219687" lon="13.7066267"><ele>313.33333333333337</ele><time>2026-04-25T09:09:21.208Z</time></trkpt><trkpt lat="45.8220515" lon="13.7065777"><ele>313.6666666666667</ele><time>2026-04-25T09:09:22.207Z</time></trkpt><trkpt lat="45.8221302" lon="13.7065435"><ele>314.0</ele><time>2026-04-25T09:09:23.207Z</time></trkpt><trkpt lat="45.8222124" lon="13.7065066"><ele>314.0</ele><time>2026-04-25T09:09:24.207Z</time></trkpt><trkpt lat="45.8222903" lon="13.7064522"><ele>314.0</ele><time>2026-04-25T09:09:25.207Z</time></trkpt><trkpt lat="45.8223659" lon="13.7063926"><ele>314.0</ele><time>2026-04-25T09:09:26.207Z</time></trkpt><trkpt lat="45.8224369" lon="13.7063358"><ele>314.0</ele><time>2026-04-25T09:09:27.207Z</time></trkpt><trkpt lat="45.8225124" lon="13.7062839"><ele>314.0</ele><time>2026-04-25T09:09:28.207Z</time></trkpt><trkpt lat="45.8225887" lon="13.7062346"><ele>314.0</ele><time>2026-04-25T09:09:29.207Z</time></trkpt><trkpt lat="45.8226748" lon="13.7061884"><ele>314.0</ele><time>2026-04-25T09:09:30.207Z</time></trkpt><trkpt lat="45.8227645" lon="13.706149"><ele>314.0</ele><time>2026-04-25T09:09:31.207Z</time></trkpt><trkpt lat="45.822848" lon="13.7061312"><ele>314.0</ele><time>2026-04-25T09:09:32.207Z</time></trkpt><trkpt lat="45.8229365" lon="13.7061068"><ele>314.0</ele><time>2026-04-25T09:09:33.207Z</time></trkpt><trkpt lat="45.8230238" lon="13.7060802"><ele>314.0</ele><time>2026-04-25T09:09:34.207Z</time></trkpt><trkpt lat="45.8231172" lon="13.7060497"><ele>315.0</ele><time>2026-04-25T09:09:35.207Z</time></trkpt><trkpt lat="45.8232014" lon="13.7060272"><ele>316.0</ele><time>2026-04-25T09:09:36.207Z</time></trkpt><trkpt lat="45.823281" lon="13.706012"><ele>317.0</ele><time>2026-04-25T09:09:37.207Z</time></trkpt><trkpt lat="45.8233687" lon="13.7059851"><ele>318.0</ele><time>2026-04-25T09:09:38.207Z</time></trkpt><trkpt lat="45.8234472" lon="13.7059285"><ele>319.0</ele><time>2026-04-25T09:09:39.207Z</time></trkpt><trkpt lat="45.8235237" lon="13.705867"><ele>320.0</ele><time>2026-04-25T09:09:40.207Z</time></trkpt><trkpt lat="45.8235998" lon="13.7058035"><ele>320.1666666666667</ele><time>2026-04-25T09:09:41.208Z</time></trkpt><trkpt lat="45.8236675" lon="13.705721"><ele>320.33333333333337</ele><time>2026-04-25T09:09:42.207Z</time></trkpt><trkpt lat="45.8237373" lon="13.7056531"><ele>320.5</ele><time>2026-04-25T09:09:43.207Z</time></trkpt><trkpt lat="45.823805" lon="13.705588"><ele>320.6666666666667</ele><time>2026-04-25T09:09:44.207Z</time></trkpt><trkpt lat="45.8238737" lon="13.705519"><ele>320.8333333333333</ele><time>2026-04-25T09:09:45.207Z</time></trkpt><trkpt lat="45.8239417" lon="13.7054536"><ele>321.0</ele><time>2026-04-25T09:09:46.207Z</time></trkpt><trkpt lat="45.8240081" lon="13.7053908"><ele>321.0</ele><time>2026-04-25T09:09:47.207Z</time></trkpt><trkpt lat="45.8240795" lon="13.7053318"><ele>321.0</ele><time>2026-04-25T09:09:48.208Z</time></trkpt><trkpt lat="45.8241487" lon="13.7052613"><ele>321.0</ele><time>2026-04-25T09:09:49.207Z</time></trkpt><trkpt lat="45.8242214" lon="13.7051814"><ele>321.0</ele><time>2026-04-25T09:09:50.207Z</time></trkpt><trkpt lat="45.8242907" lon="13.7051067"><ele>321.0</ele><time>2026-04-25T09:09:51.207Z</time></trkpt><trkpt lat="45.8243596" lon="13.7050317"><ele>321.0</ele><time>2026-04-25T09:09:52.207Z</time></trkpt><trkpt lat="45.8244312" lon="13.7049595"><ele>321.0</ele><time>2026-04-25T09:09:53.207Z</time></trkpt><trkpt lat="45.8245032" lon="13.7048897"><ele>321.0</ele><time>2026-04-25T09:09:54.208Z</time></trkpt><trkpt lat="45.8245749" lon="13.7048168"><ele>321.0</ele><time>2026-04-25T09:09:55.207Z</time></trkpt><trkpt lat="45.824647" lon="13.7047507"><ele>321.0</ele><time>2026-04-25T09:09:56.207Z</time></trkpt><trkpt lat="45.8247224" lon="13.7046781"><ele>321.0</ele><time>2026-04-25T09:09:57.207Z</time></trkpt><trkpt lat="45.824803" lon="13.7046014"><ele>321.0</ele><time>2026-04-25T09:09:58.207Z</time></trkpt><trkpt lat="45.8248787" lon="13.7045262"><ele>321.0</ele><time>2026-04-25T09:09:59.207Z</time></trkpt><trkpt lat="45.8249564" lon="13.7044547"><ele>321.0</ele><time>2026-04-25T09:10:00.207Z</time></trkpt><trkpt lat="45.8250256" lon="13.7043839"><ele>321.0</ele><time>2026-04-25T09:10:01.207Z</time></trkpt><trkpt lat="45.825096" lon="13.7043216"><ele>321.0</ele><time>2026-04-25T09:10:02.207Z</time></trkpt><trkpt lat="45.8251646" lon="13.7042532"><ele>321.0</ele><time>2026-04-25T09:10:03.207Z</time></trkpt><trkpt lat="45.8252224" lon="13.7041821"><ele>321.0</ele><time>2026-04-25T09:10:04.208Z</time></trkpt><trkpt lat="45.8252885" lon="13.7041184"><ele>322.0</ele><time>2026-04-25T09:10:05.207Z</time></trkpt><trkpt lat="45.8253572" lon="13.7040504"><ele>323.0</ele><time>2026-04-25T09:10:06.207Z</time></trkpt><trkpt lat="45.8254302" lon="13.7039848"><ele>324.0</ele><time>2026-04-25T09:10:07.207Z</time></trkpt><trkpt lat="45.8254961" lon="13.7039351"><ele>325.0</ele><time>2026-04-25T09:10:08.207Z</time></trkpt><trkpt lat="45.8255609" lon="13.7038734"><ele>326.0</ele><time>2026-04-25T09:10:09.207Z</time></trkpt><trkpt lat="45.8256236" lon="13.7038216"><ele>327.0</ele><time>2026-04-25T09:10:10.207Z</time></trkpt><trkpt lat="45.825677" lon="13.7037626"><ele>327.0</ele><time>2026-04-25T09:10:11.207Z</time></trkpt><trkpt lat="45.8257256" lon="13.7036938"><ele>327.0</ele><time>2026-04-25T09:10:12.207Z</time></trkpt><trkpt lat="45.8257709" lon="13.7036182"><ele>327.0</ele><time>2026-04-25T09:10:13.207Z</time></trkpt><trkpt lat="45.8258154" lon="13.703535"><ele>327.0</ele><time>2026-04-25T09:10:14.207Z</time></trkpt><trkpt lat="45.825857" lon="13.7034596"><ele>327.0</ele><time>2026-04-25T09:10:15.207Z</time></trkpt><trkpt lat="45.8259412" lon="13.7033467"><ele>327.0</ele><time>2026-04-25T09:10:17.207Z</time></trkpt><trkpt lat="45.8260025" lon="13.7033089"><ele>327.6666666666667</ele><time>2026-04-25T09:10:18.207Z</time></trkpt><trkpt lat="45.8260642" lon="13.7032771"><ele>328.3333333333333</ele><time>2026-04-25T09:10:19.207Z</time></trkpt><trkpt lat="45.8261256" lon="13.7032531"><ele>329.0</ele><time>2026-04-25T09:10:20.207Z</time></trkpt><trkpt lat="45.82623" lon="13.7032315"><ele>329.66666666666663</ele><time>2026-04-25T09:10:22.207Z</time></trkpt><trkpt lat="45.826278" lon="13.7031469"><ele>330.3333333333333</ele><time>2026-04-25T09:10:25.207Z</time></trkpt><trkpt lat="45.8263519" lon="13.7032339"><ele>331.0</ele><time>2026-04-25T09:11:43.207Z</time></trkpt><trkpt lat="45.8264621" lon="13.7032413"><ele>331.0</ele><time>2026-04-25T09:11:45.207Z</time></trkpt><trkpt lat="45.8265773" lon="13.7032451"><ele>331.0</ele><time>2026-04-25T09:11:47.207Z</time></trkpt><trkpt lat="45.8266919" lon="13.703261"><ele>331.0</ele><time>2026-04-25T09:11:49.207Z</time></trkpt><trkpt lat="45.8268002" lon="13.7032954"><ele>331.0</ele><time>2026-04-25T09:11:51.207Z</time></trkpt><trkpt lat="45.8269137" lon="13.7033393"><ele>331.5</ele><time>2026-04-25T09:11:53.207Z</time></trkpt><trkpt lat="45.8269801" lon="13.7033698"><ele>332.0</ele><time>2026-04-25T09:11:54.208Z</time></trkpt><trkpt lat="45.8270933" lon="13.7034315"><ele>332.5</ele><time>2026-04-25T09:11:56.208Z</time></trkpt><trkpt lat="45.8271529" lon="13.7034611"><ele>333.0</ele><time>2026-04-25T09:11:57.207Z</time></trkpt><trkpt lat="45.8272107" lon="13.7035005"><ele>333.5</ele><time>2026-04-25T09:11:58.207Z</time></trkpt><trkpt lat="45.8272725" lon="13.7035397"><ele>334.0</ele><time>2026-04-25T09:11:59.207Z</time></trkpt><trkpt lat="45.827334" lon="13.7035857"><ele>334.1428571428571</ele><time>2026-04-25T09:12:00.207Z</time></trkpt><trkpt lat="45.8273936" lon="13.7036378"><ele>334.2857142857143</ele><time>2026-04-25T09:12:01.207Z</time></trkpt><trkpt lat="45.8274548" lon="13.7036918"><ele>334.42857142857144</ele><time>2026-04-25T09:12:02.207Z</time></trkpt><trkpt lat="45.8275169" lon="13.7037387"><ele>334.57142857142856</ele><time>2026-04-25T09:12:03.207Z</time></trkpt><trkpt lat="45.8275843" lon="13.703783"><ele>334.7142857142857</ele><time>2026-04-25T09:12:04.207Z</time></trkpt><trkpt lat="45.8276477" lon="13.7038294"><ele>334.85714285714283</ele><time>2026-04-25T09:12:05.207Z</time></trkpt><trkpt lat="45.8277036" lon="13.7038905"><ele>335.0</ele><time>2026-04-25T09:12:06.207Z</time></trkpt><trkpt lat="45.8277626" lon="13.7039498"><ele>334.99999999999994</ele><time>2026-04-25T09:12:07.207Z</time></trkpt><trkpt lat="45.8278163" lon="13.7040188"><ele>335.0</ele><time>2026-04-25T09:12:08.207Z</time></trkpt><trkpt lat="45.8278721" lon="13.7040866"><ele>335.0</ele><time>2026-04-25T09:12:09.207Z</time></trkpt><trkpt lat="45.8279334" lon="13.7041389"><ele>335.0</ele><time>2026-04-25T09:12:10.207Z</time></trkpt><trkpt lat="45.8279941" lon="13.7041844"><ele>335.0</ele><time>2026-04-25T09:12:11.207Z</time></trkpt><trkpt lat="45.8280554" lon="13.7042208"><ele>334.99999999999994</ele><time>2026-04-25T09:12:12.207Z</time></trkpt><trkpt lat="45.8281155" lon="13.7042593"><ele>335.0</ele><time>2026-04-25T09:12:13.207Z</time></trkpt><trkpt lat="45.8282395" lon="13.7043032"><ele>335.0</ele><time>2026-04-25T09:12:15.207Z</time></trkpt><trkpt lat="45.828349" lon="13.704357"><ele>335.0</ele><time>2026-04-25T09:12:17.207Z</time></trkpt><trkpt lat="45.8284602" lon="13.7044406"><ele>335.0</ele><time>2026-04-25T09:12:19.207Z</time></trkpt><trkpt lat="45.8285262" lon="13.7044784"><ele>335.0</ele><time>2026-04-25T09:12:20.207Z</time></trkpt><trkpt lat="45.8285948" lon="13.7045189"><ele>335.0</ele><time>2026-04-25T09:12:21.208Z</time></trkpt><trkpt lat="45.8286627" lon="13.7045505"><ele>335.0</ele><time>2026-04-25T09:12:22.207Z</time></trkpt><trkpt lat="45.8287288" lon="13.7045795"><ele>335.0</ele><time>2026-04-25T09:12:23.207Z</time></trkpt><trkpt lat="45.8287928" lon="13.7045973"><ele>335.0</ele><time>2026-04-25T09:12:24.207Z</time></trkpt><trkpt lat="45.8289028" lon="13.7046494"><ele>335.0</ele><time>2026-04-25T09:12:26.207Z</time></trkpt><trkpt lat="45.8289562" lon="13.7047021"><ele>335.0</ele><time>2026-04-25T09:12:27.207Z</time></trkpt><trkpt lat="45.8290101" lon="13.7047743"><ele>335.0</ele><time>2026-04-25T09:12:28.208Z</time></trkpt><trkpt lat="45.8290678" lon="13.7048584"><ele>334.99999999999994</ele><time>2026-04-25T09:12:29.208Z</time></trkpt><trkpt lat="45.8291281" lon="13.7049471"><ele>335.0</ele><time>2026-04-25T09:12:30.207Z</time></trkpt><trkpt lat="45.8291868" lon="13.7050255"><ele>335.0</ele><time>2026-04-25T09:12:31.207Z</time></trkpt><trkpt lat="45.8292394" lon="13.7050944"><ele>335.0</ele><time>2026-04-25T09:12:32.207Z</time></trkpt><trkpt lat="45.8292946" lon="13.7051574"><ele>335.0</ele><time>2026-04-25T09:12:33.207Z</time></trkpt><trkpt lat="45.8293543" lon="13.7052144"><ele>334.99999999999994</ele><time>2026-04-25T09:12:34.207Z</time></trkpt><trkpt lat="45.8294127" lon="13.7052636"><ele>335.0</ele><time>2026-04-25T09:12:35.207Z</time></trkpt><trkpt lat="45.829477" lon="13.7053043"><ele>335.83333333333337</ele><time>2026-04-25T09:12:36.207Z</time></trkpt><trkpt lat="45.8296013" lon="13.7053158"><ele>336.6666666666667</ele><time>2026-04-25T09:12:38.207Z</time></trkpt><trkpt lat="45.8296656" lon="13.7053146"><ele>337.5</ele><time>2026-04-25T09:12:39.207Z</time></trkpt><trkpt lat="45.8297367" lon="13.7053187"><ele>338.3333333333333</ele><time>2026-04-25T09:12:40.207Z</time></trkpt><trkpt lat="45.8298087" lon="13.7053237"><ele>339.16666666666663</ele><time>2026-04-25T09:12:41.207Z</time></trkpt><trkpt lat="45.8298843" lon="13.7053384"><ele>340.0</ele><time>2026-04-25T09:12:42.207Z</time></trkpt><trkpt lat="45.829951" lon="13.7053604"><ele>340.0</ele><time>2026-04-25T09:12:43.207Z</time></trkpt><trkpt lat="45.8300626" lon="13.7053861"><ele>340.0</ele><time>2026-04-25T09:12:45.207Z</time></trkpt><trkpt lat="45.8301776" lon="13.7053857"><ele>340.0</ele><time>2026-04-25T09:12:47.207Z</time></trkpt><trkpt lat="45.830241" lon="13.7053961"><ele>340.0</ele><time>2026-04-25T09:12:48.207Z</time></trkpt><trkpt lat="45.8303093" lon="13.7054119"><ele>340.0</ele><time>2026-04-25T09:12:49.208Z</time></trkpt><trkpt lat="45.8303773" lon="13.7054256"><ele>340.0</ele><time>2026-04-25T09:12:50.207Z</time></trkpt><trkpt lat="45.8304961" lon="13.7053995"><ele>340.16666666666663</ele><time>2026-04-25T09:12:52.208Z</time></trkpt><trkpt lat="45.830601" lon="13.7053533"><ele>340.3333333333333</ele><time>2026-04-25T09:12:54.208Z</time></trkpt><trkpt lat="45.8307085" lon="13.7053086"><ele>340.5</ele><time>2026-04-25T09:12:56.207Z</time></trkpt><trkpt lat="45.8307746" lon="13.7052767"><ele>340.6666666666667</ele><time>2026-04-25T09:12:57.207Z</time></trkpt><trkpt lat="45.8308359" lon="13.7052517"><ele>340.83333333333337</ele><time>2026-04-25T09:12:58.207Z</time></trkpt><trkpt lat="45.8309094" lon="13.7052284"><ele>341.0</ele><time>2026-04-25T09:12:59.207Z</time></trkpt><trkpt lat="45.8309738" lon="13.7052067"><ele>342.25</ele><time>2026-04-25T09:13:00.207Z</time></trkpt><trkpt lat="45.831089" lon="13.7051673"><ele>343.5</ele><time>2026-04-25T09:13:02.208Z</time></trkpt><trkpt lat="45.831198" lon="13.7051325"><ele>344.75</ele><time>2026-04-25T09:13:04.207Z</time></trkpt><trkpt lat="45.8312999" lon="13.7050983"><ele>346.0</ele><time>2026-04-25T09:13:06.207Z</time></trkpt><trkpt lat="45.831415" lon="13.7050392"><ele>346.0</ele><time>2026-04-25T09:13:08.207Z</time></trkpt><trkpt lat="45.8314768" lon="13.7050106"><ele>346.0</ele><time>2026-04-25T09:13:09.207Z</time></trkpt><trkpt lat="45.8315421" lon="13.7049849"><ele>346.0</ele><time>2026-04-25T09:13:10.207Z</time></trkpt><trkpt lat="45.8316667" lon="13.7049332"><ele>346.0</ele><time>2026-04-25T09:13:12.207Z</time></trkpt><trkpt lat="45.8317348" lon="13.7048992"><ele>346.0</ele><time>2026-04-25T09:13:13.207Z</time></trkpt><trkpt lat="45.8318012" lon="13.7048704"><ele>346.0</ele><time>2026-04-25T09:13:14.207Z</time></trkpt><trkpt lat="45.8318619" lon="13.7048385"><ele>346.0</ele><time>2026-04-25T09:13:15.207Z</time></trkpt><trkpt lat="45.8319706" lon="13.7047921"><ele>346.0</ele><time>2026-04-25T09:13:17.208Z</time></trkpt><trkpt lat="45.832034" lon="13.7047529"><ele>346.0</ele><time>2026-04-25T09:13:18.207Z</time></trkpt><trkpt lat="45.8321498" lon="13.7046831"><ele>346.0</ele><time>2026-04-25T09:13:20.207Z</time></trkpt><trkpt lat="45.8322137" lon="13.7046453"><ele>346.0</ele><time>2026-04-25T09:13:21.207Z</time></trkpt><trkpt lat="45.832281" lon="13.7046049"><ele>346.0</ele><time>2026-04-25T09:13:22.207Z</time></trkpt><trkpt lat="45.8323424" lon="13.7045592"><ele>346.0</ele><time>2026-04-25T09:13:23.207Z</time></trkpt><trkpt lat="45.8324538" lon="13.7044788"><ele>346.0</ele><time>2026-04-25T09:13:25.207Z</time></trkpt><trkpt lat="45.8325165" lon="13.7044477"><ele>346.0</ele><time>2026-04-25T09:13:26.207Z</time></trkpt><trkpt lat="45.8325752" lon="13.7044072"><ele>346.0</ele><time>2026-04-25T09:13:27.208Z</time></trkpt><trkpt lat="45.8326379" lon="13.7043709"><ele>346.0</ele><time>2026-04-25T09:13:28.207Z</time></trkpt><trkpt lat="45.8327097" lon="13.7043423"><ele>345.8333333333333</ele><time>2026-04-25T09:13:29.208Z</time></trkpt><trkpt lat="45.8327706" lon="13.7043034"><ele>345.66666666666663</ele><time>2026-04-25T09:13:30.207Z</time></trkpt><trkpt lat="45.832833" lon="13.7042621"><ele>345.5</ele><time>2026-04-25T09:13:31.207Z</time></trkpt><trkpt lat="45.832938" lon="13.7041802"><ele>345.3333333333333</ele><time>2026-04-25T09:13:33.207Z</time></trkpt><trkpt lat="45.8329928" lon="13.7041322"><ele>345.1666666666667</ele><time>2026-04-25T09:13:34.207Z</time></trkpt><trkpt lat="45.8330476" lon="13.7040716"><ele>345.0</ele><time>2026-04-25T09:13:35.207Z</time></trkpt><trkpt lat="45.8330992" lon="13.7040038"><ele>345.0</ele><time>2026-04-25T09:13:36.207Z</time></trkpt><trkpt lat="45.8331641" lon="13.7039357"><ele>345.0</ele><time>2026-04-25T09:13:37.207Z</time></trkpt><trkpt lat="45.8332317" lon="13.7038751"><ele>345.0</ele><time>2026-04-25T09:13:38.208Z</time></trkpt><trkpt lat="45.8332937" lon="13.7038307"><ele>345.0</ele><time>2026-04-25T09:13:39.207Z</time></trkpt><trkpt lat="45.8333593" lon="13.7037819"><ele>345.0</ele><time>2026-04-25T09:13:40.207Z</time></trkpt><trkpt lat="45.8334277" lon="13.7037347"><ele>345.0</ele><time>2026-04-25T09:13:41.207Z</time></trkpt><trkpt lat="45.8334976" lon="13.7036917"><ele>345.4</ele><time>2026-04-25T09:13:42.208Z</time></trkpt><trkpt lat="45.8335583" lon="13.7036423"><ele>345.8</ele><time>2026-04-25T09:13:43.207Z</time></trkpt><trkpt lat="45.833658" lon="13.703594"><ele>346.20000000000005</ele><time>2026-04-25T09:13:45.207Z</time></trkpt><trkpt lat="45.8337403" lon="13.703556"><ele>346.6</ele><time>2026-04-25T09:13:47.207Z</time></trkpt><trkpt lat="45.8338235" lon="13.7035123"><ele>347.0</ele><time>2026-04-25T09:13:49.207Z</time></trkpt><trkpt lat="45.8339237" lon="13.7034721"><ele>348.20000000000005</ele><time>2026-04-25T09:13:51.207Z</time></trkpt><trkpt lat="45.8340307" lon="13.7034344"><ele>349.4</ele><time>2026-04-25T09:13:53.207Z</time></trkpt><trkpt lat="45.8341307" lon="13.7033779"><ele>350.6</ele><time>2026-04-25T09:13:55.207Z</time></trkpt><trkpt lat="45.8342508" lon="13.7033049"><ele>351.79999999999995</ele><time>2026-04-25T09:13:57.207Z</time></trkpt><trkpt lat="45.8343168" lon="13.7032544"><ele>353.0</ele><time>2026-04-25T09:13:58.207Z</time></trkpt><trkpt lat="45.8343874" lon="13.703198"><ele>353.0</ele><time>2026-04-25T09:13:59.208Z</time></trkpt><trkpt lat="45.8344601" lon="13.7031325"><ele>353.0</ele><time>2026-04-25T09:14:00.207Z</time></trkpt><trkpt lat="45.8345345" lon="13.70307"><ele>353.0</ele><time>2026-04-25T09:14:01.207Z</time></trkpt><trkpt lat="45.8346111" lon="13.7030076"><ele>353.0</ele><time>2026-04-25T09:14:02.207Z</time></trkpt><trkpt lat="45.8346892" lon="13.7029477"><ele>353.0</ele><time>2026-04-25T09:14:03.207Z</time></trkpt><trkpt lat="45.8347673" lon="13.702883"><ele>353.0</ele><time>2026-04-25T09:14:04.207Z</time></trkpt><trkpt lat="45.8348434" lon="13.7028211"><ele>353.0</ele><time>2026-04-25T09:14:05.207Z</time></trkpt><trkpt lat="45.8349215" lon="13.7027599"><ele>353.0</ele><time>2026-04-25T09:14:06.207Z</time></trkpt><trkpt lat="45.8349967" lon="13.702692"><ele>353.0</ele><time>2026-04-25T09:14:07.207Z</time></trkpt><trkpt lat="45.8350707" lon="13.7026204"><ele>353.0</ele><time>2026-04-25T09:14:08.207Z</time></trkpt><trkpt lat="45.8351478" lon="13.7025589"><ele>353.0</ele><time>2026-04-25T09:14:09.207Z</time></trkpt><trkpt lat="45.8352244" lon="13.7025121"><ele>353.0</ele><time>2026-04-25T09:14:10.207Z</time></trkpt><trkpt lat="45.8353065" lon="13.7024606"><ele>354.0</ele><time>2026-04-25T09:14:11.207Z</time></trkpt><trkpt lat="45.835378" lon="13.7024102"><ele>355.0</ele><time>2026-04-25T09:14:12.207Z</time></trkpt><trkpt lat="45.8354516" lon="13.702346"><ele>356.0</ele><time>2026-04-25T09:14:13.207Z</time></trkpt><trkpt lat="45.8355284" lon="13.7022871"><ele>357.0</ele><time>2026-04-25T09:14:14.208Z</time></trkpt><trkpt lat="45.8356093" lon="13.7022207"><ele>358.0</ele><time>2026-04-25T09:14:15.207Z</time></trkpt><trkpt lat="45.8356878" lon="13.7021586"><ele>359.0</ele><time>2026-04-25T09:14:16.207Z</time></trkpt><trkpt lat="45.835766" lon="13.702107"><ele>359.0</ele><time>2026-04-25T09:14:17.207Z</time></trkpt><trkpt lat="45.8358494" lon="13.702063"><ele>359.0</ele><time>2026-04-25T09:14:18.207Z</time></trkpt><trkpt lat="45.8359336" lon="13.7020285"><ele>359.0</ele><time>2026-04-25T09:14:19.207Z</time></trkpt><trkpt lat="45.8360142" lon="13.7019911"><ele>359.0</ele><time>2026-04-25T09:14:20.207Z</time></trkpt><trkpt lat="45.8360917" lon="13.7019511"><ele>359.0</ele><time>2026-04-25T09:14:21.207Z</time></trkpt><trkpt lat="45.8361552" lon="13.7019166"><ele>359.0</ele><time>2026-04-25T09:14:22.207Z</time></trkpt><trkpt lat="45.8362616" lon="13.701842"><ele>359.1666666666667</ele><time>2026-04-25T09:14:24.207Z</time></trkpt><trkpt lat="45.836317" lon="13.701778"><ele>359.33333333333337</ele><time>2026-04-25T09:14:25.207Z</time></trkpt><trkpt lat="45.8363663" lon="13.7017125"><ele>359.5</ele><time>2026-04-25T09:14:26.207Z</time></trkpt><trkpt lat="45.8364258" lon="13.7016522"><ele>359.6666666666667</ele><time>2026-04-25T09:14:27.207Z</time></trkpt><trkpt lat="45.8364945" lon="13.7016011"><ele>359.8333333333333</ele><time>2026-04-25T09:14:28.207Z</time></trkpt><trkpt lat="45.8365909" lon="13.7015034"><ele>360.0</ele><time>2026-04-25T09:14:30.207Z</time></trkpt><trkpt lat="45.8366446" lon="13.7013962"><ele>360.0</ele><time>2026-04-25T09:14:32.207Z</time></trkpt><trkpt lat="45.8366896" lon="13.7012987"><ele>360.0</ele><time>2026-04-25T09:14:34.207Z</time></trkpt><trkpt lat="45.836737" lon="13.7011857"><ele>360.0</ele><time>2026-04-25T09:14:36.207Z</time></trkpt><trkpt lat="45.836766" lon="13.7010812"><ele>360.0</ele><time>2026-04-25T09:14:38.207Z</time></trkpt><trkpt lat="45.8368182" lon="13.7010303"><ele>360.0</ele><time>2026-04-25T09:14:40.207Z</time></trkpt><trkpt lat="45.8368753" lon="13.7009843"><ele>360.0</ele><time>2026-04-25T09:14:42.207Z</time></trkpt><trkpt lat="45.8369309" lon="13.7009404"><ele>360.0</ele><time>2026-04-25T09:14:44.207Z</time></trkpt><trkpt lat="45.8370024" lon="13.7009144"><ele>359.8333333333333</ele><time>2026-04-25T09:14:46.212Z</time></trkpt><trkpt lat="45.8370704" lon="13.7009206"><ele>359.6666666666667</ele><time>2026-04-25T09:14:48.207Z</time></trkpt><trkpt lat="45.8371318" lon="13.7009437"><ele>359.5</ele><time>2026-04-25T09:14:50.207Z</time></trkpt><trkpt lat="45.8372541" lon="13.7009721"><ele>359.33333333333337</ele><time>2026-04-25T09:15:27.207Z</time></trkpt><trkpt lat="45.8373226" lon="13.7009983"><ele>359.1666666666667</ele><time>2026-04-25T09:15:28.207Z</time></trkpt><trkpt lat="45.8373964" lon="13.7010096"><ele>359.0</ele><time>2026-04-25T09:15:29.207Z</time></trkpt><trkpt lat="45.8374764" lon="13.7010138"><ele>359.0</ele><time>2026-04-25T09:15:30.207Z</time></trkpt><trkpt lat="45.8375556" lon="13.7010112"><ele>359.0</ele><time>2026-04-25T09:15:31.207Z</time></trkpt><trkpt lat="45.8376365" lon="13.701012"><ele>359.0</ele><time>2026-04-25T09:15:32.207Z</time></trkpt><trkpt lat="45.8377174" lon="13.7010195"><ele>359.0</ele><time>2026-04-25T09:15:33.207Z</time></trkpt><trkpt lat="45.8377975" lon="13.7010246"><ele>359.0</ele><time>2026-04-25T09:15:34.207Z</time></trkpt><trkpt lat="45.8378821" lon="13.7010235"><ele>359.0</ele><time>2026-04-25T09:15:35.207Z</time></trkpt><trkpt lat="45.8379669" lon="13.7010249"><ele>359.1666666666667</ele><time>2026-04-25T09:15:36.207Z</time></trkpt><trkpt lat="45.8380552" lon="13.7010234"><ele>359.33333333333337</ele><time>2026-04-25T09:15:37.207Z</time></trkpt><trkpt lat="45.8381432" lon="13.7010163"><ele>359.5</ele><time>2026-04-25T09:15:38.207Z</time></trkpt><trkpt lat="45.8382285" lon="13.7010109"><ele>359.6666666666667</ele><time>2026-04-25T09:15:39.207Z</time></trkpt><trkpt lat="45.8383144" lon="13.7010071"><ele>359.8333333333333</ele><time>2026-04-25T09:15:40.207Z</time></trkpt><trkpt lat="45.8384012" lon="13.7010024"><ele>360.0</ele><time>2026-04-25T09:15:41.207Z</time></trkpt><trkpt lat="45.8384861" lon="13.7009958"><ele>360.3333333333333</ele><time>2026-04-25T09:15:42.207Z</time></trkpt><trkpt lat="45.8385683" lon="13.7009817"><ele>360.6666666666667</ele><time>2026-04-25T09:15:43.207Z</time></trkpt><trkpt lat="45.8386532" lon="13.7009659"><ele>361.0</ele><time>2026-04-25T09:15:44.207Z</time></trkpt><trkpt lat="45.8387355" lon="13.7009498"><ele>361.33333333333337</ele><time>2026-04-25T09:15:45.207Z</time></trkpt><trkpt lat="45.8388165" lon="13.700932"><ele>361.6666666666667</ele><time>2026-04-25T09:15:46.207Z</time></trkpt><trkpt lat="45.8388978" lon="13.7009138"><ele>362.0</ele><time>2026-04-25T09:15:47.207Z</time></trkpt><trkpt lat="45.8389725" lon="13.7008962"><ele>362.0</ele><time>2026-04-25T09:15:48.207Z</time></trkpt><trkpt lat="45.8390376" lon="13.7008661"><ele>362.0</ele><time>2026-04-25T09:15:49.207Z</time></trkpt><trkpt lat="45.8391553" lon="13.7008127"><ele>362.0</ele><time>2026-04-25T09:15:51.207Z</time></trkpt><trkpt lat="45.839222" lon="13.7007886"><ele>362.0</ele><time>2026-04-25T09:15:52.208Z</time></trkpt><trkpt lat="45.8392979" lon="13.7007681"><ele>362.0</ele><time>2026-04-25T09:15:53.207Z</time></trkpt><trkpt lat="45.8393801" lon="13.70075"><ele>362.0</ele><time>2026-04-25T09:15:54.208Z</time></trkpt><trkpt lat="45.8394649" lon="13.7007332"><ele>361.5</ele><time>2026-04-25T09:15:55.207Z</time></trkpt><trkpt lat="45.8395473" lon="13.7007178"><ele>361.0</ele><time>2026-04-25T09:15:56.207Z</time></trkpt><trkpt lat="45.8396339" lon="13.7006885"><ele>360.5</ele><time>2026-04-25T09:15:57.207Z</time></trkpt><trkpt lat="45.8397198" lon="13.7006592"><ele>360.0</ele><time>2026-04-25T09:15:58.207Z</time></trkpt><trkpt lat="45.8398053" lon="13.7006334"><ele>359.5</ele><time>2026-04-25T09:15:59.207Z</time></trkpt><trkpt lat="45.8398946" lon="13.7006159"><ele>359.0</ele><time>2026-04-25T09:16:00.207Z</time></trkpt><trkpt lat="45.8399856" lon="13.700609"><ele>359.0</ele><time>2026-04-25T09:16:01.207Z</time></trkpt><trkpt lat="45.8400746" lon="13.7006114"><ele>359.0</ele><time>2026-04-25T09:16:02.207Z</time></trkpt><trkpt lat="45.8401567" lon="13.7006125"><ele>359.0</ele><time>2026-04-25T09:16:03.207Z</time></trkpt><trkpt lat="45.8402361" lon="13.700625"><ele>359.0</ele><time>2026-04-25T09:16:04.207Z</time></trkpt><trkpt lat="45.8403109" lon="13.7006451"><ele>359.0</ele><time>2026-04-25T09:16:05.207Z</time></trkpt><trkpt lat="45.84039" lon="13.7006523"><ele>359.0</ele><time>2026-04-25T09:16:06.207Z</time></trkpt><trkpt lat="45.840467" lon="13.7006412"><ele>359.0</ele><time>2026-04-25T09:16:07.208Z</time></trkpt><trkpt lat="45.8405388" lon="13.7006189"><ele>359.0</ele><time>2026-04-25T09:16:08.207Z</time></trkpt><trkpt lat="45.8406122" lon="13.7005854"><ele>359.0</ele><time>2026-04-25T09:16:09.207Z</time></trkpt><trkpt lat="45.8406803" lon="13.7005443"><ele>359.0</ele><time>2026-04-25T09:16:10.207Z</time></trkpt><trkpt lat="45.8407425" lon="13.7005006"><ele>359.0</ele><time>2026-04-25T09:16:11.207Z</time></trkpt><trkpt lat="45.8408371" lon="13.7004265"><ele>359.0</ele><time>2026-04-25T09:16:13.207Z</time></trkpt><trkpt lat="45.8409022" lon="13.7003807"><ele>359.0</ele><time>2026-04-25T09:16:15.207Z</time></trkpt><trkpt lat="45.8409652" lon="13.7003382"><ele>359.0</ele><time>2026-04-25T09:16:18.208Z</time></trkpt><trkpt lat="45.8410639" lon="13.7003158"><ele>359.0</ele><time>2026-04-25T09:16:25.207Z</time></trkpt><trkpt lat="45.8411508" lon="13.7003211"><ele>359.0</ele><time>2026-04-25T09:16:27.207Z</time></trkpt><trkpt lat="45.8412305" lon="13.7003192"><ele>359.0</ele><time>2026-04-25T09:16:30.207Z</time></trkpt><trkpt lat="45.8413275" lon="13.7003215"><ele>359.0</ele><time>2026-04-25T09:16:37.207Z</time></trkpt><trkpt lat="45.841437" lon="13.7002915"><ele>359.2</ele><time>2026-04-25T09:16:39.207Z</time></trkpt><trkpt lat="45.8415689" lon="13.7002625"><ele>359.4</ele><time>2026-04-25T09:16:41.207Z</time></trkpt><trkpt lat="45.841651" lon="13.700256"><ele>359.6</ele><time>2026-04-25T09:16:42.208Z</time></trkpt><trkpt lat="45.8417357" lon="13.700255"><ele>359.8</ele><time>2026-04-25T09:16:43.207Z</time></trkpt><trkpt lat="45.8418195" lon="13.7002496"><ele>360.0</ele><time>2026-04-25T09:16:44.207Z</time></trkpt><trkpt lat="45.8419024" lon="13.7002463"><ele>360.8333333333333</ele><time>2026-04-25T09:16:45.207Z</time></trkpt><trkpt lat="45.8419781" lon="13.7002529"><ele>361.6666666666667</ele><time>2026-04-25T09:16:46.207Z</time></trkpt><trkpt lat="45.8420519" lon="13.7002602"><ele>362.5</ele><time>2026-04-25T09:16:47.207Z</time></trkpt><trkpt lat="45.8421256" lon="13.7002587"><ele>363.33333333333337</ele><time>2026-04-25T09:16:48.207Z</time></trkpt><trkpt lat="45.8421967" lon="13.7002701"><ele>364.1666666666667</ele><time>2026-04-25T09:16:49.207Z</time></trkpt><trkpt lat="45.8422663" lon="13.7003026"><ele>365.0</ele><time>2026-04-25T09:16:50.207Z</time></trkpt><trkpt lat="45.8423435" lon="13.7003459"><ele>365.0</ele><time>2026-04-25T09:16:51.207Z</time></trkpt><trkpt lat="45.8424242" lon="13.7004017"><ele>365.0</ele><time>2026-04-25T09:16:52.207Z</time></trkpt><trkpt lat="45.8425057" lon="13.7004632"><ele>365.0</ele><time>2026-04-25T09:16:53.207Z</time></trkpt><trkpt lat="45.8425906" lon="13.7005204"><ele>365.0</ele><time>2026-04-25T09:16:54.207Z</time></trkpt><trkpt lat="45.842672" lon="13.7005815"><ele>365.0</ele><time>2026-04-25T09:16:55.207Z</time></trkpt><trkpt lat="45.8427428" lon="13.7006561"><ele>365.33333333333337</ele><time>2026-04-25T09:16:56.207Z</time></trkpt><trkpt lat="45.8428077" lon="13.7007434"><ele>365.6666666666667</ele><time>2026-04-25T09:16:57.207Z</time></trkpt><trkpt lat="45.8428717" lon="13.7008298"><ele>366.0</ele><time>2026-04-25T09:16:58.207Z</time></trkpt><trkpt lat="45.8429393" lon="13.7009124"><ele>366.3333333333333</ele><time>2026-04-25T09:16:59.207Z</time></trkpt><trkpt lat="45.8429972" lon="13.7009934"><ele>366.66666666666663</ele><time>2026-04-25T09:17:00.207Z</time></trkpt><trkpt lat="45.8430434" lon="13.7010831"><ele>367.0</ele><time>2026-04-25T09:17:01.207Z</time></trkpt><trkpt lat="45.8430874" lon="13.7011715"><ele>367.0</ele><time>2026-04-25T09:17:02.207Z</time></trkpt><trkpt lat="45.8431241" lon="13.7012476"><ele>367.0</ele><time>2026-04-25T09:17:03.207Z</time></trkpt><trkpt lat="45.8431643" lon="13.7013181"><ele>367.0</ele><time>2026-04-25T09:17:04.207Z</time></trkpt><trkpt lat="45.8432207" lon="13.7013647"><ele>367.0</ele><time>2026-04-25T09:17:05.207Z</time></trkpt><trkpt lat="45.8432878" lon="13.7013992"><ele>367.0</ele><time>2026-04-25T09:17:06.207Z</time></trkpt><trkpt lat="45.8433611" lon="13.7014211"><ele>367.0</ele><time>2026-04-25T09:17:07.207Z</time></trkpt><trkpt lat="45.843441" lon="13.7014246"><ele>367.0</ele><time>2026-04-25T09:17:08.207Z</time></trkpt><trkpt lat="45.8435302" lon="13.7014129"><ele>367.3333333333333</ele><time>2026-04-25T09:17:09.207Z</time></trkpt><trkpt lat="45.8436233" lon="13.7013974"><ele>367.66666666666663</ele><time>2026-04-25T09:17:10.207Z</time></trkpt><trkpt lat="45.8437157" lon="13.7013803"><ele>368.0</ele><time>2026-04-25T09:17:11.207Z</time></trkpt><trkpt lat="45.8438016" lon="13.7013695"><ele>368.3333333333333</ele><time>2026-04-25T09:17:12.207Z</time></trkpt><trkpt lat="45.843882" lon="13.7013603"><ele>368.6666666666667</ele><time>2026-04-25T09:17:13.207Z</time></trkpt><trkpt lat="45.8439571" lon="13.7013464"><ele>369.0</ele><time>2026-04-25T09:17:14.207Z</time></trkpt><trkpt lat="45.8440345" lon="13.7013282"><ele>369.0</ele><time>2026-04-25T09:17:15.207Z</time></trkpt><trkpt lat="45.8441123" lon="13.7013115"><ele>369.0</ele><time>2026-04-25T09:17:16.207Z</time></trkpt><trkpt lat="45.8441869" lon="13.7013002"><ele>369.0</ele><time>2026-04-25T09:17:17.207Z</time></trkpt><trkpt lat="45.8442582" lon="13.7012982"><ele>369.0</ele><time>2026-04-25T09:17:18.207Z</time></trkpt><trkpt lat="45.8443349" lon="13.7013049"><ele>369.0</ele><time>2026-04-25T09:17:19.207Z</time></trkpt><trkpt lat="45.844415" lon="13.7013193"><ele>369.0</ele><time>2026-04-25T09:17:20.207Z</time></trkpt><trkpt lat="45.8444989" lon="13.7013327"><ele>369.5</ele><time>2026-04-25T09:17:21.207Z</time></trkpt><trkpt lat="45.8445807" lon="13.7013524"><ele>370.0</ele><time>2026-04-25T09:17:22.207Z</time></trkpt><trkpt lat="45.8446569" lon="13.7013841"><ele>370.5</ele><time>2026-04-25T09:17:23.207Z</time></trkpt><trkpt lat="45.8447364" lon="13.7014152"><ele>371.0</ele><time>2026-04-25T09:17:24.207Z</time></trkpt><trkpt lat="45.8448174" lon="13.7014526"><ele>371.5</ele><time>2026-04-25T09:17:25.207Z</time></trkpt><trkpt lat="45.8448997" lon="13.7015088"><ele>372.0</ele><time>2026-04-25T09:17:26.207Z</time></trkpt><trkpt lat="45.8449838" lon="13.7015851"><ele>372.0</ele><time>2026-04-25T09:17:27.207Z</time></trkpt><trkpt lat="45.8450561" lon="13.7016625"><ele>372.0</ele><time>2026-04-25T09:17:28.207Z</time></trkpt><trkpt lat="45.8451155" lon="13.7017467"><ele>372.0</ele><time>2026-04-25T09:17:29.207Z</time></trkpt><trkpt lat="45.8451763" lon="13.7018265"><ele>372.0</ele><time>2026-04-25T09:17:30.207Z</time></trkpt><trkpt lat="45.8452405" lon="13.7018902"><ele>372.0</ele><time>2026-04-25T09:17:31.207Z</time></trkpt><trkpt lat="45.8453043" lon="13.7019358"><ele>372.0</ele><time>2026-04-25T09:17:32.207Z</time></trkpt><trkpt lat="45.8453676" lon="13.7019673"><ele>372.1666666666667</ele><time>2026-04-25T09:17:33.207Z</time></trkpt><trkpt lat="45.8454315" lon="13.7019907"><ele>372.3333333333333</ele><time>2026-04-25T09:17:34.207Z</time></trkpt><trkpt lat="45.8454999" lon="13.7019961"><ele>372.5</ele><time>2026-04-25T09:17:35.207Z</time></trkpt><trkpt lat="45.8455742" lon="13.7019725"><ele>372.66666666666663</ele><time>2026-04-25T09:17:36.207Z</time></trkpt><trkpt lat="45.8456516" lon="13.7019254"><ele>372.8333333333333</ele><time>2026-04-25T09:17:37.207Z</time></trkpt><trkpt lat="45.8457403" lon="13.7018623"><ele>373.0</ele><time>2026-04-25T09:17:38.207Z</time></trkpt><trkpt lat="45.845831" lon="13.7018024"><ele>373.16666666666663</ele><time>2026-04-25T09:17:39.207Z</time></trkpt><trkpt lat="45.8459137" lon="13.7017501"><ele>373.3333333333333</ele><time>2026-04-25T09:17:40.207Z</time></trkpt><trkpt lat="45.8459966" lon="13.7016964"><ele>373.5</ele><time>2026-04-25T09:17:41.207Z</time></trkpt><trkpt lat="45.8460745" lon="13.7016464"><ele>373.6666666666667</ele><time>2026-04-25T09:17:42.207Z</time></trkpt><trkpt lat="45.8461479" lon="13.7016061"><ele>373.83333333333337</ele><time>2026-04-25T09:17:43.207Z</time></trkpt><trkpt lat="45.8462258" lon="13.7015842"><ele>374.0</ele><time>2026-04-25T09:17:44.207Z</time></trkpt><trkpt lat="45.8463013" lon="13.7015631"><ele>374.0</ele><time>2026-04-25T09:17:45.207Z</time></trkpt><trkpt lat="45.846372" lon="13.7015435"><ele>374.0</ele><time>2026-04-25T09:17:46.207Z</time></trkpt><trkpt lat="45.8464389" lon="13.701542"><ele>374.0</ele><time>2026-04-25T09:17:47.207Z</time></trkpt><trkpt lat="45.8465129" lon="13.7015583"><ele>374.0</ele><time>2026-04-25T09:17:48.207Z</time></trkpt><trkpt lat="45.8465934" lon="13.7015786"><ele>374.0</ele><time>2026-04-25T09:17:49.207Z</time></trkpt><trkpt lat="45.8466812" lon="13.7015907"><ele>374.0</ele><time>2026-04-25T09:17:50.207Z</time></trkpt><trkpt lat="45.8467742" lon="13.7015962"><ele>374.0</ele><time>2026-04-25T09:17:51.207Z</time></trkpt><trkpt lat="45.8468628" lon="13.7015932"><ele>374.0</ele><time>2026-04-25T09:17:52.207Z</time></trkpt><trkpt lat="45.8469451" lon="13.7015876"><ele>374.0</ele><time>2026-04-25T09:17:53.207Z</time></trkpt><trkpt lat="45.847014" lon="13.7015864"><ele>374.0</ele><time>2026-04-25T09:17:54.207Z</time></trkpt><trkpt lat="45.8471106" lon="13.701593"><ele>374.0</ele><time>2026-04-25T09:17:56.207Z</time></trkpt><trkpt lat="45.8471935" lon="13.7015873"><ele>374.0</ele><time>2026-04-25T09:18:06.207Z</time></trkpt><trkpt lat="45.8472983" lon="13.701541"><ele>374.0</ele><time>2026-04-25T09:18:08.207Z</time></trkpt><trkpt lat="45.8473532" lon="13.7014935"><ele>374.0</ele><time>2026-04-25T09:18:09.207Z</time></trkpt><trkpt lat="45.8474417" lon="13.7014474"><ele>374.0</ele><time>2026-04-25T09:18:11.207Z</time></trkpt><trkpt lat="45.8475486" lon="13.7014045"><ele>374.0</ele><time>2026-04-25T09:18:48.207Z</time></trkpt><trkpt lat="45.8476107" lon="13.7013851"><ele>374.0</ele><time>2026-04-25T09:18:49.208Z</time></trkpt><trkpt lat="45.8476758" lon="13.7013579"><ele>374.0</ele><time>2026-04-25T09:18:50.207Z</time></trkpt><trkpt lat="45.8477418" lon="13.7013287"><ele>374.1666666666667</ele><time>2026-04-25T09:18:51.207Z</time></trkpt><trkpt lat="45.8478061" lon="13.7013008"><ele>374.33333333333337</ele><time>2026-04-25T09:18:52.207Z</time></trkpt><trkpt lat="45.8479245" lon="13.7012832"><ele>374.5</ele><time>2026-04-25T09:18:54.207Z</time></trkpt><trkpt lat="45.8479961" lon="13.7012944"><ele>374.6666666666667</ele><time>2026-04-25T09:18:55.207Z</time></trkpt><trkpt lat="45.8480763" lon="13.7013155"><ele>374.8333333333333</ele><time>2026-04-25T09:18:56.207Z</time></trkpt><trkpt lat="45.8481537" lon="13.7013427"><ele>375.0</ele><time>2026-04-25T09:18:57.207Z</time></trkpt><trkpt lat="45.8482289" lon="13.7013725"><ele>375.0</ele><time>2026-04-25T09:18:58.207Z</time></trkpt><trkpt lat="45.8483025" lon="13.7014046"><ele>375.0</ele><time>2026-04-25T09:18:59.207Z</time></trkpt><trkpt lat="45.8483788" lon="13.7014574"><ele>375.0</ele><time>2026-04-25T09:19:00.207Z</time></trkpt><trkpt lat="45.8484466" lon="13.701542"><ele>375.0</ele><time>2026-04-25T09:19:01.207Z</time></trkpt><trkpt lat="45.8485089" lon="13.7016224"><ele>375.0</ele><time>2026-04-25T09:19:02.207Z</time></trkpt><trkpt lat="45.8485613" lon="13.7016962"><ele>375.0</ele><time>2026-04-25T09:19:03.207Z</time></trkpt><trkpt lat="45.848603" lon="13.7017657"><ele>376.0</ele><time>2026-04-25T09:19:04.207Z</time></trkpt><trkpt lat="45.8486517" lon="13.7018292"><ele>377.0</ele><time>2026-04-25T09:19:05.208Z</time></trkpt><trkpt lat="45.8487534" lon="13.7019223"><ele>378.0</ele><time>2026-04-25T09:19:07.207Z</time></trkpt><trkpt lat="45.8488062" lon="13.7019782"><ele>379.0</ele><time>2026-04-25T09:19:08.207Z</time></trkpt><trkpt lat="45.8488956" lon="13.7020783"><ele>380.0</ele><time>2026-04-25T09:19:10.207Z</time></trkpt><trkpt lat="45.8489594" lon="13.702121"><ele>381.0</ele><time>2026-04-25T09:19:12.207Z</time></trkpt><trkpt lat="45.8490291" lon="13.7020288"><ele>381.1666666666667</ele><time>2026-04-25T09:19:15.207Z</time></trkpt><trkpt lat="45.8490761" lon="13.7019044"><ele>381.3333333333333</ele><time>2026-04-25T09:19:17.207Z</time></trkpt><trkpt lat="45.8491129" lon="13.7018037"><ele>381.5</ele><time>2026-04-25T09:19:19.207Z</time></trkpt><trkpt lat="45.8491523" lon="13.701716"><ele>381.66666666666663</ele><time>2026-04-25T09:19:21.207Z</time></trkpt><trkpt lat="45.8491818" lon="13.7016336"><ele>381.8333333333333</ele><time>2026-04-25T09:19:24.207Z</time></trkpt><trkpt lat="45.8492558" lon="13.7015244"><ele>382.0</ele><time>2026-04-25T09:19:27.207Z</time></trkpt><trkpt lat="45.8493205" lon="13.7013975"><ele>385.6</ele><time>2026-04-25T09:19:29.207Z</time></trkpt><trkpt lat="45.8493757" lon="13.7012673"><ele>389.20000000000005</ele><time>2026-04-25T09:19:31.208Z</time></trkpt><trkpt lat="45.8494218" lon="13.7011523"><ele>392.8</ele><time>2026-04-25T09:19:33.207Z</time></trkpt><trkpt lat="45.8494516" lon="13.7010277"><ele>396.4</ele><time>2026-04-25T09:19:35.207Z</time></trkpt><trkpt lat="45.8494828" lon="13.7008909"><ele>400.0</ele><time>2026-04-25T09:19:37.207Z</time></trkpt><trkpt lat="45.8495288" lon="13.7007873"><ele>400.1666666666667</ele><time>2026-04-25T09:19:39.207Z</time></trkpt><trkpt lat="45.8495922" lon="13.7007092"><ele>400.33333333333337</ele><time>2026-04-25T09:19:41.207Z</time></trkpt><trkpt lat="45.8496504" lon="13.7006232"><ele>400.5</ele><time>2026-04-25T09:19:43.207Z</time></trkpt><trkpt lat="45.8496898" lon="13.7005365"><ele>400.66666666666663</ele><time>2026-04-25T09:19:45.207Z</time></trkpt><trkpt lat="45.8497156" lon="13.7004521"><ele>400.8333333333333</ele><time>2026-04-25T09:19:47.207Z</time></trkpt><trkpt lat="45.8497489" lon="13.7003086"><ele>401.0</ele><time>2026-04-25T09:19:50.207Z</time></trkpt><trkpt lat="45.8497774" lon="13.7001722"><ele>400.0</ele><time>2026-04-25T09:19:52.207Z</time></trkpt><trkpt lat="45.8498157" lon="13.7000225"><ele>399.0</ele><time>2026-04-25T09:19:54.207Z</time></trkpt><trkpt lat="45.8498739" lon="13.6999009"><ele>398.0</ele><time>2026-04-25T09:19:56.207Z</time></trkpt><trkpt lat="45.8499294" lon="13.699803"><ele>397.0</ele><time>2026-04-25T09:19:58.207Z</time></trkpt><trkpt lat="45.8499905" lon="13.6996856"><ele>396.0</ele><time>2026-04-25T09:20:00.207Z</time></trkpt><trkpt lat="45.8500222" lon="13.6996044"><ele>396.0</ele><time>2026-04-25T09:20:02.207Z</time></trkpt><trkpt lat="45.8500113" lon="13.6994927"><ele>396.0</ele><time>2026-04-25T09:20:04.208Z</time></trkpt><trkpt lat="45.8500152" lon="13.6993644"><ele>396.0</ele><time>2026-04-25T09:20:06.207Z</time></trkpt><trkpt lat="45.8500324" lon="13.6992071"><ele>396.0</ele><time>2026-04-25T09:20:08.207Z</time></trkpt><trkpt lat="45.8500545" lon="13.6990782"><ele>396.0</ele><time>2026-04-25T09:20:10.207Z</time></trkpt><trkpt lat="45.8500839" lon="13.6989682"><ele>398.5</ele><time>2026-04-25T09:20:12.207Z</time></trkpt><trkpt lat="45.8501294" lon="13.6988827"><ele>401.0</ele><time>2026-04-25T09:20:14.207Z</time></trkpt><trkpt lat="45.8501692" lon="13.6987925"><ele>403.5</ele><time>2026-04-25T09:20:16.207Z</time></trkpt><trkpt lat="45.8502263" lon="13.6986837"><ele>406.0</ele><time>2026-04-25T09:20:18.207Z</time></trkpt><trkpt lat="45.8502749" lon="13.6985831"><ele>408.5</ele><time>2026-04-25T09:20:20.207Z</time></trkpt><trkpt lat="45.8503265" lon="13.6984929"><ele>411.0</ele><time>2026-04-25T09:20:22.208Z</time></trkpt><trkpt lat="45.8503884" lon="13.6984184"><ele>411.0</ele><time>2026-04-25T09:20:24.207Z</time></trkpt><trkpt lat="45.8504199" lon="13.698307"><ele>411.0</ele><time>2026-04-25T09:21:21.207Z</time></trkpt><trkpt lat="45.8504736" lon="13.6982576"><ele>411.0</ele><time>2026-04-25T09:21:23.207Z</time></trkpt><trkpt lat="45.850539" lon="13.6982272"><ele>411.0</ele><time>2026-04-25T09:21:25.207Z</time></trkpt><trkpt lat="45.8505976" lon="13.6981809"><ele>411.0</ele><time>2026-04-25T09:21:28.207Z</time></trkpt><trkpt lat="45.8506718" lon="13.6981262"><ele>411.0</ele><time>2026-04-25T09:21:30.207Z</time></trkpt><trkpt lat="45.8507746" lon="13.6980982"><ele>411.0</ele><time>2026-04-25T09:21:33.208Z</time></trkpt><trkpt lat="45.850845" lon="13.6980512"><ele>411.0</ele><time>2026-04-25T09:21:35.207Z</time></trkpt><trkpt lat="45.8509212" lon="13.6979426"><ele>411.0</ele><time>2026-04-25T09:21:37.207Z</time></trkpt><trkpt lat="45.8509937" lon="13.6978555"><ele>411.0</ele><time>2026-04-25T09:21:39.207Z</time></trkpt><trkpt lat="45.8510314" lon="13.6977686"><ele>411.0</ele><time>2026-04-25T09:21:41.207Z</time></trkpt><trkpt lat="45.8510736" lon="13.6976615"><ele>411.0</ele><time>2026-04-25T09:21:43.207Z</time></trkpt><trkpt lat="45.851108" lon="13.6975267"><ele>412.3333333333333</ele><time>2026-04-25T09:21:45.207Z</time></trkpt><trkpt lat="45.8511498" lon="13.6974506"><ele>413.66666666666663</ele><time>2026-04-25T09:21:48.207Z</time></trkpt><trkpt lat="45.8512121" lon="13.6973544"><ele>415.0</ele><time>2026-04-25T09:21:51.207Z</time></trkpt><trkpt lat="45.8512634" lon="13.6972759"><ele>416.3333333333333</ele><time>2026-04-25T09:21:53.207Z</time></trkpt><trkpt lat="45.8513099" lon="13.6971868"><ele>417.66666666666663</ele><time>2026-04-25T09:21:55.207Z</time></trkpt><trkpt lat="45.8513441" lon="13.697069"><ele>419.0</ele><time>2026-04-25T09:21:57.207Z</time></trkpt><trkpt lat="45.8513887" lon="13.6969868"><ele>419.3333333333333</ele><time>2026-04-25T09:21:59.207Z</time></trkpt><trkpt lat="45.8514373" lon="13.6968848"><ele>419.66666666666663</ele><time>2026-04-25T09:22:02.207Z</time></trkpt><trkpt lat="45.8515001" lon="13.6968335"><ele>420.0</ele><time>2026-04-25T09:22:05.207Z</time></trkpt><trkpt lat="45.8515908" lon="13.6968344"><ele>420.33333333333337</ele><time>2026-04-25T09:22:08.207Z</time></trkpt><trkpt lat="45.8516672" lon="13.6968555"><ele>420.6666666666667</ele><time>2026-04-25T09:22:12.203Z</time></trkpt><trkpt lat="45.8515959" lon="13.6968312"><ele>421.0</ele><time>2026-04-25T09:24:12.207Z</time></trkpt><trkpt lat="45.851526" lon="13.6968373"><ele>421.00000000000006</ele><time>2026-04-25T09:24:42.207Z</time></trkpt><trkpt lat="45.8514573" lon="13.6968441"><ele>421.0</ele><time>2026-04-25T09:24:47.207Z</time></trkpt><trkpt lat="45.8514096" lon="13.6969144"><ele>421.0</ele><time>2026-04-25T09:24:50.208Z</time></trkpt><trkpt lat="45.8513586" lon="13.6970166"><ele>421.0</ele><time>2026-04-25T09:24:53.207Z</time></trkpt><trkpt lat="45.8513303" lon="13.6971008"><ele>421.0</ele><time>2026-04-25T09:24:55.207Z</time></trkpt><trkpt lat="45.8512954" lon="13.697218"><ele>421.00000000000006</ele><time>2026-04-25T09:24:58.207Z</time></trkpt><trkpt lat="45.851253" lon="13.6972978"><ele>421.0</ele><time>2026-04-25T09:25:00.207Z</time></trkpt><trkpt lat="45.8511907" lon="13.6973897"><ele>420.7142857142857</ele><time>2026-04-25T09:25:03.207Z</time></trkpt><trkpt lat="45.8511402" lon="13.6974896"><ele>420.42857142857144</ele><time>2026-04-25T09:25:06.207Z</time></trkpt><trkpt lat="45.8511048" lon="13.6975661"><ele>420.1428571428571</ele><time>2026-04-25T09:25:08.207Z</time></trkpt><trkpt lat="45.8510744" lon="13.697659"><ele>419.8571428571429</ele><time>2026-04-25T09:25:10.207Z</time></trkpt><trkpt lat="45.8510547" lon="13.6977491"><ele>419.57142857142856</ele><time>2026-04-25T09:25:12.207Z</time></trkpt><trkpt lat="45.8510114" lon="13.6978528"><ele>419.2857142857143</ele><time>2026-04-25T09:25:14.207Z</time></trkpt><trkpt lat="45.8509575" lon="13.6979322"><ele>419.0</ele><time>2026-04-25T09:25:16.207Z</time></trkpt><trkpt lat="45.8508764" lon="13.6980415"><ele>417.66666666666663</ele><time>2026-04-25T09:25:18.207Z</time></trkpt><trkpt lat="45.8507938" lon="13.6981043"><ele>416.3333333333333</ele><time>2026-04-25T09:25:20.207Z</time></trkpt><trkpt lat="45.8507014" lon="13.6981299"><ele>415.0</ele><time>2026-04-25T09:25:22.208Z</time></trkpt><trkpt lat="45.8506272" lon="13.6981637"><ele>413.66666666666663</ele><time>2026-04-25T09:25:24.207Z</time></trkpt><trkpt lat="45.8505592" lon="13.698204"><ele>412.3333333333333</ele><time>2026-04-25T09:25:27.207Z</time></trkpt><trkpt lat="45.8505028" lon="13.6982465"><ele>411.0</ele><time>2026-04-25T09:25:35.208Z</time></trkpt><trkpt lat="45.8504369" lon="13.6982914"><ele>411.0</ele><time>2026-04-25T09:25:38.207Z</time></trkpt><trkpt lat="45.8504022" lon="13.6983675"><ele>411.0</ele><time>2026-04-25T09:25:54.207Z</time></trkpt><trkpt lat="45.8504266" lon="13.6982769"><ele>411.0</ele><time>2026-04-25T09:27:25.207Z</time></trkpt><trkpt lat="45.850414" lon="13.6981799"><ele>411.0</ele><time>2026-04-25T09:27:27.207Z</time></trkpt><trkpt lat="45.8504061" lon="13.6980722"><ele>411.0</ele><time>2026-04-25T09:27:29.207Z</time></trkpt><trkpt lat="45.850397" lon="13.6979554"><ele>411.0</ele><time>2026-04-25T09:27:31.207Z</time></trkpt><trkpt lat="45.8503925" lon="13.6978253"><ele>411.0</ele><time>2026-04-25T09:27:33.207Z</time></trkpt><trkpt lat="45.8503853" lon="13.6976716"><ele>410.4</ele><time>2026-04-25T09:27:35.207Z</time></trkpt><trkpt lat="45.8503775" lon="13.6975214"><ele>409.8</ele><time>2026-04-25T09:27:37.207Z</time></trkpt><trkpt lat="45.8503599" lon="13.697366"><ele>409.2</ele><time>2026-04-25T09:27:39.207Z</time></trkpt><trkpt lat="45.8503482" lon="13.6972046"><ele>408.59999999999997</ele><time>2026-04-25T09:27:41.207Z</time></trkpt><trkpt lat="45.8503491" lon="13.6970359"><ele>408.0</ele><time>2026-04-25T09:27:43.207Z</time></trkpt><trkpt lat="45.8503511" lon="13.6968655"><ele>408.0</ele><time>2026-04-25T09:27:45.207Z</time></trkpt><trkpt lat="45.8503539" lon="13.6967136"><ele>408.0</ele><time>2026-04-25T09:27:47.207Z</time></trkpt><trkpt lat="45.8503564" lon="13.6966231"><ele>408.0</ele><time>2026-04-25T09:27:49.207Z</time></trkpt><trkpt lat="45.8503546" lon="13.6965008"><ele>408.0</ele><time>2026-04-25T09:28:21.207Z</time></trkpt><trkpt lat="45.8503659" lon="13.6963543"><ele>408.0</ele><time>2026-04-25T09:28:23.207Z</time></trkpt><trkpt lat="45.8503744" lon="13.6961979"><ele>407.59999999999997</ele><time>2026-04-25T09:28:25.207Z</time></trkpt><trkpt lat="45.850377" lon="13.6960444"><ele>407.2</ele><time>2026-04-25T09:28:27.207Z</time></trkpt><trkpt lat="45.8503773" lon="13.6959083"><ele>406.8</ele><time>2026-04-25T09:28:29.207Z</time></trkpt><trkpt lat="45.8503839" lon="13.695773"><ele>406.4</ele><time>2026-04-25T09:28:31.207Z</time></trkpt><trkpt lat="45.8503749" lon="13.6956464"><ele>406.0</ele><time>2026-04-25T09:28:33.207Z</time></trkpt><trkpt lat="45.8503623" lon="13.6954944"><ele>406.0</ele><time>2026-04-25T09:28:35.207Z</time></trkpt><trkpt lat="45.8503561" lon="13.6953479"><ele>406.0</ele><time>2026-04-25T09:28:37.207Z</time></trkpt><trkpt lat="45.8503445" lon="13.6951981"><ele>406.0</ele><time>2026-04-25T09:28:39.207Z</time></trkpt><trkpt lat="45.8503373" lon="13.695073"><ele>406.0</ele><time>2026-04-25T09:28:41.207Z</time></trkpt><trkpt lat="45.8503245" lon="13.6949468"><ele>406.0</ele><time>2026-04-25T09:28:43.207Z</time></trkpt><trkpt lat="45.8503081" lon="13.6948206"><ele>405.0</ele><time>2026-04-25T09:28:45.208Z</time></trkpt><trkpt lat="45.8503006" lon="13.6946866"><ele>404.0</ele><time>2026-04-25T09:28:47.207Z</time></trkpt><trkpt lat="45.8503038" lon="13.6945665"><ele>403.0</ele><time>2026-04-25T09:28:49.207Z</time></trkpt><trkpt lat="45.85031" lon="13.6944454"><ele>402.0</ele><time>2026-04-25T09:28:51.207Z</time></trkpt><trkpt lat="45.8503117" lon="13.6943135"><ele>401.0</ele><time>2026-04-25T09:28:53.207Z</time></trkpt><trkpt lat="45.8503213" lon="13.6941765"><ele>400.8</ele><time>2026-04-25T09:28:55.207Z</time></trkpt><trkpt lat="45.8503441" lon="13.6940238"><ele>400.6</ele><time>2026-04-25T09:28:57.207Z</time></trkpt><trkpt lat="45.8503693" lon="13.6938751"><ele>400.4</ele><time>2026-04-25T09:28:59.207Z</time></trkpt><trkpt lat="45.850387" lon="13.6937197"><ele>400.2</ele><time>2026-04-25T09:29:01.207Z</time></trkpt><trkpt lat="45.8504005" lon="13.693564"><ele>400.0</ele><time>2026-04-25T09:29:03.207Z</time></trkpt><trkpt lat="45.8504075" lon="13.6934026"><ele>400.8</ele><time>2026-04-25T09:29:05.207Z</time></trkpt><trkpt lat="45.8504274" lon="13.6932271"><ele>401.6</ele><time>2026-04-25T09:29:07.207Z</time></trkpt><trkpt lat="45.8504525" lon="13.6930577"><ele>402.4</ele><time>2026-04-25T09:29:09.207Z</time></trkpt><trkpt lat="45.8504828" lon="13.6928863"><ele>403.2</ele><time>2026-04-25T09:29:11.207Z</time></trkpt><trkpt lat="45.8504984" lon="13.6927943"><ele>404.0</ele><time>2026-04-25T09:29:12.207Z</time></trkpt><trkpt lat="45.8505186" lon="13.6926188"><ele>404.75</ele><time>2026-04-25T09:29:14.207Z</time></trkpt><trkpt lat="45.8505371" lon="13.6924548"><ele>405.5</ele><time>2026-04-25T09:29:16.207Z</time></trkpt><trkpt lat="45.8505539" lon="13.6922907"><ele>406.25</ele><time>2026-04-25T09:29:18.207Z</time></trkpt><trkpt lat="45.8505804" lon="13.6921234"><ele>407.0</ele><time>2026-04-25T09:29:20.207Z</time></trkpt><trkpt lat="45.8505969" lon="13.6919469"><ele>407.40000000000003</ele><time>2026-04-25T09:29:22.207Z</time></trkpt><trkpt lat="45.8506157" lon="13.6917821"><ele>407.8</ele><time>2026-04-25T09:29:24.207Z</time></trkpt><trkpt lat="45.8506377" lon="13.691636"><ele>408.2</ele><time>2026-04-25T09:29:26.207Z</time></trkpt><trkpt lat="45.8506503" lon="13.6915216"><ele>408.6</ele><time>2026-04-25T09:29:28.207Z</time></trkpt><trkpt lat="45.8506457" lon="13.6914156"><ele>409.0</ele><time>2026-04-25T09:29:30.207Z</time></trkpt><trkpt lat="45.8506101" lon="13.6912577"><ele>409.0</ele><time>2026-04-25T09:29:32.207Z</time></trkpt><trkpt lat="45.8505627" lon="13.6910985"><ele>409.0</ele><time>2026-04-25T09:29:34.208Z</time></trkpt><trkpt lat="45.8505212" lon="13.6909269"><ele>409.0</ele><time>2026-04-25T09:29:36.207Z</time></trkpt><trkpt lat="45.8505015" lon="13.6908383"><ele>409.0</ele><time>2026-04-25T09:29:37.207Z</time></trkpt><trkpt lat="45.8504586" lon="13.6906656"><ele>409.0</ele><time>2026-04-25T09:29:39.207Z</time></trkpt><trkpt lat="45.8504405" lon="13.6905788"><ele>409.00000000000006</ele><time>2026-04-25T09:29:40.207Z</time></trkpt><trkpt lat="45.8504204" lon="13.69041"><ele>409.0</ele><time>2026-04-25T09:29:42.207Z</time></trkpt><trkpt lat="45.850407" lon="13.6903195"><ele>409.0</ele><time>2026-04-25T09:29:43.207Z</time></trkpt><trkpt lat="45.8503957" lon="13.690228"><ele>409.0</ele><time>2026-04-25T09:29:44.208Z</time></trkpt><trkpt lat="45.8503893" lon="13.6901322"><ele>409.00000000000006</ele><time>2026-04-25T09:29:45.207Z</time></trkpt><trkpt lat="45.8503753" lon="13.6900358"><ele>409.0</ele><time>2026-04-25T09:29:46.207Z</time></trkpt><trkpt lat="45.8503642" lon="13.6899324"><ele>409.6</ele><time>2026-04-25T09:29:47.207Z</time></trkpt><trkpt lat="45.8503546" lon="13.6898289"><ele>410.2</ele><time>2026-04-25T09:29:48.207Z</time></trkpt><trkpt lat="45.8503457" lon="13.6897306"><ele>410.8</ele><time>2026-04-25T09:29:49.208Z</time></trkpt><trkpt lat="45.8503412" lon="13.6896339"><ele>411.40000000000003</ele><time>2026-04-25T09:29:50.207Z</time></trkpt><trkpt lat="45.8503349" lon="13.6894521"><ele>412.0</ele><time>2026-04-25T09:29:52.207Z</time></trkpt><trkpt lat="45.8503172" lon="13.6892765"><ele>412.20000000000005</ele><time>2026-04-25T09:29:54.207Z</time></trkpt><trkpt lat="45.8503149" lon="13.6891324"><ele>412.4</ele><time>2026-04-25T09:29:56.207Z</time></trkpt><trkpt lat="45.8503191" lon="13.6889693"><ele>412.6</ele><time>2026-04-25T09:29:58.207Z</time></trkpt><trkpt lat="45.85033" lon="13.6887862"><ele>412.79999999999995</ele><time>2026-04-25T09:30:00.207Z</time></trkpt><trkpt lat="45.8503308" lon="13.6886807"><ele>413.0</ele><time>2026-04-25T09:30:01.207Z</time></trkpt><trkpt lat="45.8503365" lon="13.6885769"><ele>412.99999999999994</ele><time>2026-04-25T09:30:02.207Z</time></trkpt><trkpt lat="45.8503346" lon="13.6884747"><ele>413.0</ele><time>2026-04-25T09:30:03.207Z</time></trkpt><trkpt lat="45.8503361" lon="13.6883715"><ele>413.0</ele><time>2026-04-25T09:30:04.207Z</time></trkpt><trkpt lat="45.8503395" lon="13.6882786"><ele>413.0</ele><time>2026-04-25T09:30:05.207Z</time></trkpt><trkpt lat="45.850345" lon="13.6881854"><ele>412.99999999999994</ele><time>2026-04-25T09:30:06.207Z</time></trkpt><trkpt lat="45.8503479" lon="13.6880088"><ele>413.0</ele><time>2026-04-25T09:30:08.207Z</time></trkpt><trkpt lat="45.850366" lon="13.6878214"><ele>412.3333333333333</ele><time>2026-04-25T09:30:10.207Z</time></trkpt><trkpt lat="45.8503762" lon="13.687724"><ele>411.66666666666663</ele><time>2026-04-25T09:30:11.208Z</time></trkpt><trkpt lat="45.8503864" lon="13.687629"><ele>411.0</ele><time>2026-04-25T09:30:12.207Z</time></trkpt><trkpt lat="45.8504083" lon="13.6874572"><ele>410.33333333333337</ele><time>2026-04-25T09:30:14.207Z</time></trkpt><trkpt lat="45.8504328" lon="13.687288"><ele>409.6666666666667</ele><time>2026-04-25T09:30:16.207Z</time></trkpt><trkpt lat="45.8504485" lon="13.6871992"><ele>409.0</ele><time>2026-04-25T09:30:17.207Z</time></trkpt><trkpt lat="45.8504662" lon="13.6871082"><ele>409.00000000000006</ele><time>2026-04-25T09:30:18.207Z</time></trkpt><trkpt lat="45.8504818" lon="13.6870078"><ele>409.0</ele><time>2026-04-25T09:30:19.207Z</time></trkpt><trkpt lat="45.8504978" lon="13.6869121"><ele>409.0</ele><time>2026-04-25T09:30:20.207Z</time></trkpt><trkpt lat="45.8505105" lon="13.6868204"><ele>409.0</ele><time>2026-04-25T09:30:21.208Z</time></trkpt><trkpt lat="45.8505183" lon="13.6867292"><ele>409.00000000000006</ele><time>2026-04-25T09:30:22.207Z</time></trkpt><trkpt lat="45.8505384" lon="13.686548"><ele>409.0</ele><time>2026-04-25T09:30:24.207Z</time></trkpt><trkpt lat="45.8505452" lon="13.6864483"><ele>407.6</ele><time>2026-04-25T09:30:25.208Z</time></trkpt><trkpt lat="45.8505607" lon="13.6863527"><ele>406.2</ele><time>2026-04-25T09:30:26.207Z</time></trkpt><trkpt lat="45.8505928" lon="13.6861919"><ele>404.8</ele><time>2026-04-25T09:30:28.207Z</time></trkpt><trkpt lat="45.8506052" lon="13.6860465"><ele>403.40000000000003</ele><time>2026-04-25T09:30:30.208Z</time></trkpt><trkpt lat="45.8506359" lon="13.685914"><ele>402.0</ele><time>2026-04-25T09:30:32.207Z</time></trkpt><trkpt lat="45.8507006" lon="13.6857992"><ele>400.8</ele><time>2026-04-25T09:30:34.207Z</time></trkpt><trkpt lat="45.8507873" lon="13.6856806"><ele>399.6</ele><time>2026-04-25T09:30:36.207Z</time></trkpt><trkpt lat="45.8508354" lon="13.6856144"><ele>398.40000000000003</ele><time>2026-04-25T09:30:37.207Z</time></trkpt><trkpt lat="45.8508797" lon="13.6855501"><ele>397.20000000000005</ele><time>2026-04-25T09:30:38.208Z</time></trkpt><trkpt lat="45.8509513" lon="13.685426"><ele>396.0</ele><time>2026-04-25T09:30:40.208Z</time></trkpt><trkpt lat="45.8509906" lon="13.6852994"><ele>395.20000000000005</ele><time>2026-04-25T09:30:42.207Z</time></trkpt><trkpt lat="45.8509631" lon="13.6851772"><ele>394.40000000000003</ele><time>2026-04-25T09:30:44.207Z</time></trkpt><trkpt lat="45.8509081" lon="13.6850484"><ele>393.6</ele><time>2026-04-25T09:30:46.207Z</time></trkpt><trkpt lat="45.8508644" lon="13.6849187"><ele>392.8</ele><time>2026-04-25T09:30:48.207Z</time></trkpt><trkpt lat="45.8508276" lon="13.6847939"><ele>392.0</ele><time>2026-04-25T09:30:50.207Z</time></trkpt><trkpt lat="45.8508146" lon="13.6846755"><ele>392.0</ele><time>2026-04-25T09:30:52.207Z</time></trkpt><trkpt lat="45.8508172" lon="13.6845402"><ele>392.0</ele><time>2026-04-25T09:30:54.207Z</time></trkpt><trkpt lat="45.850831" lon="13.6843721"><ele>392.0</ele><time>2026-04-25T09:30:56.207Z</time></trkpt><trkpt lat="45.8508335" lon="13.6842007"><ele>392.0</ele><time>2026-04-25T09:30:58.207Z</time></trkpt><trkpt lat="45.8508271" lon="13.684042"><ele>392.0</ele><time>2026-04-25T09:31:00.207Z</time></trkpt><trkpt lat="45.8508142" lon="13.6838953"><ele>392.0</ele><time>2026-04-25T09:31:02.207Z</time></trkpt><trkpt lat="45.8507874" lon="13.683759"><ele>392.0</ele><time>2026-04-25T09:31:04.207Z</time></trkpt><trkpt lat="45.8507557" lon="13.6836206"><ele>392.0</ele><time>2026-04-25T09:31:06.207Z</time></trkpt><trkpt lat="45.8507563" lon="13.6834726"><ele>392.0</ele><time>2026-04-25T09:31:08.207Z</time></trkpt><trkpt lat="45.8507884" lon="13.6833328"><ele>392.0</ele><time>2026-04-25T09:31:10.207Z</time></trkpt><trkpt lat="45.8508488" lon="13.6832075"><ele>392.0</ele><time>2026-04-25T09:31:12.207Z</time></trkpt><trkpt lat="45.8509247" lon="13.6830976"><ele>392.0</ele><time>2026-04-25T09:31:14.207Z</time></trkpt><trkpt lat="45.8510009" lon="13.6829757"><ele>392.0</ele><time>2026-04-25T09:31:16.207Z</time></trkpt><trkpt lat="45.8510745" lon="13.6828494"><ele>392.0</ele><time>2026-04-25T09:31:18.207Z</time></trkpt><trkpt lat="45.8511322" lon="13.6827253"><ele>392.0</ele><time>2026-04-25T09:31:20.207Z</time></trkpt><trkpt lat="45.8511698" lon="13.6825963"><ele>391.6</ele><time>2026-04-25T09:31:22.207Z</time></trkpt><trkpt lat="45.8511746" lon="13.682459"><ele>391.20000000000005</ele><time>2026-04-25T09:31:24.207Z</time></trkpt><trkpt lat="45.8511488" lon="13.6823113"><ele>390.8</ele><time>2026-04-25T09:31:26.207Z</time></trkpt><trkpt lat="45.8511079" lon="13.6821589"><ele>390.4</ele><time>2026-04-25T09:31:28.207Z</time></trkpt><trkpt lat="45.8510706" lon="13.6820145"><ele>390.0</ele><time>2026-04-25T09:31:30.207Z</time></trkpt><trkpt lat="45.8510603" lon="13.6818642"><ele>389.8</ele><time>2026-04-25T09:31:32.207Z</time></trkpt><trkpt lat="45.8510758" lon="13.6816956"><ele>389.6</ele><time>2026-04-25T09:31:34.208Z</time></trkpt><trkpt lat="45.8510801" lon="13.6816023"><ele>389.4</ele><time>2026-04-25T09:31:35.207Z</time></trkpt><trkpt lat="45.8510893" lon="13.6814416"><ele>389.2</ele><time>2026-04-25T09:31:37.207Z</time></trkpt><trkpt lat="45.8511258" lon="13.6812624"><ele>389.0</ele><time>2026-04-25T09:31:39.207Z</time></trkpt><trkpt lat="45.851148" lon="13.6811703"><ele>389.16666666666663</ele><time>2026-04-25T09:31:40.207Z</time></trkpt><trkpt lat="45.851148" lon="13.6810669"><ele>389.3333333333333</ele><time>2026-04-25T09:31:41.207Z</time></trkpt><trkpt lat="45.8511498" lon="13.6809678"><ele>389.5</ele><time>2026-04-25T09:31:42.207Z</time></trkpt><trkpt lat="45.8511433" lon="13.6808618"><ele>389.66666666666663</ele><time>2026-04-25T09:31:43.207Z</time></trkpt><trkpt lat="45.8511317" lon="13.6807487"><ele>389.8333333333333</ele><time>2026-04-25T09:31:44.207Z</time></trkpt><trkpt lat="45.8511275" lon="13.6806408"><ele>390.0</ele><time>2026-04-25T09:31:45.207Z</time></trkpt><trkpt lat="45.8511212" lon="13.6805243"><ele>390.0</ele><time>2026-04-25T09:31:46.207Z</time></trkpt><trkpt lat="45.8511228" lon="13.6804079"><ele>390.0</ele><time>2026-04-25T09:31:47.207Z</time></trkpt><trkpt lat="45.8511214" lon="13.6802968"><ele>390.0</ele><time>2026-04-25T09:31:48.207Z</time></trkpt><trkpt lat="45.8511143" lon="13.6801946"><ele>390.0</ele><time>2026-04-25T09:31:49.207Z</time></trkpt><trkpt lat="45.8511116" lon="13.6801043"><ele>390.0</ele><time>2026-04-25T09:31:50.207Z</time></trkpt><trkpt lat="45.8510782" lon="13.6799535"><ele>390.0</ele><time>2026-04-25T09:31:52.207Z</time></trkpt><trkpt lat="45.8510303" lon="13.6798666"><ele>390.1666666666667</ele><time>2026-04-25T09:31:54.207Z</time></trkpt><trkpt lat="45.8509794" lon="13.6797605"><ele>390.33333333333337</ele><time>2026-04-25T09:32:02.208Z</time></trkpt><trkpt lat="45.8509304" lon="13.6796398"><ele>390.5</ele><time>2026-04-25T09:32:04.207Z</time></trkpt><trkpt lat="45.8508897" lon="13.6795176"><ele>390.6666666666667</ele><time>2026-04-25T09:32:06.208Z</time></trkpt><trkpt lat="45.8508443" lon="13.6794016"><ele>390.83333333333337</ele><time>2026-04-25T09:32:08.208Z</time></trkpt><trkpt lat="45.8508125" lon="13.6793199"><ele>391.0</ele><time>2026-04-25T09:32:10.207Z</time></trkpt><trkpt lat="45.850788" lon="13.6792304"><ele>390.33333333333337</ele><time>2026-04-25T09:32:15.207Z</time></trkpt><trkpt lat="45.8507397" lon="13.6791443"><ele>389.6666666666667</ele><time>2026-04-25T09:32:20.208Z</time></trkpt><trkpt lat="45.8506784" lon="13.6790942"><ele>389.0</ele><time>2026-04-25T09:32:25.207Z</time></trkpt><trkpt lat="45.8506087" lon="13.6790961"><ele>388.33333333333337</ele><time>2026-04-25T09:32:26.208Z</time></trkpt><trkpt lat="45.8505384" lon="13.6790893"><ele>387.6666666666667</ele><time>2026-04-25T09:32:27.208Z</time></trkpt><trkpt lat="45.8504568" lon="13.6790751"><ele>387.0</ele><time>2026-04-25T09:32:28.207Z</time></trkpt><trkpt lat="45.8503649" lon="13.6790555"><ele>387.0</ele><time>2026-04-25T09:32:29.207Z</time></trkpt><trkpt lat="45.850261" lon="13.6790388"><ele>387.0</ele><time>2026-04-25T09:32:30.207Z</time></trkpt><trkpt lat="45.8501548" lon="13.6790195"><ele>387.0</ele><time>2026-04-25T09:32:31.207Z</time></trkpt><trkpt lat="45.8500555" lon="13.678998"><ele>387.0</ele><time>2026-04-25T09:32:32.207Z</time></trkpt><trkpt lat="45.8499615" lon="13.6789804"><ele>387.0</ele><time>2026-04-25T09:32:33.207Z</time></trkpt><trkpt lat="45.8498666" lon="13.6789651"><ele>387.20000000000005</ele><time>2026-04-25T09:32:34.207Z</time></trkpt><trkpt lat="45.8497685" lon="13.6789558"><ele>387.4</ele><time>2026-04-25T09:32:35.207Z</time></trkpt><trkpt lat="45.8496641" lon="13.6789305"><ele>387.6</ele><time>2026-04-25T09:32:36.207Z</time></trkpt><trkpt lat="45.8495606" lon="13.678888"><ele>387.79999999999995</ele><time>2026-04-25T09:32:37.207Z</time></trkpt><trkpt lat="45.849461" lon="13.6788425"><ele>388.0</ele><time>2026-04-25T09:32:38.207Z</time></trkpt><trkpt lat="45.8493664" lon="13.6787813"><ele>387.79999999999995</ele><time>2026-04-25T09:32:39.207Z</time></trkpt><trkpt lat="45.8492738" lon="13.6787207"><ele>387.6</ele><time>2026-04-25T09:32:40.207Z</time></trkpt><trkpt lat="45.8491796" lon="13.6786674"><ele>387.4</ele><time>2026-04-25T09:32:41.207Z</time></trkpt><trkpt lat="45.8490802" lon="13.6786291"><ele>387.20000000000005</ele><time>2026-04-25T09:32:42.208Z</time></trkpt><trkpt lat="45.8489741" lon="13.6785997"><ele>387.0</ele><time>2026-04-25T09:32:43.208Z</time></trkpt><trkpt lat="45.8488776" lon="13.6785833"><ele>386.8333333333333</ele><time>2026-04-25T09:32:44.208Z</time></trkpt><trkpt lat="45.8487908" lon="13.6785799"><ele>386.66666666666663</ele><time>2026-04-25T09:32:45.207Z</time></trkpt><trkpt lat="45.8487077" lon="13.6785838"><ele>386.5</ele><time>2026-04-25T09:32:46.207Z</time></trkpt><trkpt lat="45.8486262" lon="13.6785824"><ele>386.3333333333333</ele><time>2026-04-25T09:32:47.207Z</time></trkpt><trkpt lat="45.8485479" lon="13.6785854"><ele>386.16666666666663</ele><time>2026-04-25T09:32:48.207Z</time></trkpt><trkpt lat="45.8484749" lon="13.6785873"><ele>386.0</ele><time>2026-04-25T09:32:49.207Z</time></trkpt><trkpt lat="45.8484026" lon="13.678581"><ele>386.0</ele><time>2026-04-25T09:32:50.207Z</time></trkpt><trkpt lat="45.8482836" lon="13.6785541"><ele>386.0</ele><time>2026-04-25T09:32:52.207Z</time></trkpt><trkpt lat="45.8481748" lon="13.6785428"><ele>386.0</ele><time>2026-04-25T09:32:54.207Z</time></trkpt><trkpt lat="45.8480818" lon="13.678515"><ele>386.0</ele><time>2026-04-25T09:32:56.207Z</time></trkpt><trkpt lat="45.848002" lon="13.678494"><ele>386.0</ele><time>2026-04-25T09:32:58.207Z</time></trkpt><trkpt lat="45.847922" lon="13.6784643"><ele>385.99999999999994</ele><time>2026-04-25T09:33:01.207Z</time></trkpt><trkpt lat="45.8479703" lon="13.678528"><ele>386.0</ele><time>2026-04-25T09:33:06.207Z</time></trkpt><trkpt lat="45.8480877" lon="13.6785387"><ele>386.0</ele><time>2026-04-25T09:33:08.207Z</time></trkpt><trkpt lat="45.8481537" lon="13.6785549"><ele>386.0</ele><time>2026-04-25T09:33:09.207Z</time></trkpt><trkpt lat="45.8482211" lon="13.6785697"><ele>385.99999999999994</ele><time>2026-04-25T09:33:10.207Z</time></trkpt><trkpt lat="45.8482927" lon="13.678584"><ele>386.0</ele><time>2026-04-25T09:33:11.207Z</time></trkpt><trkpt lat="45.8483804" lon="13.6785964"><ele>386.16666666666663</ele><time>2026-04-25T09:33:12.207Z</time></trkpt><trkpt lat="45.8484692" lon="13.6786036"><ele>386.3333333333333</ele><time>2026-04-25T09:33:13.207Z</time></trkpt><trkpt lat="45.8485578" lon="13.6786112"><ele>386.5</ele><time>2026-04-25T09:33:14.207Z</time></trkpt><trkpt lat="45.8486432" lon="13.6786128"><ele>386.66666666666663</ele><time>2026-04-25T09:33:15.207Z</time></trkpt><trkpt lat="45.8487346" lon="13.6786035"><ele>386.8333333333333</ele><time>2026-04-25T09:33:16.207Z</time></trkpt><trkpt lat="45.8488263" lon="13.6786001"><ele>387.0</ele><time>2026-04-25T09:33:17.207Z</time></trkpt><trkpt lat="45.8489235" lon="13.6786048"><ele>387.0</ele><time>2026-04-25T09:33:18.207Z</time></trkpt><trkpt lat="45.8490201" lon="13.6786267"><ele>387.0</ele><time>2026-04-25T09:33:19.207Z</time></trkpt><trkpt lat="45.8491217" lon="13.6786628"><ele>387.0</ele><time>2026-04-25T09:33:20.208Z</time></trkpt><trkpt lat="45.84922" lon="13.6787091"><ele>387.0</ele><time>2026-04-25T09:33:21.207Z</time></trkpt><trkpt lat="45.8493179" lon="13.6787664"><ele>387.0</ele><time>2026-04-25T09:33:22.207Z</time></trkpt><trkpt lat="45.8494161" lon="13.6788271"><ele>387.20000000000005</ele><time>2026-04-25T09:33:23.207Z</time></trkpt><trkpt lat="45.849518" lon="13.6788889"><ele>387.4</ele><time>2026-04-25T09:33:24.207Z</time></trkpt><trkpt lat="45.8496213" lon="13.6789303"><ele>387.6</ele><time>2026-04-25T09:33:25.207Z</time></trkpt><trkpt lat="45.8497291" lon="13.6789532"><ele>387.79999999999995</ele><time>2026-04-25T09:33:26.208Z</time></trkpt><trkpt lat="45.8498365" lon="13.6789757"><ele>388.0</ele><time>2026-04-25T09:33:27.207Z</time></trkpt><trkpt lat="45.8499434" lon="13.6789913"><ele>388.0</ele><time>2026-04-25T09:33:28.207Z</time></trkpt><trkpt lat="45.8500458" lon="13.6790066"><ele>388.0</ele><time>2026-04-25T09:33:29.207Z</time></trkpt><trkpt lat="45.850147" lon="13.6790254"><ele>388.0</ele><time>2026-04-25T09:33:30.207Z</time></trkpt><trkpt lat="45.8502459" lon="13.6790467"><ele>388.0</ele><time>2026-04-25T09:33:31.207Z</time></trkpt><trkpt lat="45.850336" lon="13.6790691"><ele>388.0</ele><time>2026-04-25T09:33:32.207Z</time></trkpt><trkpt lat="45.8504143" lon="13.6790856"><ele>387.83333333333337</ele><time>2026-04-25T09:33:33.207Z</time></trkpt><trkpt lat="45.8504834" lon="13.6790874"><ele>387.6666666666667</ele><time>2026-04-25T09:33:34.207Z</time></trkpt><trkpt lat="45.8506013" lon="13.6790964"><ele>387.5</ele><time>2026-04-25T09:33:36.208Z</time></trkpt><trkpt lat="45.850675" lon="13.6790776"><ele>387.33333333333337</ele><time>2026-04-25T09:33:37.207Z</time></trkpt><trkpt lat="45.8507543" lon="13.6790533"><ele>387.1666666666667</ele><time>2026-04-25T09:33:38.207Z</time></trkpt><trkpt lat="45.8508319" lon="13.6790121"><ele>387.0</ele><time>2026-04-25T09:33:39.207Z</time></trkpt><trkpt lat="45.8509116" lon="13.6789505"><ele>387.8</ele><time>2026-04-25T09:33:40.208Z</time></trkpt><trkpt lat="45.8510013" lon="13.6788796"><ele>388.6</ele><time>2026-04-25T09:33:41.207Z</time></trkpt><trkpt lat="45.8510982" lon="13.6788182"><ele>389.40000000000003</ele><time>2026-04-25T09:33:42.207Z</time></trkpt><trkpt lat="45.8511995" lon="13.678762"><ele>390.20000000000005</ele><time>2026-04-25T09:33:43.208Z</time></trkpt><trkpt lat="45.8513049" lon="13.6787113"><ele>391.0</ele><time>2026-04-25T09:33:44.207Z</time></trkpt><trkpt lat="45.8514139" lon="13.6786623"><ele>391.0</ele><time>2026-04-25T09:33:45.207Z</time></trkpt><trkpt lat="45.851522" lon="13.678624"><ele>391.0</ele><time>2026-04-25T09:33:46.207Z</time></trkpt><trkpt lat="45.8516234" lon="13.678584"><ele>391.0</ele><time>2026-04-25T09:33:47.207Z</time></trkpt><trkpt lat="45.8517209" lon="13.678533"><ele>391.0</ele><time>2026-04-25T09:33:48.207Z</time></trkpt><trkpt lat="45.8518082" lon="13.6784698"><ele>391.0</ele><time>2026-04-25T09:33:49.207Z</time></trkpt><trkpt lat="45.8518891" lon="13.6783781"><ele>393.6</ele><time>2026-04-25T09:33:50.207Z</time></trkpt><trkpt lat="45.8519588" lon="13.678255"><ele>396.20000000000005</ele><time>2026-04-25T09:33:51.207Z</time></trkpt><trkpt lat="45.8520227" lon="13.6781196"><ele>398.79999999999995</ele><time>2026-04-25T09:33:52.207Z</time></trkpt><trkpt lat="45.8520852" lon="13.6779768"><ele>401.4</ele><time>2026-04-25T09:33:53.207Z</time></trkpt><trkpt lat="45.8521418" lon="13.6778456"><ele>404.0</ele><time>2026-04-25T09:33:54.207Z</time></trkpt><trkpt lat="45.8521956" lon="13.6777179"><ele>404.2</ele><time>2026-04-25T09:33:55.208Z</time></trkpt><trkpt lat="45.8522465" lon="13.6775836"><ele>404.4</ele><time>2026-04-25T09:33:56.207Z</time></trkpt><trkpt lat="45.8522933" lon="13.6774655"><ele>404.6</ele><time>2026-04-25T09:33:57.207Z</time></trkpt><trkpt lat="45.85233" lon="13.677368"><ele>404.8</ele><time>2026-04-25T09:33:58.207Z</time></trkpt><trkpt lat="45.8523993" lon="13.6772458"><ele>405.0</ele><time>2026-04-25T09:34:00.208Z</time></trkpt><trkpt lat="45.852512" lon="13.6772195"><ele>405.0</ele><time>2026-04-25T09:34:02.207Z</time></trkpt><trkpt lat="45.8525697" lon="13.6772638"><ele>405.0</ele><time>2026-04-25T09:34:03.207Z</time></trkpt><trkpt lat="45.8526234" lon="13.6773215"><ele>405.0</ele><time>2026-04-25T09:34:04.207Z</time></trkpt><trkpt lat="45.8526756" lon="13.6774391"><ele>405.0</ele><time>2026-04-25T09:34:05.207Z</time></trkpt><trkpt lat="45.852733" lon="13.6775539"><ele>405.0</ele><time>2026-04-25T09:34:06.207Z</time></trkpt><trkpt lat="45.8527897" lon="13.6776836"><ele>405.0</ele><time>2026-04-25T09:34:07.207Z</time></trkpt><trkpt lat="45.852846" lon="13.6778089"><ele>407.0</ele><time>2026-04-25T09:34:08.208Z</time></trkpt><trkpt lat="45.8529035" lon="13.677935"><ele>409.0</ele><time>2026-04-25T09:34:09.207Z</time></trkpt><trkpt lat="45.8529575" lon="13.6780609"><ele>411.0</ele><time>2026-04-25T09:34:10.207Z</time></trkpt><trkpt lat="45.853003" lon="13.6782048"><ele>413.0</ele><time>2026-04-25T09:34:11.207Z</time></trkpt><trkpt lat="45.8530343" lon="13.6783555"><ele>415.0</ele><time>2026-04-25T09:34:12.207Z</time></trkpt><trkpt lat="45.8530676" lon="13.6785072"><ele>415.6</ele><time>2026-04-25T09:34:13.207Z</time></trkpt><trkpt lat="45.8531107" lon="13.6786572"><ele>416.2</ele><time>2026-04-25T09:34:14.207Z</time></trkpt><trkpt lat="45.8531536" lon="13.6787964"><ele>416.79999999999995</ele><time>2026-04-25T09:34:15.207Z</time></trkpt><trkpt lat="45.8531988" lon="13.6789389"><ele>417.4</ele><time>2026-04-25T09:34:16.207Z</time></trkpt><trkpt lat="45.853252" lon="13.6790753"><ele>418.0</ele><time>2026-04-25T09:34:17.208Z</time></trkpt><trkpt lat="45.8533196" lon="13.6792105"><ele>418.0</ele><time>2026-04-25T09:34:18.207Z</time></trkpt><trkpt lat="45.8533946" lon="13.6793421"><ele>418.0</ele><time>2026-04-25T09:34:19.207Z</time></trkpt><trkpt lat="45.8534863" lon="13.6794638"><ele>418.0</ele><time>2026-04-25T09:34:20.207Z</time></trkpt><trkpt lat="45.8535913" lon="13.6795655"><ele>418.0</ele><time>2026-04-25T09:34:21.207Z</time></trkpt><trkpt lat="45.8536975" lon="13.6796528"><ele>419.75</ele><time>2026-04-25T09:34:22.207Z</time></trkpt><trkpt lat="45.8538094" lon="13.6797374"><ele>421.5</ele><time>2026-04-25T09:34:23.208Z</time></trkpt><trkpt lat="45.8539161" lon="13.6798281"><ele>423.25</ele><time>2026-04-25T09:34:24.207Z</time></trkpt><trkpt lat="45.8540185" lon="13.679935"><ele>425.0</ele><time>2026-04-25T09:34:25.207Z</time></trkpt><trkpt lat="45.8541112" lon="13.6800556"><ele>425.0</ele><time>2026-04-25T09:34:26.208Z</time></trkpt><trkpt lat="45.8541942" lon="13.6801805"><ele>425.0</ele><time>2026-04-25T09:34:27.207Z</time></trkpt><trkpt lat="45.8542649" lon="13.6803099"><ele>425.0</ele><time>2026-04-25T09:34:28.208Z</time></trkpt><trkpt lat="45.8543218" lon="13.6804423"><ele>425.0</ele><time>2026-04-25T09:34:29.208Z</time></trkpt><trkpt lat="45.8543808" lon="13.6805675"><ele>425.0</ele><time>2026-04-25T09:34:30.207Z</time></trkpt><trkpt lat="45.8544343" lon="13.6806672"><ele>429.8333333333333</ele><time>2026-04-25T09:34:31.207Z</time></trkpt><trkpt lat="45.8544661" lon="13.680764"><ele>434.66666666666663</ele><time>2026-04-25T09:34:32.207Z</time></trkpt><trkpt lat="45.8544775" lon="13.6808626"><ele>439.5</ele><time>2026-04-25T09:34:33.207Z</time></trkpt><trkpt lat="45.8544615" lon="13.6809583"><ele>444.33333333333337</ele><time>2026-04-25T09:34:34.207Z</time></trkpt><trkpt lat="45.8544243" lon="13.6810724"><ele>449.1666666666667</ele><time>2026-04-25T09:34:35.207Z</time></trkpt><trkpt lat="45.8543895" lon="13.6812018"><ele>454.0</ele><time>2026-04-25T09:34:36.208Z</time></trkpt><trkpt lat="45.8543534" lon="13.6813468"><ele>452.2</ele><time>2026-04-25T09:34:37.207Z</time></trkpt><trkpt lat="45.8543107" lon="13.6815037"><ele>450.4</ele><time>2026-04-25T09:34:38.207Z</time></trkpt><trkpt lat="45.8542626" lon="13.6816494"><ele>448.6</ele><time>2026-04-25T09:34:39.207Z</time></trkpt><trkpt lat="45.8542144" lon="13.6817862"><ele>446.8</ele><time>2026-04-25T09:34:40.207Z</time></trkpt><trkpt lat="45.8541676" lon="13.6819201"><ele>445.0</ele><time>2026-04-25T09:34:41.207Z</time></trkpt><trkpt lat="45.8541299" lon="13.6820622"><ele>445.0</ele><time>2026-04-25T09:34:42.207Z</time></trkpt><trkpt lat="45.8540915" lon="13.6822088"><ele>445.0</ele><time>2026-04-25T09:34:43.207Z</time></trkpt><trkpt lat="45.8540579" lon="13.6823707"><ele>445.0</ele><time>2026-04-25T09:34:44.207Z</time></trkpt><trkpt lat="45.8540453" lon="13.6825414"><ele>445.0</ele><time>2026-04-25T09:34:45.207Z</time></trkpt><trkpt lat="45.8540433" lon="13.6827113"><ele>446.2</ele><time>2026-04-25T09:34:46.207Z</time></trkpt><trkpt lat="45.8540525" lon="13.6828599"><ele>447.4</ele><time>2026-04-25T09:34:47.207Z</time></trkpt><trkpt lat="45.8540681" lon="13.6830092"><ele>448.6</ele><time>2026-04-25T09:34:48.207Z</time></trkpt><trkpt lat="45.8540805" lon="13.6831529"><ele>449.8</ele><time>2026-04-25T09:34:49.207Z</time></trkpt><trkpt lat="45.8540818" lon="13.6832831"><ele>451.0</ele><time>2026-04-25T09:34:50.207Z</time></trkpt><trkpt lat="45.8540939" lon="13.6834098"><ele>451.0</ele><time>2026-04-25T09:34:51.207Z</time></trkpt><trkpt lat="45.8541301" lon="13.6835367"><ele>451.0</ele><time>2026-04-25T09:34:52.207Z</time></trkpt><trkpt lat="45.8541915" lon="13.6836612"><ele>451.0</ele><time>2026-04-25T09:34:53.207Z</time></trkpt><trkpt lat="45.8542463" lon="13.6837911"><ele>451.0</ele><time>2026-04-25T09:34:54.207Z</time></trkpt><trkpt lat="45.8543069" lon="13.6839265"><ele>451.0</ele><time>2026-04-25T09:34:55.207Z</time></trkpt><trkpt lat="45.8543851" lon="13.6840558"><ele>455.0</ele><time>2026-04-25T09:34:56.207Z</time></trkpt><trkpt lat="45.854475" lon="13.6841736"><ele>459.0</ele><time>2026-04-25T09:34:57.207Z</time></trkpt><trkpt lat="45.8545612" lon="13.6842832"><ele>463.0</ele><time>2026-04-25T09:34:58.207Z</time></trkpt><trkpt lat="45.8546519" lon="13.6843853"><ele>467.0</ele><time>2026-04-25T09:34:59.207Z</time></trkpt><trkpt lat="45.8547489" lon="13.6844836"><ele>467.40000000000003</ele><time>2026-04-25T09:35:00.207Z</time></trkpt><trkpt lat="45.8548412" lon="13.6845594"><ele>467.80000000000007</ele><time>2026-04-25T09:35:01.207Z</time></trkpt><trkpt lat="45.8549433" lon="13.6846172"><ele>468.2</ele><time>2026-04-25T09:35:02.207Z</time></trkpt><trkpt lat="45.8550333" lon="13.684692"><ele>468.6</ele><time>2026-04-25T09:35:03.208Z</time></trkpt><trkpt lat="45.8551164" lon="13.6847843"><ele>469.0</ele><time>2026-04-25T09:35:04.207Z</time></trkpt><trkpt lat="45.8551871" lon="13.6848825"><ele>469.4</ele><time>2026-04-25T09:35:05.207Z</time></trkpt><trkpt lat="45.8552433" lon="13.6849922"><ele>469.79999999999995</ele><time>2026-04-25T09:35:06.207Z</time></trkpt><trkpt lat="45.8552775" lon="13.6851175"><ele>470.20000000000005</ele><time>2026-04-25T09:35:07.207Z</time></trkpt><trkpt lat="45.8553014" lon="13.6852631"><ele>470.6</ele><time>2026-04-25T09:35:08.207Z</time></trkpt><trkpt lat="45.8553248" lon="13.6854199"><ele>471.0</ele><time>2026-04-25T09:35:09.207Z</time></trkpt><trkpt lat="45.8553463" lon="13.6855885"><ele>471.75</ele><time>2026-04-25T09:35:10.207Z</time></trkpt><trkpt lat="45.8553558" lon="13.6857612"><ele>472.5</ele><time>2026-04-25T09:35:11.208Z</time></trkpt><trkpt lat="45.8553545" lon="13.6859402"><ele>473.25</ele><time>2026-04-25T09:35:12.207Z</time></trkpt><trkpt lat="45.8553401" lon="13.6861214"><ele>474.0</ele><time>2026-04-25T09:35:13.207Z</time></trkpt><trkpt lat="45.8553287" lon="13.6862999"><ele>476.5</ele><time>2026-04-25T09:35:14.207Z</time></trkpt><trkpt lat="45.8553191" lon="13.6864741"><ele>479.0</ele><time>2026-04-25T09:35:15.207Z</time></trkpt><trkpt lat="45.8553148" lon="13.6866466"><ele>481.5</ele><time>2026-04-25T09:35:16.207Z</time></trkpt><trkpt lat="45.8553208" lon="13.6868054"><ele>484.0</ele><time>2026-04-25T09:35:17.207Z</time></trkpt><trkpt lat="45.8553399" lon="13.6869467"><ele>486.33333333333337</ele><time>2026-04-25T09:35:18.207Z</time></trkpt><trkpt lat="45.8553596" lon="13.6870783"><ele>488.6666666666667</ele><time>2026-04-25T09:35:19.207Z</time></trkpt><trkpt lat="45.8553646" lon="13.6871859"><ele>491.0</ele><time>2026-04-25T09:35:20.207Z</time></trkpt><trkpt lat="45.8553549" lon="13.6872876"><ele>493.33333333333337</ele><time>2026-04-25T09:35:21.207Z</time></trkpt><trkpt lat="45.8553031" lon="13.6874475"><ele>495.6666666666667</ele><time>2026-04-25T09:35:23.207Z</time></trkpt><trkpt lat="45.8552423" lon="13.6875035"><ele>498.0</ele><time>2026-04-25T09:35:24.207Z</time></trkpt><trkpt lat="45.8551744" lon="13.6875505"><ele>498.3333333333333</ele><time>2026-04-25T09:35:25.207Z</time></trkpt><trkpt lat="45.8550962" lon="13.6876042"><ele>498.66666666666663</ele><time>2026-04-25T09:35:26.207Z</time></trkpt><trkpt lat="45.8550203" lon="13.6876642"><ele>499.0</ele><time>2026-04-25T09:35:27.207Z</time></trkpt><trkpt lat="45.8549434" lon="13.6877309"><ele>499.3333333333333</ele><time>2026-04-25T09:35:28.208Z</time></trkpt><trkpt lat="45.8549142" lon="13.6878254"><ele>499.66666666666663</ele><time>2026-04-25T09:35:29.207Z</time></trkpt><trkpt lat="45.854902" lon="13.6879323"><ele>500.0</ele><time>2026-04-25T09:35:30.207Z</time></trkpt><trkpt lat="45.8549188" lon="13.6880515"><ele>500.0</ele><time>2026-04-25T09:35:31.207Z</time></trkpt><trkpt lat="45.8549632" lon="13.6881736"><ele>500.0</ele><time>2026-04-25T09:35:32.207Z</time></trkpt><trkpt lat="45.8550024" lon="13.6883029"><ele>500.0</ele><time>2026-04-25T09:35:33.207Z</time></trkpt><trkpt lat="45.8550286" lon="13.6884458"><ele>500.0</ele><time>2026-04-25T09:35:34.207Z</time></trkpt><trkpt lat="45.8550377" lon="13.6885962"><ele>500.0</ele><time>2026-04-25T09:35:35.207Z</time></trkpt><trkpt lat="45.8550458" lon="13.6887577"><ele>501.2</ele><time>2026-04-25T09:35:36.207Z</time></trkpt><trkpt lat="45.8550596" lon="13.688915"><ele>502.4</ele><time>2026-04-25T09:35:37.207Z</time></trkpt><trkpt lat="45.855068" lon="13.6890683"><ele>503.6</ele><time>2026-04-25T09:35:38.207Z</time></trkpt><trkpt lat="45.8550869" lon="13.6892086"><ele>504.8</ele><time>2026-04-25T09:35:39.207Z</time></trkpt><trkpt lat="45.8551083" lon="13.6893543"><ele>506.0</ele><time>2026-04-25T09:35:40.207Z</time></trkpt><trkpt lat="45.8551424" lon="13.6895043"><ele>506.8333333333333</ele><time>2026-04-25T09:35:41.207Z</time></trkpt><trkpt lat="45.855184" lon="13.68964"><ele>507.66666666666663</ele><time>2026-04-25T09:35:42.207Z</time></trkpt><trkpt lat="45.8552254" lon="13.689767"><ele>508.5</ele><time>2026-04-25T09:35:43.208Z</time></trkpt><trkpt lat="45.8552476" lon="13.6898808"><ele>509.33333333333337</ele><time>2026-04-25T09:35:44.207Z</time></trkpt><trkpt lat="45.8552667" lon="13.6899832"><ele>510.1666666666667</ele><time>2026-04-25T09:35:45.207Z</time></trkpt><trkpt lat="45.855279" lon="13.6900743"><ele>511.0</ele><time>2026-04-25T09:35:46.207Z</time></trkpt><trkpt lat="45.8552772" lon="13.6902327"><ele>510.8</ele><time>2026-04-25T09:35:48.207Z</time></trkpt><trkpt lat="45.8552598" lon="13.6904063"><ele>510.6</ele><time>2026-04-25T09:35:50.207Z</time></trkpt><trkpt lat="45.8552397" lon="13.6904965"><ele>510.4</ele><time>2026-04-25T09:35:51.207Z</time></trkpt><trkpt lat="45.8552207" lon="13.690661"><ele>510.2</ele><time>2026-04-25T09:35:53.207Z</time></trkpt><trkpt lat="45.8552144" lon="13.690814"><ele>510.0</ele><time>2026-04-25T09:35:55.207Z</time></trkpt><trkpt lat="45.8552063" lon="13.6909258"><ele>510.0</ele><time>2026-04-25T09:35:57.208Z</time></trkpt><trkpt lat="45.8551919" lon="13.6910344"><ele>510.0</ele><time>2026-04-25T09:36:00.207Z</time></trkpt><trkpt lat="45.8551796" lon="13.6911867"><ele>510.0</ele><time>2026-04-25T09:36:03.207Z</time></trkpt><trkpt lat="45.8551723" lon="13.6913569"><ele>510.0</ele><time>2026-04-25T09:36:05.208Z</time></trkpt><trkpt lat="45.8551752" lon="13.6915339"><ele>510.0</ele><time>2026-04-25T09:36:07.207Z</time></trkpt><trkpt lat="45.8551939" lon="13.6916972"><ele>510.0</ele><time>2026-04-25T09:36:09.207Z</time></trkpt><trkpt lat="45.8552105" lon="13.6918573"><ele>510.0</ele><time>2026-04-25T09:36:11.207Z</time></trkpt><trkpt lat="45.8552138" lon="13.6920334"><ele>510.0</ele><time>2026-04-25T09:36:13.207Z</time></trkpt><trkpt lat="45.8552108" lon="13.6921333"><ele>510.0</ele><time>2026-04-25T09:36:14.207Z</time></trkpt><trkpt lat="45.8552076" lon="13.692232"><ele>510.0</ele><time>2026-04-25T09:36:15.207Z</time></trkpt><trkpt lat="45.8552036" lon="13.6923345"><ele>510.0</ele><time>2026-04-25T09:36:16.207Z</time></trkpt><trkpt lat="45.8552007" lon="13.6924395"><ele>510.8571428571429</ele><time>2026-04-25T09:36:17.207Z</time></trkpt><trkpt lat="45.8552047" lon="13.6925496"><ele>511.7142857142858</ele><time>2026-04-25T09:36:18.207Z</time></trkpt><trkpt lat="45.8552066" lon="13.6926518"><ele>512.5714285714286</ele><time>2026-04-25T09:36:19.207Z</time></trkpt><trkpt lat="45.8552081" lon="13.6927615"><ele>513.4285714285714</ele><time>2026-04-25T09:36:20.207Z</time></trkpt><trkpt lat="45.855211" lon="13.6928627"><ele>514.2857142857142</ele><time>2026-04-25T09:36:21.207Z</time></trkpt><trkpt lat="45.8552212" lon="13.6929577"><ele>515.1428571428571</ele><time>2026-04-25T09:36:22.208Z</time></trkpt><trkpt lat="45.8552276" lon="13.6930667"><ele>516.0</ele><time>2026-04-25T09:36:23.207Z</time></trkpt><trkpt lat="45.8552307" lon="13.6931717"><ele>516.5714285714286</ele><time>2026-04-25T09:36:24.207Z</time></trkpt><trkpt lat="45.8552397" lon="13.6932681"><ele>517.1428571428571</ele><time>2026-04-25T09:36:25.207Z</time></trkpt><trkpt lat="45.8552459" lon="13.6933707"><ele>517.7142857142858</ele><time>2026-04-25T09:36:26.207Z</time></trkpt><trkpt lat="45.8552549" lon="13.6934685"><ele>518.2857142857142</ele><time>2026-04-25T09:36:27.207Z</time></trkpt><trkpt lat="45.8552608" lon="13.6935617"><ele>518.8571428571429</ele><time>2026-04-25T09:36:28.207Z</time></trkpt><trkpt lat="45.855261" lon="13.6936638"><ele>519.4285714285714</ele><time>2026-04-25T09:36:29.207Z</time></trkpt><trkpt lat="45.8552548" lon="13.6937763"><ele>520.0</ele><time>2026-04-25T09:36:30.207Z</time></trkpt><trkpt lat="45.8552458" lon="13.6938732"><ele>520.6666666666667</ele><time>2026-04-25T09:36:31.207Z</time></trkpt><trkpt lat="45.8552323" lon="13.6940295"><ele>521.3333333333334</ele><time>2026-04-25T09:36:33.207Z</time></trkpt><trkpt lat="45.8552294" lon="13.6941466"><ele>522.0</ele><time>2026-04-25T09:36:35.207Z</time></trkpt><trkpt lat="45.8552296" lon="13.694299"><ele>522.6666666666666</ele><time>2026-04-25T09:36:37.207Z</time></trkpt><trkpt lat="45.8552346" lon="13.6943984"><ele>523.3333333333333</ele><time>2026-04-25T09:36:38.207Z</time></trkpt><trkpt lat="45.8552357" lon="13.6945008"><ele>524.0</ele><time>2026-04-25T09:36:39.207Z</time></trkpt><trkpt lat="45.8552382" lon="13.6946009"><ele>524.5</ele><time>2026-04-25T09:36:40.208Z</time></trkpt><trkpt lat="45.855247" lon="13.6947018"><ele>525.0</ele><time>2026-04-25T09:36:41.207Z</time></trkpt><trkpt lat="45.8552569" lon="13.6948"><ele>525.5</ele><time>2026-04-25T09:36:42.207Z</time></trkpt><trkpt lat="45.8552625" lon="13.6948965"><ele>526.0</ele><time>2026-04-25T09:36:43.207Z</time></trkpt><trkpt lat="45.855286" lon="13.6950193"><ele>526.5</ele><time>2026-04-25T09:36:44.207Z</time></trkpt><trkpt lat="45.8553035" lon="13.695127"><ele>527.0</ele><time>2026-04-25T09:36:45.208Z</time></trkpt><trkpt lat="45.8553138" lon="13.6952397"><ele>527.0</ele><time>2026-04-25T09:36:46.207Z</time></trkpt><trkpt lat="45.8553341" lon="13.6953466"><ele>527.0</ele><time>2026-04-25T09:36:47.208Z</time></trkpt><trkpt lat="45.855351" lon="13.695443"><ele>527.0</ele><time>2026-04-25T09:36:48.208Z</time></trkpt><trkpt lat="45.8553722" lon="13.6955403"><ele>527.0</ele><time>2026-04-25T09:36:49.207Z</time></trkpt><trkpt lat="45.8553981" lon="13.6956447"><ele>527.0</ele><time>2026-04-25T09:36:50.207Z</time></trkpt><trkpt lat="45.8554286" lon="13.6957479"><ele>527.0</ele><time>2026-04-25T09:36:51.207Z</time></trkpt><trkpt lat="45.8554597" lon="13.6958499"><ele>527.0</ele><time>2026-04-25T09:36:52.207Z</time></trkpt><trkpt lat="45.8555211" lon="13.6959369"><ele>527.0</ele><time>2026-04-25T09:36:53.207Z</time></trkpt><trkpt lat="45.8555792" lon="13.696019"><ele>527.0</ele><time>2026-04-25T09:36:54.207Z</time></trkpt><trkpt lat="45.8556476" lon="13.6960933"><ele>527.0</ele><time>2026-04-25T09:36:55.207Z</time></trkpt><trkpt lat="45.8557027" lon="13.696172"><ele>527.0</ele><time>2026-04-25T09:36:56.207Z</time></trkpt><trkpt lat="45.8557631" lon="13.6962575"><ele>527.0</ele><time>2026-04-25T09:36:57.207Z</time></trkpt><trkpt lat="45.8558113" lon="13.6963353"><ele>526.5714285714287</ele><time>2026-04-25T09:36:58.207Z</time></trkpt><trkpt lat="45.8558573" lon="13.6964283"><ele>526.1428571428571</ele><time>2026-04-25T09:36:59.207Z</time></trkpt><trkpt lat="45.8558891" lon="13.6965238"><ele>525.7142857142858</ele><time>2026-04-25T09:37:00.207Z</time></trkpt><trkpt lat="45.855909" lon="13.6966173"><ele>525.2857142857143</ele><time>2026-04-25T09:37:01.207Z</time></trkpt><trkpt lat="45.8559268" lon="13.6967168"><ele>524.8571428571429</ele><time>2026-04-25T09:37:02.207Z</time></trkpt><trkpt lat="45.8559384" lon="13.6968159"><ele>524.4285714285714</ele><time>2026-04-25T09:37:03.207Z</time></trkpt><trkpt lat="45.8559522" lon="13.696915"><ele>524.0</ele><time>2026-04-25T09:37:04.207Z</time></trkpt><trkpt lat="45.8559651" lon="13.697007"><ele>528.6666666666666</ele><time>2026-04-25T09:37:05.207Z</time></trkpt><trkpt lat="45.8559779" lon="13.6971034"><ele>533.3333333333333</ele><time>2026-04-25T09:37:06.207Z</time></trkpt><trkpt lat="45.8559924" lon="13.6972106"><ele>538.0</ele><time>2026-04-25T09:37:07.207Z</time></trkpt><trkpt lat="45.8560125" lon="13.6973181"><ele>542.6666666666666</ele><time>2026-04-25T09:37:08.208Z</time></trkpt><trkpt lat="45.8560444" lon="13.6974294"><ele>547.3333333333334</ele><time>2026-04-25T09:37:09.207Z</time></trkpt><trkpt lat="45.8560777" lon="13.6975326"><ele>552.0</ele><time>2026-04-25T09:37:10.207Z</time></trkpt><trkpt lat="45.8561005" lon="13.6976293"><ele>552.0</ele><time>2026-04-25T09:37:11.207Z</time></trkpt><trkpt lat="45.85612" lon="13.6977193"><ele>552.0</ele><time>2026-04-25T09:37:12.207Z</time></trkpt><trkpt lat="45.8561249" lon="13.6978972"><ele>552.0</ele><time>2026-04-25T09:37:14.207Z</time></trkpt><trkpt lat="45.8560801" lon="13.698068"><ele>552.0</ele><time>2026-04-25T09:37:16.207Z</time></trkpt><trkpt lat="45.8560384" lon="13.6981374"><ele>552.0</ele><time>2026-04-25T09:37:17.207Z</time></trkpt><trkpt lat="45.8559675" lon="13.6982436"><ele>550.8000000000001</ele><time>2026-04-25T09:37:19.207Z</time></trkpt><trkpt lat="45.8558981" lon="13.6983699"><ele>549.6</ele><time>2026-04-25T09:37:21.207Z</time></trkpt><trkpt lat="45.8558575" lon="13.6985634"><ele>548.4000000000001</ele><time>2026-04-25T09:37:23.207Z</time></trkpt><trkpt lat="45.8558342" lon="13.6986705"><ele>547.2</ele><time>2026-04-25T09:37:24.207Z</time></trkpt><trkpt lat="45.8558289" lon="13.698777"><ele>546.0</ele><time>2026-04-25T09:37:25.207Z</time></trkpt><trkpt lat="45.8558171" lon="13.6988984"><ele>546.0</ele><time>2026-04-25T09:37:26.207Z</time></trkpt><trkpt lat="45.8558034" lon="13.6990259"><ele>546.0</ele><time>2026-04-25T09:37:27.207Z</time></trkpt><trkpt lat="45.8557837" lon="13.6991356"><ele>546.0</ele><time>2026-04-25T09:37:28.207Z</time></trkpt><trkpt lat="45.855778" lon="13.6992502"><ele>546.0</ele><time>2026-04-25T09:37:29.207Z</time></trkpt><trkpt lat="45.8557575" lon="13.6993469"><ele>546.0</ele><time>2026-04-25T09:37:30.207Z</time></trkpt><trkpt lat="45.8557201" lon="13.6994623"><ele>546.0</ele><time>2026-04-25T09:37:31.207Z</time></trkpt><trkpt lat="45.8556852" lon="13.6995788"><ele>547.5714285714286</ele><time>2026-04-25T09:37:32.207Z</time></trkpt><trkpt lat="45.8556685" lon="13.6996805"><ele>549.1428571428571</ele><time>2026-04-25T09:37:33.207Z</time></trkpt><trkpt lat="45.8556486" lon="13.6997848"><ele>550.7142857142858</ele><time>2026-04-25T09:37:34.207Z</time></trkpt><trkpt lat="45.8556437" lon="13.6998854"><ele>552.2857142857142</ele><time>2026-04-25T09:37:35.207Z</time></trkpt><trkpt lat="45.8556413" lon="13.6999867"><ele>553.8571428571429</ele><time>2026-04-25T09:37:36.207Z</time></trkpt><trkpt lat="45.8556299" lon="13.7000936"><ele>555.4285714285714</ele><time>2026-04-25T09:37:37.207Z</time></trkpt><trkpt lat="45.8556176" lon="13.7001848"><ele>557.0</ele><time>2026-04-25T09:37:38.207Z</time></trkpt><trkpt lat="45.8555583" lon="13.7002703"><ele>558.1666666666666</ele><time>2026-04-25T09:37:39.207Z</time></trkpt><trkpt lat="45.8554902" lon="13.7003552"><ele>559.3333333333333</ele><time>2026-04-25T09:37:40.207Z</time></trkpt><trkpt lat="45.8554248" lon="13.7004423"><ele>560.5</ele><time>2026-04-25T09:37:41.207Z</time></trkpt><trkpt lat="45.8553639" lon="13.7005241"><ele>561.6666666666666</ele><time>2026-04-25T09:37:42.207Z</time></trkpt><trkpt lat="45.8553112" lon="13.700586"><ele>562.8333333333334</ele><time>2026-04-25T09:37:43.207Z</time></trkpt><trkpt lat="45.8552509" lon="13.7006784"><ele>564.0</ele><time>2026-04-25T09:37:44.207Z</time></trkpt><trkpt lat="45.8552048" lon="13.7007556"><ele>564.0</ele><time>2026-04-25T09:37:45.208Z</time></trkpt><trkpt lat="45.8551679" lon="13.7008394"><ele>564.0</ele><time>2026-04-25T09:37:46.207Z</time></trkpt><trkpt lat="45.8551425" lon="13.7009324"><ele>564.0</ele><time>2026-04-25T09:37:47.207Z</time></trkpt><trkpt lat="45.8551141" lon="13.7010687"><ele>564.0</ele><time>2026-04-25T09:37:49.207Z</time></trkpt><trkpt lat="45.855107" lon="13.7012275"><ele>564.0</ele><time>2026-04-25T09:37:51.207Z</time></trkpt><trkpt lat="45.8551209" lon="13.7013335"><ele>564.0</ele><time>2026-04-25T09:37:52.207Z</time></trkpt><trkpt lat="45.8551299" lon="13.7014396"><ele>565.2</ele><time>2026-04-25T09:37:53.207Z</time></trkpt><trkpt lat="45.855153" lon="13.7015368"><ele>566.4</ele><time>2026-04-25T09:37:54.207Z</time></trkpt><trkpt lat="45.8551668" lon="13.7017414"><ele>567.6</ele><time>2026-04-25T09:37:56.207Z</time></trkpt><trkpt lat="45.8551689" lon="13.7018488"><ele>568.8</ele><time>2026-04-25T09:37:57.207Z</time></trkpt><trkpt lat="45.8551796" lon="13.7019806"><ele>570.0</ele><time>2026-04-25T09:37:58.207Z</time></trkpt><trkpt lat="45.8551807" lon="13.7020971"><ele>570.6666666666666</ele><time>2026-04-25T09:37:59.207Z</time></trkpt><trkpt lat="45.8551825" lon="13.7022297"><ele>571.3333333333334</ele><time>2026-04-25T09:38:00.207Z</time></trkpt><trkpt lat="45.8551883" lon="13.7023427"><ele>572.0</ele><time>2026-04-25T09:38:01.207Z</time></trkpt><trkpt lat="45.855193" lon="13.7024523"><ele>572.6666666666667</ele><time>2026-04-25T09:38:02.207Z</time></trkpt><trkpt lat="45.855192" lon="13.7025692"><ele>573.3333333333334</ele><time>2026-04-25T09:38:03.207Z</time></trkpt><trkpt lat="45.8552102" lon="13.702703"><ele>574.0</ele><time>2026-04-25T09:38:04.208Z</time></trkpt><trkpt lat="45.8552212" lon="13.7028484"><ele>574.6</ele><time>2026-04-25T09:38:05.207Z</time></trkpt><trkpt lat="45.8552463" lon="13.7029916"><ele>575.2</ele><time>2026-04-25T09:38:06.207Z</time></trkpt><trkpt lat="45.8552635" lon="13.7031377"><ele>575.8000000000001</ele><time>2026-04-25T09:38:07.207Z</time></trkpt><trkpt lat="45.8552852" lon="13.7032741"><ele>576.4</ele><time>2026-04-25T09:38:08.207Z</time></trkpt><trkpt lat="45.8553103" lon="13.703407"><ele>577.0</ele><time>2026-04-25T09:38:09.207Z</time></trkpt><trkpt lat="45.8553292" lon="13.7035388"><ele>576.6</ele><time>2026-04-25T09:38:10.208Z</time></trkpt><trkpt lat="45.8553548" lon="13.7036622"><ele>576.2</ele><time>2026-04-25T09:38:11.208Z</time></trkpt><trkpt lat="45.8554" lon="13.7037958"><ele>575.8</ele><time>2026-04-25T09:38:12.207Z</time></trkpt><trkpt lat="45.8554465" lon="13.703927"><ele>575.4</ele><time>2026-04-25T09:38:13.207Z</time></trkpt><trkpt lat="45.8554817" lon="13.7040554"><ele>575.0</ele><time>2026-04-25T09:38:14.207Z</time></trkpt><trkpt lat="45.855512" lon="13.7041831"><ele>575.0</ele><time>2026-04-25T09:38:15.207Z</time></trkpt><trkpt lat="45.8555342" lon="13.7043111"><ele>575.0</ele><time>2026-04-25T09:38:16.207Z</time></trkpt><trkpt lat="45.8555505" lon="13.7044389"><ele>575.0</ele><time>2026-04-25T09:38:17.207Z</time></trkpt><trkpt lat="45.8555643" lon="13.7045488"><ele>575.0</ele><time>2026-04-25T09:38:18.207Z</time></trkpt><trkpt lat="45.8555897" lon="13.7046874"><ele>575.0</ele><time>2026-04-25T09:38:19.207Z</time></trkpt><trkpt lat="45.8556125" lon="13.704826"><ele>575.3333333333333</ele><time>2026-04-25T09:38:20.207Z</time></trkpt><trkpt lat="45.8556325" lon="13.7049606"><ele>575.6666666666666</ele><time>2026-04-25T09:38:21.208Z</time></trkpt><trkpt lat="45.8556514" lon="13.705093"><ele>576.0</ele><time>2026-04-25T09:38:22.207Z</time></trkpt><trkpt lat="45.8556713" lon="13.7052318"><ele>576.3333333333334</ele><time>2026-04-25T09:38:23.207Z</time></trkpt><trkpt lat="45.8556881" lon="13.7053591"><ele>576.6666666666667</ele><time>2026-04-25T09:38:24.207Z</time></trkpt><trkpt lat="45.855701" lon="13.7054583"><ele>577.0</ele><time>2026-04-25T09:38:25.207Z</time></trkpt><trkpt lat="45.8557216" lon="13.7056024"><ele>577.0</ele><time>2026-04-25T09:38:27.207Z</time></trkpt><trkpt lat="45.855739" lon="13.7057258"><ele>577.0</ele><time>2026-04-25T09:38:29.207Z</time></trkpt><trkpt lat="45.8557745" lon="13.7058579"><ele>577.0</ele><time>2026-04-25T09:38:32.207Z</time></trkpt><trkpt lat="45.8557769" lon="13.7059723"><ele>577.0</ele><time>2026-04-25T09:38:35.208Z</time></trkpt><trkpt lat="45.8557821" lon="13.7061054"><ele>577.0</ele><time>2026-04-25T09:38:37.207Z</time></trkpt><trkpt lat="45.8557763" lon="13.7062082"><ele>577.0</ele><time>2026-04-25T09:38:39.207Z</time></trkpt><trkpt lat="45.8558204" lon="13.7062915"><ele>577.0</ele><time>2026-04-25T09:51:30.207Z</time></trkpt><trkpt lat="45.8558083" lon="13.7061803"><ele>577.0</ele><time>2026-04-25T09:51:51.207Z</time></trkpt><trkpt lat="45.855799" lon="13.7060875"><ele>577.0</ele><time>2026-04-25T09:51:54.207Z</time></trkpt><trkpt lat="45.8557963" lon="13.7059901"><ele>577.0</ele><time>2026-04-25T09:51:57.207Z</time></trkpt><trkpt lat="45.8557903" lon="13.7058856"><ele>577.0</ele><time>2026-04-25T09:52:00.207Z</time></trkpt><trkpt lat="45.8557679" lon="13.7057649"><ele>577.0</ele><time>2026-04-25T09:52:04.208Z</time></trkpt><trkpt lat="45.8557509" lon="13.7056508"><ele>577.0</ele><time>2026-04-25T09:52:07.207Z</time></trkpt><trkpt lat="45.8557429" lon="13.7055596"><ele>577.0</ele><time>2026-04-25T09:52:09.207Z</time></trkpt><trkpt lat="45.8557308" lon="13.705449"><ele>577.0</ele><time>2026-04-25T09:52:11.207Z</time></trkpt><trkpt lat="45.8557213" lon="13.7053168"><ele>577.0</ele><time>2026-04-25T09:52:14.207Z</time></trkpt><trkpt lat="45.8557071" lon="13.705188"><ele>577.0</ele><time>2026-04-25T09:52:17.207Z</time></trkpt><trkpt lat="45.8556696" lon="13.7050758"><ele>577.0</ele><time>2026-04-25T09:52:20.207Z</time></trkpt><trkpt lat="45.8556375" lon="13.7049592"><ele>576.7142857142857</ele><time>2026-04-25T09:52:23.207Z</time></trkpt><trkpt lat="45.8556158" lon="13.7048525"><ele>576.4285714285714</ele><time>2026-04-25T09:52:26.207Z</time></trkpt><trkpt lat="45.8555891" lon="13.7047471"><ele>576.1428571428571</ele><time>2026-04-25T09:52:29.207Z</time></trkpt><trkpt lat="45.8555721" lon="13.7046363"><ele>575.8571428571429</ele><time>2026-04-25T09:52:32.207Z</time></trkpt><trkpt lat="45.855551" lon="13.7045452"><ele>575.5714285714286</ele><time>2026-04-25T09:52:34.207Z</time></trkpt><trkpt lat="45.8555371" lon="13.7044429"><ele>575.2857142857142</ele><time>2026-04-25T09:52:36.207Z</time></trkpt><trkpt lat="45.8555249" lon="13.704338"><ele>575.0</ele><time>2026-04-25T09:52:38.207Z</time></trkpt><trkpt lat="45.8555055" lon="13.7042294"><ele>575.0</ele><time>2026-04-25T09:52:40.207Z</time></trkpt><trkpt lat="45.8554816" lon="13.7041044"><ele>575.0</ele><time>2026-04-25T09:52:42.207Z</time></trkpt><trkpt lat="45.8554444" lon="13.7039656"><ele>575.0</ele><time>2026-04-25T09:52:44.207Z</time></trkpt><trkpt lat="45.8553897" lon="13.7038114"><ele>575.0</ele><time>2026-04-25T09:52:46.207Z</time></trkpt><trkpt lat="45.8553435" lon="13.7036505"><ele>575.0</ele><time>2026-04-25T09:52:48.207Z</time></trkpt><trkpt lat="45.8553093" lon="13.7034725"><ele>575.2857142857142</ele><time>2026-04-25T09:52:50.207Z</time></trkpt><trkpt lat="45.855292" lon="13.703378"><ele>575.5714285714286</ele><time>2026-04-25T09:52:51.208Z</time></trkpt><trkpt lat="45.8552699" lon="13.7032749"><ele>575.8571428571429</ele><time>2026-04-25T09:52:52.207Z</time></trkpt><trkpt lat="45.8552564" lon="13.7031733"><ele>576.1428571428571</ele><time>2026-04-25T09:52:53.208Z</time></trkpt><trkpt lat="45.8552413" lon="13.7030794"><ele>576.4285714285714</ele><time>2026-04-25T09:52:54.207Z</time></trkpt><trkpt lat="45.8552278" lon="13.7029825"><ele>576.7142857142857</ele><time>2026-04-25T09:52:55.207Z</time></trkpt><trkpt lat="45.8552117" lon="13.7028898"><ele>577.0</ele><time>2026-04-25T09:52:56.207Z</time></trkpt><trkpt lat="45.8551958" lon="13.7027923"><ele>576.5714285714286</ele><time>2026-04-25T09:52:57.207Z</time></trkpt><trkpt lat="45.8551845" lon="13.7026926"><ele>576.1428571428571</ele><time>2026-04-25T09:52:58.207Z</time></trkpt><trkpt lat="45.8551748" lon="13.7025806"><ele>575.7142857142858</ele><time>2026-04-25T09:52:59.207Z</time></trkpt><trkpt lat="45.8551741" lon="13.7024842"><ele>575.2857142857142</ele><time>2026-04-25T09:53:00.207Z</time></trkpt><trkpt lat="45.8551687" lon="13.7023899"><ele>574.8571428571429</ele><time>2026-04-25T09:53:01.207Z</time></trkpt><trkpt lat="45.8551738" lon="13.7022928"><ele>574.4285714285714</ele><time>2026-04-25T09:53:02.207Z</time></trkpt><trkpt lat="45.8551779" lon="13.7022"><ele>574.0</ele><time>2026-04-25T09:53:03.207Z</time></trkpt><trkpt lat="45.8551791" lon="13.7021083"><ele>574.0</ele><time>2026-04-25T09:53:04.207Z</time></trkpt><trkpt lat="45.8551726" lon="13.7020025"><ele>574.0</ele><time>2026-04-25T09:53:05.207Z</time></trkpt><trkpt lat="45.8551705" lon="13.7018943"><ele>574.0</ele><time>2026-04-25T09:53:06.207Z</time></trkpt><trkpt lat="45.8551692" lon="13.7017812"><ele>574.0</ele><time>2026-04-25T09:53:07.207Z</time></trkpt><trkpt lat="45.8551635" lon="13.7016753"><ele>574.0</ele><time>2026-04-25T09:53:08.207Z</time></trkpt><trkpt lat="45.8551529" lon="13.7015761"><ele>574.0</ele><time>2026-04-25T09:53:09.207Z</time></trkpt><trkpt lat="45.8551443" lon="13.701478"><ele>574.0</ele><time>2026-04-25T09:53:10.207Z</time></trkpt><trkpt lat="45.855132" lon="13.7013879"><ele>573.3333333333334</ele><time>2026-04-25T09:53:11.207Z</time></trkpt><trkpt lat="45.8551228" lon="13.7012259"><ele>572.6666666666667</ele><time>2026-04-25T09:53:13.207Z</time></trkpt><trkpt lat="45.8551342" lon="13.7010933"><ele>572.0</ele><time>2026-04-25T09:53:15.207Z</time></trkpt><trkpt lat="45.855205" lon="13.701066"><ele>571.3333333333334</ele><time>2026-04-25T09:53:18.207Z</time></trkpt><trkpt lat="45.8552713" lon="13.7011044"><ele>570.6666666666666</ele><time>2026-04-25T09:53:20.207Z</time></trkpt><trkpt lat="45.855346" lon="13.7011754"><ele>570.0</ele><time>2026-04-25T09:53:22.207Z</time></trkpt><trkpt lat="45.8554375" lon="13.7011934"><ele>570.0</ele><time>2026-04-25T09:53:24.207Z</time></trkpt><trkpt lat="45.8555234" lon="13.7012245"><ele>570.0</ele><time>2026-04-25T09:53:26.207Z</time></trkpt><trkpt lat="45.8556245" lon="13.7012368"><ele>570.0</ele><time>2026-04-25T09:53:28.207Z</time></trkpt><trkpt lat="45.8557134" lon="13.7012455"><ele>570.0</ele><time>2026-04-25T09:53:30.207Z</time></trkpt><trkpt lat="45.8558433" lon="13.7012238"><ele>570.0</ele><time>2026-04-25T09:53:32.207Z</time></trkpt><trkpt lat="45.8559436" lon="13.7012145"><ele>571.8333333333334</ele><time>2026-04-25T09:53:34.207Z</time></trkpt><trkpt lat="45.8560462" lon="13.7012075"><ele>573.6666666666666</ele><time>2026-04-25T09:53:36.207Z</time></trkpt><trkpt lat="45.8561699" lon="13.7011964"><ele>575.5</ele><time>2026-04-25T09:53:38.207Z</time></trkpt><trkpt lat="45.8562384" lon="13.7011809"><ele>577.3333333333333</ele><time>2026-04-25T09:53:39.207Z</time></trkpt><trkpt lat="45.856307" lon="13.7011636"><ele>579.1666666666666</ele><time>2026-04-25T09:53:40.207Z</time></trkpt><trkpt lat="45.8563755" lon="13.7011437"><ele>581.0</ele><time>2026-04-25T09:53:41.207Z</time></trkpt><trkpt lat="45.8564392" lon="13.7011055"><ele>580.0</ele><time>2026-04-25T09:53:42.207Z</time></trkpt><trkpt lat="45.8565013" lon="13.7010589"><ele>579.0</ele><time>2026-04-25T09:53:43.207Z</time></trkpt><trkpt lat="45.856562" lon="13.7010051"><ele>578.0</ele><time>2026-04-25T09:53:44.207Z</time></trkpt><trkpt lat="45.8566282" lon="13.7009609"><ele>577.0</ele><time>2026-04-25T09:53:45.207Z</time></trkpt><trkpt lat="45.8567117" lon="13.7009165"><ele>576.0</ele><time>2026-04-25T09:53:46.207Z</time></trkpt><trkpt lat="45.8567957" lon="13.7008917"><ele>575.0</ele><time>2026-04-25T09:53:47.207Z</time></trkpt><trkpt lat="45.8568774" lon="13.7008511"><ele>578.0</ele><time>2026-04-25T09:53:48.207Z</time></trkpt><trkpt lat="45.8569563" lon="13.7008047"><ele>581.0</ele><time>2026-04-25T09:53:49.207Z</time></trkpt><trkpt lat="45.8570415" lon="13.7007607"><ele>584.0</ele><time>2026-04-25T09:53:50.207Z</time></trkpt><trkpt lat="45.8571207" lon="13.7006864"><ele>587.0</ele><time>2026-04-25T09:53:51.207Z</time></trkpt><trkpt lat="45.8572033" lon="13.7006198"><ele>590.0</ele><time>2026-04-25T09:53:52.207Z</time></trkpt><trkpt lat="45.8572734" lon="13.700555"><ele>593.0</ele><time>2026-04-25T09:53:53.208Z</time></trkpt><trkpt lat="45.8573407" lon="13.7004953"><ele>593.0</ele><time>2026-04-25T09:53:54.207Z</time></trkpt><trkpt lat="45.8574061" lon="13.7004262"><ele>593.0</ele><time>2026-04-25T09:53:55.207Z</time></trkpt><trkpt lat="45.8574763" lon="13.7003594"><ele>593.0</ele><time>2026-04-25T09:53:56.207Z</time></trkpt><trkpt lat="45.8575441" lon="13.7002953"><ele>593.0</ele><time>2026-04-25T09:53:57.207Z</time></trkpt><trkpt lat="45.8576143" lon="13.7002315"><ele>593.0</ele><time>2026-04-25T09:53:58.207Z</time></trkpt><trkpt lat="45.8576764" lon="13.7001775"><ele>593.0</ele><time>2026-04-25T09:53:59.207Z</time></trkpt><trkpt lat="45.8577378" lon="13.7001201"><ele>592.8333333333333</ele><time>2026-04-25T09:54:00.207Z</time></trkpt><trkpt lat="45.8578039" lon="13.7000753"><ele>592.6666666666666</ele><time>2026-04-25T09:54:01.208Z</time></trkpt><trkpt lat="45.8578799" lon="13.7000454"><ele>592.5</ele><time>2026-04-25T09:54:02.207Z</time></trkpt><trkpt lat="45.8579634" lon="13.700018"><ele>592.3333333333334</ele><time>2026-04-25T09:54:03.207Z</time></trkpt><trkpt lat="45.8580369" lon="13.6999947"><ele>592.1666666666667</ele><time>2026-04-25T09:54:04.207Z</time></trkpt><trkpt lat="45.8581014" lon="13.699963"><ele>592.0</ele><time>2026-04-25T09:54:05.207Z</time></trkpt><trkpt lat="45.8581691" lon="13.6999365"><ele>592.0</ele><time>2026-04-25T09:54:06.207Z</time></trkpt><trkpt lat="45.8582788" lon="13.6998995"><ele>592.0</ele><time>2026-04-25T09:54:08.207Z</time></trkpt><trkpt lat="45.8583495" lon="13.6998577"><ele>592.0</ele><time>2026-04-25T09:54:10.207Z</time></trkpt><trkpt lat="45.858382" lon="13.6997792"><ele>592.0</ele><time>2026-04-25T09:54:13.207Z</time></trkpt><trkpt lat="45.8583919" lon="13.6996207"><ele>592.0</ele><time>2026-04-25T09:57:37.207Z</time></trkpt><trkpt lat="45.8583806" lon="13.6994643"><ele>591.8000000000001</ele><time>2026-04-25T09:57:39.207Z</time></trkpt><trkpt lat="45.8583751" lon="13.6992858"><ele>591.6</ele><time>2026-04-25T09:57:41.208Z</time></trkpt><trkpt lat="45.8583657" lon="13.6991775"><ele>591.4000000000001</ele><time>2026-04-25T09:57:42.207Z</time></trkpt><trkpt lat="45.8583649" lon="13.6990262"><ele>591.2</ele><time>2026-04-25T09:57:44.207Z</time></trkpt><trkpt lat="45.8583617" lon="13.6989239"><ele>591.0</ele><time>2026-04-25T09:57:46.207Z</time></trkpt><trkpt lat="45.8583597" lon="13.699053"><ele>591.0</ele><time>2026-04-25T09:58:13.208Z</time></trkpt><trkpt lat="45.8583683" lon="13.6991545"><ele>591.0</ele><time>2026-04-25T09:58:15.207Z</time></trkpt><trkpt lat="45.8583848" lon="13.699279"><ele>591.0</ele><time>2026-04-25T09:58:17.208Z</time></trkpt><trkpt lat="45.8583816" lon="13.6993698"><ele>591.0</ele><time>2026-04-25T09:58:19.207Z</time></trkpt><trkpt lat="45.8583898" lon="13.6994976"><ele>591.0</ele><time>2026-04-25T09:58:22.207Z</time></trkpt><trkpt lat="45.8583868" lon="13.6996275"><ele>591.0</ele><time>2026-04-25T09:58:25.207Z</time></trkpt><trkpt lat="45.8583947" lon="13.6997316"><ele>591.5</ele><time>2026-04-25T09:58:28.207Z</time></trkpt><trkpt lat="45.8584796" lon="13.6997694"><ele>592.0</ele><time>2026-04-25T09:58:32.207Z</time></trkpt><trkpt lat="45.8585693" lon="13.6997517"><ele>592.5</ele><time>2026-04-25T09:58:34.207Z</time></trkpt><trkpt lat="45.8586504" lon="13.6997435"><ele>593.0</ele><time>2026-04-25T09:58:36.207Z</time></trkpt><trkpt lat="45.8587341" lon="13.6997419"><ele>593.5</ele><time>2026-04-25T09:58:38.207Z</time></trkpt><trkpt lat="45.8588124" lon="13.6997598"><ele>594.0</ele><time>2026-04-25T09:58:52.207Z</time></trkpt><trkpt lat="45.8589079" lon="13.6997937"><ele>594.0</ele><time>2026-04-25T09:58:54.207Z</time></trkpt><trkpt lat="45.8589924" lon="13.6998377"><ele>594.0</ele><time>2026-04-25T09:58:56.207Z</time></trkpt><trkpt lat="45.8590818" lon="13.6998875"><ele>594.0</ele><time>2026-04-25T09:58:58.207Z</time></trkpt><trkpt lat="45.8591459" lon="13.6999285"><ele>594.0</ele><time>2026-04-25T09:59:01.207Z</time></trkpt><trkpt lat="45.8591729" lon="13.7000218"><ele>594.0</ele><time>2026-04-25T09:59:25.207Z</time></trkpt><trkpt lat="45.8592117" lon="13.7001067"><ele>594.0</ele><time>2026-04-25T09:59:28.207Z</time></trkpt><trkpt lat="45.8592718" lon="13.7001406"><ele>591.6666666666666</ele><time>2026-04-25T09:59:32.207Z</time></trkpt><trkpt lat="45.859339" lon="13.7001819"><ele>589.3333333333334</ele><time>2026-04-25T09:59:35.208Z</time></trkpt><trkpt lat="45.8593975" lon="13.7002305"><ele>587.0</ele><time>2026-04-25T09:59:46.207Z</time></trkpt><trkpt lat="45.8594644" lon="13.7002366"><ele>584.6666666666667</ele><time>2026-04-25T09:59:49.207Z</time></trkpt><trkpt lat="45.8595577" lon="13.7002285"><ele>582.3333333333334</ele><time>2026-04-25T09:59:51.207Z</time></trkpt><trkpt lat="45.8596243" lon="13.700229"><ele>580.0</ele><time>2026-04-25T09:59:53.207Z</time></trkpt><trkpt lat="45.8597065" lon="13.7002207"><ele>580.0</ele><time>2026-04-25T09:59:56.207Z</time></trkpt><trkpt lat="45.8597709" lon="13.7002507"><ele>580.0</ele><time>2026-04-25T10:00:00.207Z</time></trkpt><trkpt lat="45.8598418" lon="13.7002542"><ele>580.0</ele><time>2026-04-25T10:00:05.207Z</time></trkpt><trkpt lat="45.8599159" lon="13.7002402"><ele>580.0</ele><time>2026-04-25T10:00:10.208Z</time></trkpt><trkpt lat="45.8598443" lon="13.7002471"><ele>580.0</ele><time>2026-04-25T10:02:03.207Z</time></trkpt><trkpt lat="45.8597701" lon="13.7002601"><ele>580.0</ele><time>2026-04-25T10:03:25.207Z</time></trkpt><trkpt lat="45.8596968" lon="13.7002466"><ele>580.0</ele><time>2026-04-25T10:03:31.207Z</time></trkpt><trkpt lat="45.8596178" lon="13.7002331"><ele>580.0</ele><time>2026-04-25T10:03:35.207Z</time></trkpt><trkpt lat="45.8595458" lon="13.7002245"><ele>580.0</ele><time>2026-04-25T10:03:37.207Z</time></trkpt><trkpt lat="45.8594536" lon="13.7002255"><ele>580.0</ele><time>2026-04-25T10:03:39.207Z</time></trkpt><trkpt lat="45.8593802" lon="13.700221"><ele>580.0</ele><time>2026-04-25T10:03:41.207Z</time></trkpt><trkpt lat="45.8593152" lon="13.7002011"><ele>580.0</ele><time>2026-04-25T10:03:43.207Z</time></trkpt><trkpt lat="45.8592289" lon="13.7001358"><ele>580.0</ele><time>2026-04-25T10:03:45.207Z</time></trkpt><trkpt lat="45.8591652" lon="13.700066"><ele>582.3333333333334</ele><time>2026-04-25T10:03:47.207Z</time></trkpt><trkpt lat="45.8591017" lon="13.7000051"><ele>584.6666666666667</ele><time>2026-04-25T10:04:00.207Z</time></trkpt><trkpt lat="45.8590575" lon="13.6999126"><ele>587.0</ele><time>2026-04-25T10:04:03.207Z</time></trkpt><trkpt lat="45.8589912" lon="13.6998683"><ele>589.3333333333334</ele><time>2026-04-25T10:04:05.207Z</time></trkpt><trkpt lat="45.8589269" lon="13.6998319"><ele>591.6666666666666</ele><time>2026-04-25T10:04:07.207Z</time></trkpt><trkpt lat="45.8588484" lon="13.699791"><ele>594.0</ele><time>2026-04-25T10:04:09.207Z</time></trkpt><trkpt lat="45.8587577" lon="13.699767"><ele>594.0</ele><time>2026-04-25T10:04:11.208Z</time></trkpt><trkpt lat="45.858692" lon="13.6997613"><ele>594.0</ele><time>2026-04-25T10:04:12.208Z</time></trkpt><trkpt lat="45.8585777" lon="13.6997872"><ele>594.0</ele><time>2026-04-25T10:04:14.207Z</time></trkpt><trkpt lat="45.8584933" lon="13.6997825"><ele>594.0</ele><time>2026-04-25T10:04:16.207Z</time></trkpt><trkpt lat="45.8584235" lon="13.6997855"><ele>594.0</ele><time>2026-04-25T10:04:18.207Z</time></trkpt><trkpt lat="45.8583477" lon="13.6998144"><ele>594.0</ele><time>2026-04-25T10:04:31.207Z</time></trkpt><trkpt lat="45.8582717" lon="13.6998785"><ele>593.6</ele><time>2026-04-25T10:04:33.207Z</time></trkpt><trkpt lat="45.8581805" lon="13.6999171"><ele>593.2</ele><time>2026-04-25T10:04:35.207Z</time></trkpt><trkpt lat="45.8580924" lon="13.6999571"><ele>592.8000000000001</ele><time>2026-04-25T10:04:37.207Z</time></trkpt><trkpt lat="45.8579978" lon="13.6999941"><ele>592.4</ele><time>2026-04-25T10:04:39.207Z</time></trkpt><trkpt lat="45.8578932" lon="13.7000329"><ele>592.0</ele><time>2026-04-25T10:04:41.207Z</time></trkpt><trkpt lat="45.8577972" lon="13.7000695"><ele>592.0</ele><time>2026-04-25T10:04:43.208Z</time></trkpt><trkpt lat="45.8576992" lon="13.7001435"><ele>592.0</ele><time>2026-04-25T10:04:45.207Z</time></trkpt><trkpt lat="45.8575947" lon="13.7002382"><ele>592.0</ele><time>2026-04-25T10:04:47.208Z</time></trkpt><trkpt lat="45.8574849" lon="13.7003376"><ele>592.0</ele><time>2026-04-25T10:04:49.208Z</time></trkpt><trkpt lat="45.8574333" lon="13.7003919"><ele>592.0</ele><time>2026-04-25T10:04:50.207Z</time></trkpt><trkpt lat="45.857378" lon="13.7004398"><ele>592.2</ele><time>2026-04-25T10:04:51.207Z</time></trkpt><trkpt lat="45.8572713" lon="13.7005481"><ele>592.4000000000001</ele><time>2026-04-25T10:04:53.207Z</time></trkpt><trkpt lat="45.8572124" lon="13.7006063"><ele>592.5999999999999</ele><time>2026-04-25T10:04:54.207Z</time></trkpt><trkpt lat="45.8571538" lon="13.7006566"><ele>592.8</ele><time>2026-04-25T10:04:55.207Z</time></trkpt><trkpt lat="45.8570972" lon="13.7007037"><ele>593.0</ele><time>2026-04-25T10:04:56.207Z</time></trkpt><trkpt lat="45.8569811" lon="13.7007944"><ele>593.0</ele><time>2026-04-25T10:04:58.207Z</time></trkpt><trkpt lat="45.8568741" lon="13.7008378"><ele>593.0</ele><time>2026-04-25T10:05:00.207Z</time></trkpt><trkpt lat="45.8567532" lon="13.7008953"><ele>593.0</ele><time>2026-04-25T10:05:02.207Z</time></trkpt><trkpt lat="45.8566526" lon="13.7009596"><ele>593.0</ele><time>2026-04-25T10:05:04.208Z</time></trkpt><trkpt lat="45.856542" lon="13.7010149"><ele>591.0</ele><time>2026-04-25T10:05:06.207Z</time></trkpt><trkpt lat="45.8564337" lon="13.7010969"><ele>589.0</ele><time>2026-04-25T10:05:08.207Z</time></trkpt><trkpt lat="45.8563134" lon="13.7011418"><ele>587.0</ele><time>2026-04-25T10:05:10.208Z</time></trkpt><trkpt lat="45.8562443" lon="13.7011558"><ele>585.0</ele><time>2026-04-25T10:05:11.208Z</time></trkpt><trkpt lat="45.8561795" lon="13.7011706"><ele>583.0</ele><time>2026-04-25T10:05:12.207Z</time></trkpt><trkpt lat="45.856116" lon="13.7011881"><ele>581.0</ele><time>2026-04-25T10:05:13.207Z</time></trkpt><trkpt lat="45.8560469" lon="13.7011801"><ele>581.0</ele><time>2026-04-25T10:05:14.207Z</time></trkpt><trkpt lat="45.8559782" lon="13.7011871"><ele>581.0</ele><time>2026-04-25T10:05:15.207Z</time></trkpt><trkpt lat="45.8559113" lon="13.7011971"><ele>581.0</ele><time>2026-04-25T10:05:16.207Z</time></trkpt><trkpt lat="45.8557847" lon="13.7012216"><ele>581.0</ele><time>2026-04-25T10:05:18.207Z</time></trkpt><trkpt lat="45.8556784" lon="13.7012347"><ele>581.0</ele><time>2026-04-25T10:05:20.207Z</time></trkpt><trkpt lat="45.8556047" lon="13.701233"><ele>581.0</ele><time>2026-04-25T10:05:21.207Z</time></trkpt><trkpt lat="45.8554899" lon="13.7012264"><ele>579.1666666666666</ele><time>2026-04-25T10:05:23.207Z</time></trkpt><trkpt lat="45.8553893" lon="13.7011829"><ele>577.3333333333333</ele><time>2026-04-25T10:05:25.207Z</time></trkpt><trkpt lat="45.8552894" lon="13.7011566"><ele>575.5</ele><time>2026-04-25T10:05:27.207Z</time></trkpt><trkpt lat="45.8552243" lon="13.7011068"><ele>573.6666666666666</ele><time>2026-04-25T10:05:29.207Z</time></trkpt><trkpt lat="45.8551623" lon="13.7010596"><ele>571.8333333333334</ele><time>2026-04-25T10:05:32.207Z</time></trkpt><trkpt lat="45.8551088" lon="13.7011135"><ele>570.0</ele><time>2026-04-25T10:05:38.207Z</time></trkpt><trkpt lat="45.855113" lon="13.7012453"><ele>570.0</ele><time>2026-04-25T10:05:41.208Z</time></trkpt><trkpt lat="45.8551371" lon="13.7013858"><ele>570.0</ele><time>2026-04-25T10:05:43.207Z</time></trkpt><trkpt lat="45.8551533" lon="13.7014866"><ele>570.0</ele><time>2026-04-25T10:05:46.207Z</time></trkpt><trkpt lat="45.8551697" lon="13.7015756"><ele>570.0</ele><time>2026-04-25T10:07:23.208Z</time></trkpt><trkpt lat="45.8551495" lon="13.7014247"><ele>570.0</ele><time>2026-04-25T10:07:30.207Z</time></trkpt><trkpt lat="45.8551145" lon="13.7013295"><ele>570.0</ele><time>2026-04-25T10:07:43.207Z</time></trkpt><trkpt lat="45.8551019" lon="13.7012056"><ele>570.0</ele><time>2026-04-25T10:07:45.207Z</time></trkpt><trkpt lat="45.8550976" lon="13.7010971"><ele>570.0</ele><time>2026-04-25T10:07:47.208Z</time></trkpt><trkpt lat="45.8551596" lon="13.7010122"><ele>570.0</ele><time>2026-04-25T10:08:28.207Z</time></trkpt><trkpt lat="45.8552299" lon="13.7010528"><ele>570.0</ele><time>2026-04-25T10:08:30.207Z</time></trkpt><trkpt lat="45.855298" lon="13.7011171"><ele>570.0</ele><time>2026-04-25T10:08:32.208Z</time></trkpt><trkpt lat="45.8552104" lon="13.7010688"><ele>570.0</ele><time>2026-04-25T10:08:46.207Z</time></trkpt><trkpt lat="45.8551553" lon="13.7010248"><ele>569.0</ele><time>2026-04-25T10:08:49.207Z</time></trkpt><trkpt lat="45.855123" lon="13.7009288"><ele>568.0</ele><time>2026-04-25T10:08:53.207Z</time></trkpt><trkpt lat="45.8551509" lon="13.7008405"><ele>567.0</ele><time>2026-04-25T10:08:55.207Z</time></trkpt><trkpt lat="45.8552008" lon="13.7007814"><ele>566.0</ele><time>2026-04-25T10:08:56.207Z</time></trkpt><trkpt lat="45.8552652" lon="13.7006755"><ele>565.0</ele><time>2026-04-25T10:08:58.207Z</time></trkpt><trkpt lat="45.8553251" lon="13.7005984"><ele>564.0</ele><time>2026-04-25T10:09:00.207Z</time></trkpt><trkpt lat="45.8553667" lon="13.700524"><ele>564.0</ele><time>2026-04-25T10:09:06.207Z</time></trkpt><trkpt lat="45.8553066" lon="13.7006165"><ele>564.0</ele><time>2026-04-25T10:09:18.207Z</time></trkpt><trkpt lat="45.8552413" lon="13.7007153"><ele>564.0</ele><time>2026-04-25T10:09:20.207Z</time></trkpt><trkpt lat="45.8551775" lon="13.7008325"><ele>564.0</ele><time>2026-04-25T10:09:22.207Z</time></trkpt><trkpt lat="45.8551334" lon="13.7009328"><ele>564.0</ele><time>2026-04-25T10:09:24.207Z</time></trkpt><trkpt lat="45.8551502" lon="13.701027"><ele>564.0</ele><time>2026-04-25T10:09:26.207Z</time></trkpt><trkpt lat="45.8552202" lon="13.7010969"><ele>565.2</ele><time>2026-04-25T10:09:28.207Z</time></trkpt><trkpt lat="45.8553159" lon="13.7011491"><ele>566.4</ele><time>2026-04-25T10:09:30.207Z</time></trkpt><trkpt lat="45.8554442" lon="13.7012037"><ele>567.6</ele><time>2026-04-25T10:09:32.207Z</time></trkpt><trkpt lat="45.8555139" lon="13.7012258"><ele>568.8</ele><time>2026-04-25T10:09:33.207Z</time></trkpt><trkpt lat="45.8556027" lon="13.701229"><ele>570.0</ele><time>2026-04-25T10:09:34.207Z</time></trkpt><trkpt lat="45.8556722" lon="13.7012253"><ele>570.0</ele><time>2026-04-25T10:09:35.207Z</time></trkpt><trkpt lat="45.8557536" lon="13.7012221"><ele>570.0</ele><time>2026-04-25T10:09:36.207Z</time></trkpt><trkpt lat="45.8558372" lon="13.7012091"><ele>570.0</ele><time>2026-04-25T10:09:37.207Z</time></trkpt><trkpt lat="45.8559206" lon="13.7012"><ele>570.0</ele><time>2026-04-25T10:09:38.207Z</time></trkpt><trkpt lat="45.8560024" lon="13.7011964"><ele>570.0</ele><time>2026-04-25T10:09:39.207Z</time></trkpt><trkpt lat="45.8560883" lon="13.7011941"><ele>570.0</ele><time>2026-04-25T10:09:40.207Z</time></trkpt><trkpt lat="45.8561736" lon="13.7011805"><ele>570.8333333333334</ele><time>2026-04-25T10:09:41.208Z</time></trkpt><trkpt lat="45.8562642" lon="13.7011877"><ele>571.6666666666666</ele><time>2026-04-25T10:09:42.207Z</time></trkpt><trkpt lat="45.8563352" lon="13.7011504"><ele>572.5</ele><time>2026-04-25T10:09:43.207Z</time></trkpt><trkpt lat="45.8564017" lon="13.701117"><ele>573.3333333333333</ele><time>2026-04-25T10:09:44.208Z</time></trkpt><trkpt lat="45.856466" lon="13.7010728"><ele>574.1666666666666</ele><time>2026-04-25T10:09:45.207Z</time></trkpt><trkpt lat="45.8565351" lon="13.70102"><ele>575.0</ele><time>2026-04-25T10:09:46.207Z</time></trkpt><trkpt lat="45.8565997" lon="13.7009867"><ele>575.0</ele><time>2026-04-25T10:09:47.207Z</time></trkpt><trkpt lat="45.8566751" lon="13.7009489"><ele>575.0</ele><time>2026-04-25T10:09:48.207Z</time></trkpt><trkpt lat="45.8567653" lon="13.7009074"><ele>575.0</ele><time>2026-04-25T10:09:49.207Z</time></trkpt><trkpt lat="45.8568511" lon="13.7008651"><ele>575.0</ele><time>2026-04-25T10:09:50.207Z</time></trkpt><trkpt lat="45.8569266" lon="13.7008253"><ele>575.0</ele><time>2026-04-25T10:09:51.207Z</time></trkpt><trkpt lat="45.857" lon="13.7007739"><ele>575.0</ele><time>2026-04-25T10:09:52.207Z</time></trkpt><trkpt lat="45.8570765" lon="13.7007181"><ele>578.6</ele><time>2026-04-25T10:09:53.207Z</time></trkpt><trkpt lat="45.8571562" lon="13.7006533"><ele>582.2</ele><time>2026-04-25T10:09:54.207Z</time></trkpt><trkpt lat="45.8572357" lon="13.7005807"><ele>585.8</ele><time>2026-04-25T10:09:55.207Z</time></trkpt><trkpt lat="45.8573148" lon="13.7005104"><ele>589.4</ele><time>2026-04-25T10:09:56.207Z</time></trkpt><trkpt lat="45.8573975" lon="13.7004318"><ele>593.0</ele><time>2026-04-25T10:09:57.207Z</time></trkpt><trkpt lat="45.8574753" lon="13.7003574"><ele>593.0</ele><time>2026-04-25T10:09:58.207Z</time></trkpt><trkpt lat="45.8575539" lon="13.7002891"><ele>593.0</ele><time>2026-04-25T10:09:59.207Z</time></trkpt><trkpt lat="45.8576376" lon="13.7002062"><ele>593.0</ele><time>2026-04-25T10:10:00.207Z</time></trkpt><trkpt lat="45.857698" lon="13.700151"><ele>593.0</ele><time>2026-04-25T10:10:01.207Z</time></trkpt><trkpt lat="45.8577539" lon="13.7000964"><ele>593.0</ele><time>2026-04-25T10:10:02.207Z</time></trkpt><trkpt lat="45.8578739" lon="13.7000361"><ele>592.8333333333333</ele><time>2026-04-25T10:10:04.208Z</time></trkpt><trkpt lat="45.8579532" lon="13.700025"><ele>592.6666666666666</ele><time>2026-04-25T10:10:05.207Z</time></trkpt><trkpt lat="45.8580253" lon="13.6999819"><ele>592.5</ele><time>2026-04-25T10:10:06.207Z</time></trkpt><trkpt lat="45.8581085" lon="13.6999548"><ele>592.3333333333334</ele><time>2026-04-25T10:10:07.207Z</time></trkpt><trkpt lat="45.8581689" lon="13.6999284"><ele>592.1666666666667</ele><time>2026-04-25T10:10:08.207Z</time></trkpt><trkpt lat="45.8582751" lon="13.6998785"><ele>592.0</ele><time>2026-04-25T10:10:10.207Z</time></trkpt><trkpt lat="45.8583446" lon="13.6998022"><ele>592.0</ele><time>2026-04-25T10:10:12.207Z</time></trkpt><trkpt lat="45.8583716" lon="13.6996204"><ele>592.0</ele><time>2026-04-25T10:10:14.207Z</time></trkpt><trkpt lat="45.8583657" lon="13.6994937"><ele>592.0</ele><time>2026-04-25T10:10:15.207Z</time></trkpt><trkpt lat="45.8583616" lon="13.6993777"><ele>592.0</ele><time>2026-04-25T10:10:16.207Z</time></trkpt><trkpt lat="45.8583562" lon="13.699275"><ele>592.0</ele><time>2026-04-25T10:10:17.207Z</time></trkpt><trkpt lat="45.8583462" lon="13.6990995"><ele>591.8333333333334</ele><time>2026-04-25T10:10:19.207Z</time></trkpt><trkpt lat="45.8583483" lon="13.6989908"><ele>591.6666666666667</ele><time>2026-04-25T10:10:20.207Z</time></trkpt><trkpt lat="45.8583465" lon="13.6988693"><ele>591.5</ele><time>2026-04-25T10:10:21.207Z</time></trkpt><trkpt lat="45.8583333" lon="13.6987695"><ele>591.3333333333334</ele><time>2026-04-25T10:10:22.207Z</time></trkpt><trkpt lat="45.8583478" lon="13.6986427"><ele>591.1666666666666</ele><time>2026-04-25T10:10:23.207Z</time></trkpt><trkpt lat="45.8583546" lon="13.6985074"><ele>591.0</ele><time>2026-04-25T10:10:24.207Z</time></trkpt><trkpt lat="45.8583636" lon="13.6983819"><ele>591.8333333333334</ele><time>2026-04-25T10:10:25.207Z</time></trkpt><trkpt lat="45.8583823" lon="13.6982562"><ele>592.6666666666666</ele><time>2026-04-25T10:10:26.207Z</time></trkpt><trkpt lat="45.8583964" lon="13.6981415"><ele>593.5</ele><time>2026-04-25T10:10:27.207Z</time></trkpt><trkpt lat="45.8584182" lon="13.6980187"><ele>594.3333333333333</ele><time>2026-04-25T10:10:28.207Z</time></trkpt><trkpt lat="45.8584338" lon="13.6978869"><ele>595.1666666666666</ele><time>2026-04-25T10:10:29.207Z</time></trkpt><trkpt lat="45.8584426" lon="13.6977511"><ele>596.0</ele><time>2026-04-25T10:10:30.207Z</time></trkpt><trkpt lat="45.8584526" lon="13.6976103"><ele>596.8333333333333</ele><time>2026-04-25T10:10:31.207Z</time></trkpt><trkpt lat="45.8584586" lon="13.6974809"><ele>597.6666666666666</ele><time>2026-04-25T10:10:32.207Z</time></trkpt><trkpt lat="45.8584627" lon="13.6973463"><ele>598.5</ele><time>2026-04-25T10:10:33.208Z</time></trkpt><trkpt lat="45.8584782" lon="13.6972429"><ele>599.3333333333334</ele><time>2026-04-25T10:10:34.207Z</time></trkpt><trkpt lat="45.8584512" lon="13.6971349"><ele>600.1666666666667</ele><time>2026-04-25T10:10:35.207Z</time></trkpt><trkpt lat="45.8584343" lon="13.6970269"><ele>601.0</ele><time>2026-04-25T10:10:36.207Z</time></trkpt><trkpt lat="45.8583924" lon="13.6969129"><ele>602.4</ele><time>2026-04-25T10:10:37.207Z</time></trkpt><trkpt lat="45.8583579" lon="13.6967899"><ele>603.8</ele><time>2026-04-25T10:10:38.207Z</time></trkpt><trkpt lat="45.8583287" lon="13.6966616"><ele>605.1999999999999</ele><time>2026-04-25T10:10:39.207Z</time></trkpt><trkpt lat="45.8583033" lon="13.6965372"><ele>606.6</ele><time>2026-04-25T10:10:40.207Z</time></trkpt><trkpt lat="45.8582609" lon="13.6964223"><ele>608.0</ele><time>2026-04-25T10:10:41.207Z</time></trkpt><trkpt lat="45.8582233" lon="13.6963047"><ele>608.0</ele><time>2026-04-25T10:10:42.207Z</time></trkpt><trkpt lat="45.8581861" lon="13.696189"><ele>608.0</ele><time>2026-04-25T10:10:43.207Z</time></trkpt><trkpt lat="45.8581527" lon="13.6960732"><ele>608.0</ele><time>2026-04-25T10:10:44.207Z</time></trkpt><trkpt lat="45.8581239" lon="13.6959552"><ele>608.0</ele><time>2026-04-25T10:10:45.207Z</time></trkpt><trkpt lat="45.8580961" lon="13.6958458"><ele>608.0</ele><time>2026-04-25T10:10:46.207Z</time></trkpt><trkpt lat="45.8580666" lon="13.6957342"><ele>608.0</ele><time>2026-04-25T10:10:47.207Z</time></trkpt><trkpt lat="45.858046" lon="13.6956025"><ele>609.1666666666666</ele><time>2026-04-25T10:10:48.207Z</time></trkpt><trkpt lat="45.8580221" lon="13.6954733"><ele>610.3333333333333</ele><time>2026-04-25T10:10:49.207Z</time></trkpt><trkpt lat="45.8579993" lon="13.6953554"><ele>611.5</ele><time>2026-04-25T10:10:50.207Z</time></trkpt><trkpt lat="45.8579827" lon="13.6952393"><ele>612.6666666666666</ele><time>2026-04-25T10:10:51.207Z</time></trkpt><trkpt lat="45.857966" lon="13.6951216"><ele>613.8333333333334</ele><time>2026-04-25T10:10:52.207Z</time></trkpt><trkpt lat="45.8579627" lon="13.6949938"><ele>615.0</ele><time>2026-04-25T10:10:53.208Z</time></trkpt><trkpt lat="45.8579629" lon="13.6948808"><ele>615.3333333333334</ele><time>2026-04-25T10:10:54.207Z</time></trkpt><trkpt lat="45.8579654" lon="13.6947585"><ele>615.6666666666666</ele><time>2026-04-25T10:10:55.207Z</time></trkpt><trkpt lat="45.8579707" lon="13.6946375"><ele>616.0</ele><time>2026-04-25T10:10:56.207Z</time></trkpt><trkpt lat="45.8579808" lon="13.6945061"><ele>616.3333333333333</ele><time>2026-04-25T10:10:57.208Z</time></trkpt><trkpt lat="45.8579906" lon="13.6943796"><ele>616.6666666666666</ele><time>2026-04-25T10:10:58.207Z</time></trkpt><trkpt lat="45.8580007" lon="13.6942566"><ele>617.0</ele><time>2026-04-25T10:10:59.207Z</time></trkpt><trkpt lat="45.8580187" lon="13.694142"><ele>616.3333333333333</ele><time>2026-04-25T10:11:00.207Z</time></trkpt><trkpt lat="45.8580342" lon="13.6940338"><ele>615.6666666666666</ele><time>2026-04-25T10:11:01.207Z</time></trkpt><trkpt lat="45.8580506" lon="13.693929"><ele>615.0</ele><time>2026-04-25T10:11:02.207Z</time></trkpt><trkpt lat="45.8580684" lon="13.6938355"><ele>614.3333333333334</ele><time>2026-04-25T10:11:03.207Z</time></trkpt><trkpt lat="45.8580995" lon="13.6936859"><ele>613.6666666666667</ele><time>2026-04-25T10:11:05.207Z</time></trkpt><trkpt lat="45.8581168" lon="13.6935828"><ele>613.0</ele><time>2026-04-25T10:11:07.207Z</time></trkpt><trkpt lat="45.8581178" lon="13.6934753"><ele>612.1428571428571</ele><time>2026-04-25T10:11:18.207Z</time></trkpt><trkpt lat="45.8581349" lon="13.6933181"><ele>611.2857142857142</ele><time>2026-04-25T10:11:20.207Z</time></trkpt><trkpt lat="45.8581497" lon="13.6932278"><ele>610.4285714285713</ele><time>2026-04-25T10:11:21.207Z</time></trkpt><trkpt lat="45.858159" lon="13.693135"><ele>609.5714285714286</ele><time>2026-04-25T10:11:22.207Z</time></trkpt><trkpt lat="45.858164" lon="13.693043"><ele>608.7142857142857</ele><time>2026-04-25T10:11:23.207Z</time></trkpt><trkpt lat="45.8581658" lon="13.692952"><ele>607.8571428571428</ele><time>2026-04-25T10:11:24.207Z</time></trkpt><trkpt lat="45.858168" lon="13.6928495"><ele>607.0</ele><time>2026-04-25T10:11:25.207Z</time></trkpt><trkpt lat="45.8581717" lon="13.6927339"><ele>606.1666666666667</ele><time>2026-04-25T10:11:26.207Z</time></trkpt><trkpt lat="45.8581683" lon="13.6926184"><ele>605.3333333333334</ele><time>2026-04-25T10:11:27.207Z</time></trkpt><trkpt lat="45.8581773" lon="13.6925087"><ele>604.5</ele><time>2026-04-25T10:11:28.207Z</time></trkpt><trkpt lat="45.8581784" lon="13.6923967"><ele>603.6666666666666</ele><time>2026-04-25T10:11:29.207Z</time></trkpt><trkpt lat="45.8581781" lon="13.6922901"><ele>602.8333333333333</ele><time>2026-04-25T10:11:30.207Z</time></trkpt><trkpt lat="45.8581862" lon="13.6921822"><ele>602.0</ele><time>2026-04-25T10:11:31.207Z</time></trkpt><trkpt lat="45.8582039" lon="13.692075"><ele>602.0</ele><time>2026-04-25T10:11:32.207Z</time></trkpt><trkpt lat="45.8582229" lon="13.6919649"><ele>602.0</ele><time>2026-04-25T10:11:33.207Z</time></trkpt><trkpt lat="45.8582395" lon="13.6918577"><ele>602.0</ele><time>2026-04-25T10:11:34.207Z</time></trkpt><trkpt lat="45.8582558" lon="13.6917568"><ele>602.0</ele><time>2026-04-25T10:11:35.207Z</time></trkpt><trkpt lat="45.8582763" lon="13.6916607"><ele>602.0</ele><time>2026-04-25T10:11:36.207Z</time></trkpt><trkpt lat="45.8582966" lon="13.6915609"><ele>602.0</ele><time>2026-04-25T10:11:37.207Z</time></trkpt><trkpt lat="45.8583183" lon="13.6914571"><ele>602.0</ele><time>2026-04-25T10:11:38.207Z</time></trkpt><trkpt lat="45.8583459" lon="13.6913545"><ele>601.6</ele><time>2026-04-25T10:11:39.207Z</time></trkpt><trkpt lat="45.8583847" lon="13.6912509"><ele>601.2</ele><time>2026-04-25T10:11:40.207Z</time></trkpt><trkpt lat="45.858435" lon="13.6911455"><ele>600.8</ele><time>2026-04-25T10:11:41.207Z</time></trkpt><trkpt lat="45.8584946" lon="13.6910415"><ele>600.4</ele><time>2026-04-25T10:11:42.207Z</time></trkpt><trkpt lat="45.858565" lon="13.6909442"><ele>600.0</ele><time>2026-04-25T10:11:43.207Z</time></trkpt><trkpt lat="45.8586423" lon="13.6908521"><ele>600.0</ele><time>2026-04-25T10:11:44.207Z</time></trkpt><trkpt lat="45.8587119" lon="13.6907527"><ele>600.0</ele><time>2026-04-25T10:11:45.207Z</time></trkpt><trkpt lat="45.8587774" lon="13.6906661"><ele>600.0</ele><time>2026-04-25T10:11:46.207Z</time></trkpt><trkpt lat="45.8588459" lon="13.6905907"><ele>600.0</ele><time>2026-04-25T10:11:47.207Z</time></trkpt><trkpt lat="45.8589114" lon="13.6905057"><ele>600.0</ele><time>2026-04-25T10:11:48.207Z</time></trkpt><trkpt lat="45.8589787" lon="13.6904296"><ele>600.0</ele><time>2026-04-25T10:11:49.207Z</time></trkpt><trkpt lat="45.8590538" lon="13.6903493"><ele>600.0</ele><time>2026-04-25T10:11:50.207Z</time></trkpt><trkpt lat="45.8591259" lon="13.6902799"><ele>600.0</ele><time>2026-04-25T10:11:51.208Z</time></trkpt><trkpt lat="45.8592004" lon="13.6902146"><ele>600.0</ele><time>2026-04-25T10:11:52.207Z</time></trkpt><trkpt lat="45.8592794" lon="13.6901537"><ele>600.0</ele><time>2026-04-25T10:11:53.207Z</time></trkpt><trkpt lat="45.8593558" lon="13.6901004"><ele>600.0</ele><time>2026-04-25T10:11:54.207Z</time></trkpt><trkpt lat="45.8594296" lon="13.6900501"><ele>600.0</ele><time>2026-04-25T10:11:55.207Z</time></trkpt><trkpt lat="45.8594968" lon="13.6900005"><ele>598.0</ele><time>2026-04-25T10:11:56.207Z</time></trkpt><trkpt lat="45.859563" lon="13.6899652"><ele>596.0</ele><time>2026-04-25T10:11:57.207Z</time></trkpt><trkpt lat="45.8596344" lon="13.6899347"><ele>594.0</ele><time>2026-04-25T10:11:58.207Z</time></trkpt><trkpt lat="45.8597139" lon="13.6898999"><ele>592.0</ele><time>2026-04-25T10:11:59.207Z</time></trkpt><trkpt lat="45.8597938" lon="13.6898809"><ele>590.0</ele><time>2026-04-25T10:12:00.207Z</time></trkpt><trkpt lat="45.8598799" lon="13.6898687"><ele>588.0</ele><time>2026-04-25T10:12:01.207Z</time></trkpt><trkpt lat="45.8599656" lon="13.6898522"><ele>588.0</ele><time>2026-04-25T10:12:02.207Z</time></trkpt><trkpt lat="45.8600543" lon="13.6898422"><ele>588.0</ele><time>2026-04-25T10:12:03.207Z</time></trkpt><trkpt lat="45.8601354" lon="13.6898336"><ele>588.0</ele><time>2026-04-25T10:12:04.207Z</time></trkpt><trkpt lat="45.8602155" lon="13.6898246"><ele>588.0</ele><time>2026-04-25T10:12:05.207Z</time></trkpt><trkpt lat="45.8602927" lon="13.6898102"><ele>588.0</ele><time>2026-04-25T10:12:06.207Z</time></trkpt><trkpt lat="45.8603642" lon="13.6897954"><ele>588.0</ele><time>2026-04-25T10:12:07.207Z</time></trkpt><trkpt lat="45.8604384" lon="13.6897802"><ele>586.6666666666666</ele><time>2026-04-25T10:12:08.207Z</time></trkpt><trkpt lat="45.8605072" lon="13.6897652"><ele>585.3333333333334</ele><time>2026-04-25T10:12:09.207Z</time></trkpt><trkpt lat="45.8605767" lon="13.6897532"><ele>584.0</ele><time>2026-04-25T10:12:10.207Z</time></trkpt><trkpt lat="45.8606408" lon="13.6897498"><ele>582.6666666666667</ele><time>2026-04-25T10:12:11.207Z</time></trkpt><trkpt lat="45.8607556" lon="13.689718"><ele>581.3333333333334</ele><time>2026-04-25T10:12:13.207Z</time></trkpt><trkpt lat="45.8608236" lon="13.6896542"><ele>580.0</ele><time>2026-04-25T10:12:15.207Z</time></trkpt><trkpt lat="45.86084" lon="13.6895311"><ele>580.0</ele><time>2026-04-25T10:12:18.207Z</time></trkpt><trkpt lat="45.8607999" lon="13.6894594"><ele>580.0</ele><time>2026-04-25T10:12:20.207Z</time></trkpt><trkpt lat="45.8607364" lon="13.6894242"><ele>580.0</ele><time>2026-04-25T10:12:22.207Z</time></trkpt><trkpt lat="45.86066" lon="13.689406"><ele>580.0</ele><time>2026-04-25T10:12:24.207Z</time></trkpt><trkpt lat="45.860596" lon="13.6893659"><ele>580.0</ele><time>2026-04-25T10:12:26.207Z</time></trkpt><trkpt lat="45.8605821" lon="13.6892338"><ele>580.0</ele><time>2026-04-25T10:12:29.207Z</time></trkpt><trkpt lat="45.8606186" lon="13.6890793"><ele>577.2857142857143</ele><time>2026-04-25T10:12:31.207Z</time></trkpt><trkpt lat="45.8606371" lon="13.6889923"><ele>574.5714285714287</ele><time>2026-04-25T10:12:32.207Z</time></trkpt><trkpt lat="45.8606515" lon="13.6888957"><ele>571.8571428571429</ele><time>2026-04-25T10:12:33.207Z</time></trkpt><trkpt lat="45.8606643" lon="13.688802"><ele>569.1428571428571</ele><time>2026-04-25T10:12:34.207Z</time></trkpt><trkpt lat="45.8606828" lon="13.6887034"><ele>566.4285714285713</ele><time>2026-04-25T10:12:35.207Z</time></trkpt><trkpt lat="45.8607156" lon="13.6886123"><ele>563.7142857142857</ele><time>2026-04-25T10:12:36.207Z</time></trkpt><trkpt lat="45.8607649" lon="13.6885365"><ele>561.0</ele><time>2026-04-25T10:12:37.207Z</time></trkpt><trkpt lat="45.8608269" lon="13.6884749"><ele>558.0</ele><time>2026-04-25T10:12:38.207Z</time></trkpt><trkpt lat="45.8608977" lon="13.6884304"><ele>555.0</ele><time>2026-04-25T10:12:39.207Z</time></trkpt><trkpt lat="45.8609625" lon="13.6883822"><ele>552.0</ele><time>2026-04-25T10:12:40.207Z</time></trkpt><trkpt lat="45.8610229" lon="13.6883461"><ele>549.0</ele><time>2026-04-25T10:12:41.207Z</time></trkpt><trkpt lat="45.8611206" lon="13.6882578"><ele>546.0</ele><time>2026-04-25T10:12:43.207Z</time></trkpt><trkpt lat="45.8612191" lon="13.6881448"><ele>546.0</ele><time>2026-04-25T10:12:45.207Z</time></trkpt><trkpt lat="45.8612726" lon="13.6880755"><ele>546.0</ele><time>2026-04-25T10:12:46.207Z</time></trkpt><trkpt lat="45.8613225" lon="13.6880053"><ele>546.0</ele><time>2026-04-25T10:12:47.207Z</time></trkpt><trkpt lat="45.8613797" lon="13.6879374"><ele>546.0</ele><time>2026-04-25T10:12:48.207Z</time></trkpt><trkpt lat="45.8614205" lon="13.6878685"><ele>546.0</ele><time>2026-04-25T10:12:49.207Z</time></trkpt><trkpt lat="45.861461" lon="13.6877941"><ele>546.0</ele><time>2026-04-25T10:12:50.207Z</time></trkpt><trkpt lat="45.8615078" lon="13.6876304"><ele>544.1666666666666</ele><time>2026-04-25T10:12:52.207Z</time></trkpt><trkpt lat="45.8615097" lon="13.6874751"><ele>542.3333333333334</ele><time>2026-04-25T10:12:54.207Z</time></trkpt><trkpt lat="45.8614843" lon="13.6873448"><ele>540.5</ele><time>2026-04-25T10:12:56.207Z</time></trkpt><trkpt lat="45.8614557" lon="13.6872537"><ele>538.6666666666667</ele><time>2026-04-25T10:12:58.207Z</time></trkpt><trkpt lat="45.8614126" lon="13.687185"><ele>536.8333333333334</ele><time>2026-04-25T10:13:01.207Z</time></trkpt><trkpt lat="45.8613718" lon="13.6871077"><ele>535.0</ele><time>2026-04-25T10:13:05.207Z</time></trkpt><trkpt lat="45.8612987" lon="13.6869737"><ele>533.6666666666667</ele><time>2026-04-25T10:13:08.207Z</time></trkpt><trkpt lat="45.8612559" lon="13.6868985"><ele>532.3333333333334</ele><time>2026-04-25T10:13:09.208Z</time></trkpt><trkpt lat="45.8612095" lon="13.686813"><ele>531.0</ele><time>2026-04-25T10:13:10.207Z</time></trkpt><trkpt lat="45.8611563" lon="13.686723"><ele>529.6666666666666</ele><time>2026-04-25T10:13:11.208Z</time></trkpt><trkpt lat="45.861103" lon="13.6866297"><ele>528.3333333333333</ele><time>2026-04-25T10:13:12.207Z</time></trkpt><trkpt lat="45.8610361" lon="13.6865368"><ele>527.0</ele><time>2026-04-25T10:13:13.207Z</time></trkpt><trkpt lat="45.8609599" lon="13.6864326"><ele>527.0</ele><time>2026-04-25T10:13:14.207Z</time></trkpt><trkpt lat="45.860883" lon="13.6863321"><ele>527.0</ele><time>2026-04-25T10:13:15.207Z</time></trkpt><trkpt lat="45.8608023" lon="13.6862414"><ele>527.0</ele><time>2026-04-25T10:13:16.207Z</time></trkpt><trkpt lat="45.8607225" lon="13.6861481"><ele>527.0</ele><time>2026-04-25T10:13:17.207Z</time></trkpt><trkpt lat="45.8606519" lon="13.6860616"><ele>527.0</ele><time>2026-04-25T10:13:18.207Z</time></trkpt><trkpt lat="45.860593" lon="13.6859869"><ele>529.5</ele><time>2026-04-25T10:13:19.207Z</time></trkpt><trkpt lat="45.8605324" lon="13.6859167"><ele>532.0</ele><time>2026-04-25T10:13:20.207Z</time></trkpt><trkpt lat="45.8604787" lon="13.6858554"><ele>534.5</ele><time>2026-04-25T10:13:21.207Z</time></trkpt><trkpt lat="45.8604153" lon="13.6857838"><ele>537.0</ele><time>2026-04-25T10:13:22.207Z</time></trkpt><trkpt lat="45.8603541" lon="13.6857179"><ele>539.5</ele><time>2026-04-25T10:13:23.207Z</time></trkpt><trkpt lat="45.8602857" lon="13.6856445"><ele>542.0</ele><time>2026-04-25T10:13:24.207Z</time></trkpt><trkpt lat="45.8602174" lon="13.6855647"><ele>542.0</ele><time>2026-04-25T10:13:25.207Z</time></trkpt><trkpt lat="45.8601536" lon="13.6854701"><ele>542.0</ele><time>2026-04-25T10:13:26.208Z</time></trkpt><trkpt lat="45.8600928" lon="13.6853681"><ele>542.0</ele><time>2026-04-25T10:13:27.207Z</time></trkpt><trkpt lat="45.8600402" lon="13.6852619"><ele>542.0</ele><time>2026-04-25T10:13:28.207Z</time></trkpt><trkpt lat="45.8599903" lon="13.6851494"><ele>542.0</ele><time>2026-04-25T10:13:29.207Z</time></trkpt><trkpt lat="45.859952" lon="13.6850327"><ele>542.0</ele><time>2026-04-25T10:13:30.208Z</time></trkpt><trkpt lat="45.8599137" lon="13.6849021"><ele>542.0</ele><time>2026-04-25T10:13:31.207Z</time></trkpt><trkpt lat="45.8598874" lon="13.6847709"><ele>542.0</ele><time>2026-04-25T10:13:32.207Z</time></trkpt><trkpt lat="45.8598619" lon="13.6846298"><ele>542.0</ele><time>2026-04-25T10:13:33.207Z</time></trkpt><trkpt lat="45.8598402" lon="13.6844814"><ele>542.0</ele><time>2026-04-25T10:13:34.207Z</time></trkpt><trkpt lat="45.8598281" lon="13.684355"><ele>542.8333333333333</ele><time>2026-04-25T10:13:35.207Z</time></trkpt><trkpt lat="45.859822" lon="13.6842406"><ele>543.6666666666666</ele><time>2026-04-25T10:13:36.207Z</time></trkpt><trkpt lat="45.8598231" lon="13.6841215"><ele>544.5</ele><time>2026-04-25T10:13:37.207Z</time></trkpt><trkpt lat="45.8598274" lon="13.6839873"><ele>545.3333333333334</ele><time>2026-04-25T10:13:38.207Z</time></trkpt><trkpt lat="45.8598408" lon="13.6838526"><ele>546.1666666666667</ele><time>2026-04-25T10:13:39.207Z</time></trkpt><trkpt lat="45.859857" lon="13.6837329"><ele>547.0</ele><time>2026-04-25T10:13:40.207Z</time></trkpt><trkpt lat="45.8598773" lon="13.6836145"><ele>546.1666666666667</ele><time>2026-04-25T10:13:41.207Z</time></trkpt><trkpt lat="45.8598981" lon="13.6834974"><ele>545.3333333333334</ele><time>2026-04-25T10:13:42.207Z</time></trkpt><trkpt lat="45.8599265" lon="13.6833846"><ele>544.5</ele><time>2026-04-25T10:13:43.207Z</time></trkpt><trkpt lat="45.859953" lon="13.6832765"><ele>543.6666666666666</ele><time>2026-04-25T10:13:44.207Z</time></trkpt><trkpt lat="45.8599918" lon="13.6831724"><ele>542.8333333333333</ele><time>2026-04-25T10:13:45.207Z</time></trkpt><trkpt lat="45.8600394" lon="13.6830827"><ele>542.0</ele><time>2026-04-25T10:13:46.207Z</time></trkpt><trkpt lat="45.8600957" lon="13.682997"><ele>541.5</ele><time>2026-04-25T10:13:47.207Z</time></trkpt><trkpt lat="45.860152" lon="13.6829157"><ele>541.0</ele><time>2026-04-25T10:13:48.207Z</time></trkpt><trkpt lat="45.8602151" lon="13.6828397"><ele>540.5</ele><time>2026-04-25T10:13:49.207Z</time></trkpt><trkpt lat="45.8602772" lon="13.6827779"><ele>540.0</ele><time>2026-04-25T10:13:50.207Z</time></trkpt><trkpt lat="45.8603444" lon="13.6827093"><ele>539.5</ele><time>2026-04-25T10:13:51.207Z</time></trkpt><trkpt lat="45.8604162" lon="13.6826459"><ele>539.0</ele><time>2026-04-25T10:13:52.207Z</time></trkpt><trkpt lat="45.8604875" lon="13.6825933"><ele>539.0</ele><time>2026-04-25T10:13:53.207Z</time></trkpt><trkpt lat="45.8605597" lon="13.6825429"><ele>539.0</ele><time>2026-04-25T10:13:54.207Z</time></trkpt><trkpt lat="45.8606306" lon="13.682508"><ele>539.0</ele><time>2026-04-25T10:13:55.207Z</time></trkpt><trkpt lat="45.8607032" lon="13.6824697"><ele>539.0</ele><time>2026-04-25T10:13:56.207Z</time></trkpt><trkpt lat="45.8607746" lon="13.6824472"><ele>539.0</ele><time>2026-04-25T10:13:57.207Z</time></trkpt><trkpt lat="45.8608496" lon="13.6824378"><ele>539.0</ele><time>2026-04-25T10:13:58.207Z</time></trkpt><trkpt lat="45.8609297" lon="13.6824421"><ele>537.2857142857143</ele><time>2026-04-25T10:13:59.207Z</time></trkpt><trkpt lat="45.8610093" lon="13.6824541"><ele>535.5714285714286</ele><time>2026-04-25T10:14:00.207Z</time></trkpt><trkpt lat="45.8610823" lon="13.6824754"><ele>533.8571428571429</ele><time>2026-04-25T10:14:01.208Z</time></trkpt><trkpt lat="45.8611503" lon="13.6824991"><ele>532.1428571428571</ele><time>2026-04-25T10:14:02.207Z</time></trkpt><trkpt lat="45.8612181" lon="13.6825114"><ele>530.4285714285714</ele><time>2026-04-25T10:14:03.208Z</time></trkpt><trkpt lat="45.8612874" lon="13.6825163"><ele>528.7142857142858</ele><time>2026-04-25T10:14:04.207Z</time></trkpt><trkpt lat="45.8613534" lon="13.6825135"><ele>527.0</ele><time>2026-04-25T10:14:05.208Z</time></trkpt><trkpt lat="45.8614179" lon="13.6824906"><ele>527.0</ele><time>2026-04-25T10:14:06.207Z</time></trkpt><trkpt lat="45.8614721" lon="13.6824394"><ele>527.0</ele><time>2026-04-25T10:14:07.207Z</time></trkpt><trkpt lat="45.861564" lon="13.6823114"><ele>527.0</ele><time>2026-04-25T10:14:09.207Z</time></trkpt><trkpt lat="45.8616214" lon="13.6821591"><ele>527.0</ele><time>2026-04-25T10:14:11.207Z</time></trkpt><trkpt lat="45.8616327" lon="13.6820697"><ele>527.0</ele><time>2026-04-25T10:14:12.207Z</time></trkpt><trkpt lat="45.8616363" lon="13.6819779"><ele>527.0</ele><time>2026-04-25T10:14:13.207Z</time></trkpt><trkpt lat="45.8616291" lon="13.681886"><ele>525.4</ele><time>2026-04-25T10:14:14.207Z</time></trkpt><trkpt lat="45.8615941" lon="13.6817196"><ele>523.8000000000001</ele><time>2026-04-25T10:14:16.207Z</time></trkpt><trkpt lat="45.8615423" lon="13.6815642"><ele>522.2</ele><time>2026-04-25T10:14:18.207Z</time></trkpt><trkpt lat="45.8615108" lon="13.6814846"><ele>520.6</ele><time>2026-04-25T10:14:19.208Z</time></trkpt><trkpt lat="45.8614955" lon="13.681329"><ele>519.0</ele><time>2026-04-25T10:14:21.207Z</time></trkpt><trkpt lat="45.8615743" lon="13.6812578"><ele>519.0</ele><time>2026-04-25T10:14:23.207Z</time></trkpt><trkpt lat="45.8616339" lon="13.6812109"><ele>519.0</ele><time>2026-04-25T10:14:25.207Z</time></trkpt><trkpt lat="45.8617105" lon="13.6810947"><ele>519.0</ele><time>2026-04-25T10:14:39.207Z</time></trkpt><trkpt lat="45.8617477" lon="13.6810195"><ele>519.0</ele><time>2026-04-25T10:14:40.207Z</time></trkpt><trkpt lat="45.8617898" lon="13.680924"><ele>519.0</ele><time>2026-04-25T10:14:41.207Z</time></trkpt><trkpt lat="45.8618289" lon="13.6808209"><ele>519.0</ele><time>2026-04-25T10:14:42.207Z</time></trkpt><trkpt lat="45.8618715" lon="13.6807188"><ele>516.6666666666666</ele><time>2026-04-25T10:14:43.208Z</time></trkpt><trkpt lat="45.8619112" lon="13.6806289"><ele>514.3333333333334</ele><time>2026-04-25T10:14:44.207Z</time></trkpt><trkpt lat="45.8619531" lon="13.6805509"><ele>512.0</ele><time>2026-04-25T10:14:45.207Z</time></trkpt><trkpt lat="45.8620069" lon="13.6804747"><ele>509.6666666666667</ele><time>2026-04-25T10:14:46.208Z</time></trkpt><trkpt lat="45.8620646" lon="13.6803943"><ele>507.33333333333337</ele><time>2026-04-25T10:14:47.207Z</time></trkpt><trkpt lat="45.8621215" lon="13.6803111"><ele>505.0</ele><time>2026-04-25T10:14:48.207Z</time></trkpt><trkpt lat="45.8621697" lon="13.680227"><ele>505.00000000000006</ele><time>2026-04-25T10:14:49.207Z</time></trkpt><trkpt lat="45.8622132" lon="13.6801452"><ele>505.0</ele><time>2026-04-25T10:14:50.207Z</time></trkpt><trkpt lat="45.8622541" lon="13.6800456"><ele>505.0</ele><time>2026-04-25T10:14:51.207Z</time></trkpt><trkpt lat="45.8622906" lon="13.6799302"><ele>505.0</ele><time>2026-04-25T10:14:52.207Z</time></trkpt><trkpt lat="45.8623266" lon="13.6797958"><ele>505.00000000000006</ele><time>2026-04-25T10:14:53.207Z</time></trkpt><trkpt lat="45.8623588" lon="13.679668"><ele>505.0</ele><time>2026-04-25T10:14:54.208Z</time></trkpt><trkpt lat="45.8623904" lon="13.6795294"><ele>505.4</ele><time>2026-04-25T10:14:55.208Z</time></trkpt><trkpt lat="45.8624203" lon="13.6793823"><ele>505.8</ele><time>2026-04-25T10:14:56.207Z</time></trkpt><trkpt lat="45.862448" lon="13.6792353"><ele>506.20000000000005</ele><time>2026-04-25T10:14:57.207Z</time></trkpt><trkpt lat="45.8624766" lon="13.6790902"><ele>506.6</ele><time>2026-04-25T10:14:58.207Z</time></trkpt><trkpt lat="45.8625095" lon="13.6789507"><ele>507.0</ele><time>2026-04-25T10:14:59.207Z</time></trkpt><trkpt lat="45.86254" lon="13.6788069"><ele>507.0</ele><time>2026-04-25T10:15:00.207Z</time></trkpt><trkpt lat="45.8625807" lon="13.6786622"><ele>507.00000000000006</ele><time>2026-04-25T10:15:01.207Z</time></trkpt><trkpt lat="45.8626164" lon="13.6785181"><ele>507.00000000000006</ele><time>2026-04-25T10:15:02.207Z</time></trkpt><trkpt lat="45.8626449" lon="13.6783705"><ele>507.0</ele><time>2026-04-25T10:15:03.207Z</time></trkpt><trkpt lat="45.8626746" lon="13.67823"><ele>507.0</ele><time>2026-04-25T10:15:04.207Z</time></trkpt><trkpt lat="45.8627072" lon="13.6780774"><ele>500.6</ele><time>2026-04-25T10:15:05.207Z</time></trkpt><trkpt lat="45.862742" lon="13.6779235"><ele>494.20000000000005</ele><time>2026-04-25T10:15:06.207Z</time></trkpt><trkpt lat="45.862771" lon="13.6777714"><ele>487.8</ele><time>2026-04-25T10:15:07.207Z</time></trkpt><trkpt lat="45.8628012" lon="13.677627"><ele>481.4</ele><time>2026-04-25T10:15:08.207Z</time></trkpt><trkpt lat="45.862828" lon="13.6774974"><ele>475.0</ele><time>2026-04-25T10:15:09.207Z</time></trkpt><trkpt lat="45.8628519" lon="13.6773724"><ele>474.8</ele><time>2026-04-25T10:15:10.207Z</time></trkpt><trkpt lat="45.8628755" lon="13.6772542"><ele>474.6</ele><time>2026-04-25T10:15:11.207Z</time></trkpt><trkpt lat="45.8628933" lon="13.6771215"><ele>474.4</ele><time>2026-04-25T10:15:12.207Z</time></trkpt><trkpt lat="45.8629087" lon="13.6769851"><ele>474.2</ele><time>2026-04-25T10:15:13.207Z</time></trkpt><trkpt lat="45.8629212" lon="13.6768459"><ele>474.0</ele><time>2026-04-25T10:15:14.207Z</time></trkpt><trkpt lat="45.8629229" lon="13.6767121"><ele>474.4</ele><time>2026-04-25T10:15:15.207Z</time></trkpt><trkpt lat="45.8629215" lon="13.6765802"><ele>474.79999999999995</ele><time>2026-04-25T10:15:16.207Z</time></trkpt><trkpt lat="45.8629181" lon="13.6764365"><ele>475.20000000000005</ele><time>2026-04-25T10:15:17.207Z</time></trkpt><trkpt lat="45.862909" lon="13.6762987"><ele>475.6</ele><time>2026-04-25T10:15:18.207Z</time></trkpt><trkpt lat="45.8628922" lon="13.6761629"><ele>476.0</ele><time>2026-04-25T10:15:19.207Z</time></trkpt><trkpt lat="45.86287" lon="13.6760173"><ele>474.0</ele><time>2026-04-25T10:15:20.207Z</time></trkpt><trkpt lat="45.8628418" lon="13.6758706"><ele>472.0</ele><time>2026-04-25T10:15:21.207Z</time></trkpt><trkpt lat="45.8628177" lon="13.6757251"><ele>470.0</ele><time>2026-04-25T10:15:22.207Z</time></trkpt><trkpt lat="45.8627965" lon="13.6755753"><ele>468.0</ele><time>2026-04-25T10:15:23.207Z</time></trkpt><trkpt lat="45.8627816" lon="13.6754275"><ele>466.0</ele><time>2026-04-25T10:15:24.207Z</time></trkpt><trkpt lat="45.8627638" lon="13.6752702"><ele>464.6</ele><time>2026-04-25T10:15:25.207Z</time></trkpt><trkpt lat="45.8627486" lon="13.6751211"><ele>463.20000000000005</ele><time>2026-04-25T10:15:26.207Z</time></trkpt><trkpt lat="45.862733" lon="13.6749962"><ele>461.79999999999995</ele><time>2026-04-25T10:15:27.207Z</time></trkpt><trkpt lat="45.8627161" lon="13.674894"><ele>460.4</ele><time>2026-04-25T10:15:28.207Z</time></trkpt><trkpt lat="45.8626697" lon="13.674754"><ele>459.0</ele><time>2026-04-25T10:15:30.207Z</time></trkpt><trkpt lat="45.8625945" lon="13.6746208"><ele>462.0</ele><time>2026-04-25T10:15:32.207Z</time></trkpt><trkpt lat="45.8625546" lon="13.6745332"><ele>465.0</ele><time>2026-04-25T10:15:33.207Z</time></trkpt><trkpt lat="45.8625289" lon="13.6744338"><ele>468.0</ele><time>2026-04-25T10:15:34.207Z</time></trkpt><trkpt lat="45.8625117" lon="13.6743165"><ele>471.0</ele><time>2026-04-25T10:15:35.207Z</time></trkpt><trkpt lat="45.8625015" lon="13.6741841"><ele>474.0</ele><time>2026-04-25T10:15:36.207Z</time></trkpt><trkpt lat="45.8625031" lon="13.6740598"><ele>477.0</ele><time>2026-04-25T10:15:37.207Z</time></trkpt><trkpt lat="45.8625103" lon="13.6739354"><ele>477.0</ele><time>2026-04-25T10:15:38.208Z</time></trkpt><trkpt lat="45.8625218" lon="13.6738328"><ele>477.0</ele><time>2026-04-25T10:15:39.207Z</time></trkpt><trkpt lat="45.8625687" lon="13.6737106"><ele>477.0</ele><time>2026-04-25T10:15:41.207Z</time></trkpt><trkpt lat="45.8626384" lon="13.67366"><ele>477.0</ele><time>2026-04-25T10:15:43.207Z</time></trkpt><trkpt lat="45.8627199" lon="13.6736444"><ele>477.0</ele><time>2026-04-25T10:15:53.207Z</time></trkpt><trkpt lat="45.8627962" lon="13.6736027"><ele>477.0</ele><time>2026-04-25T10:15:55.208Z</time></trkpt><trkpt lat="45.8628723" lon="13.6735051"><ele>473.0</ele><time>2026-04-25T10:15:57.207Z</time></trkpt><trkpt lat="45.8629411" lon="13.6733696"><ele>469.00000000000006</ele><time>2026-04-25T10:15:59.207Z</time></trkpt><trkpt lat="45.8629717" lon="13.6732903"><ele>465.00000000000006</ele><time>2026-04-25T10:16:00.208Z</time></trkpt><trkpt lat="45.8630176" lon="13.6731233"><ele>461.0</ele><time>2026-04-25T10:16:02.207Z</time></trkpt><trkpt lat="45.8630472" lon="13.6729419"><ele>457.0</ele><time>2026-04-25T10:16:04.207Z</time></trkpt><trkpt lat="45.8630593" lon="13.6728332"><ele>457.50000000000006</ele><time>2026-04-25T10:16:05.207Z</time></trkpt><trkpt lat="45.8630767" lon="13.6727293"><ele>458.0</ele><time>2026-04-25T10:16:06.207Z</time></trkpt><trkpt lat="45.8630966" lon="13.6726232"><ele>458.5</ele><time>2026-04-25T10:16:07.207Z</time></trkpt><trkpt lat="45.8631198" lon="13.6725019"><ele>459.0</ele><time>2026-04-25T10:16:08.207Z</time></trkpt><trkpt lat="45.8631518" lon="13.6723821"><ele>459.50000000000006</ele><time>2026-04-25T10:16:09.207Z</time></trkpt><trkpt lat="45.8631864" lon="13.6722589"><ele>460.0</ele><time>2026-04-25T10:16:10.207Z</time></trkpt><trkpt lat="45.863223" lon="13.6721356"><ele>460.0</ele><time>2026-04-25T10:16:11.207Z</time></trkpt><trkpt lat="45.8632656" lon="13.6720227"><ele>460.0</ele><time>2026-04-25T10:16:12.207Z</time></trkpt><trkpt lat="45.863315" lon="13.6719048"><ele>460.0</ele><time>2026-04-25T10:16:13.207Z</time></trkpt><trkpt lat="45.8633636" lon="13.6717941"><ele>460.0</ele><time>2026-04-25T10:16:14.207Z</time></trkpt><trkpt lat="45.8634152" lon="13.6716795"><ele>460.0</ele><time>2026-04-25T10:16:15.208Z</time></trkpt><trkpt lat="45.8634651" lon="13.6715655"><ele>455.8</ele><time>2026-04-25T10:16:16.207Z</time></trkpt><trkpt lat="45.8635158" lon="13.6714596"><ele>451.6</ele><time>2026-04-25T10:16:17.207Z</time></trkpt><trkpt lat="45.8635689" lon="13.6713423"><ele>447.4</ele><time>2026-04-25T10:16:18.207Z</time></trkpt><trkpt lat="45.8636195" lon="13.6712212"><ele>443.2</ele><time>2026-04-25T10:16:19.207Z</time></trkpt><trkpt lat="45.8636677" lon="13.6711052"><ele>439.0</ele><time>2026-04-25T10:16:20.207Z</time></trkpt><trkpt lat="45.8637153" lon="13.6709865"><ele>439.0</ele><time>2026-04-25T10:16:21.207Z</time></trkpt><trkpt lat="45.863763" lon="13.6708633"><ele>439.0</ele><time>2026-04-25T10:16:22.208Z</time></trkpt><trkpt lat="45.8638076" lon="13.670735"><ele>439.0</ele><time>2026-04-25T10:16:23.207Z</time></trkpt><trkpt lat="45.8638494" lon="13.6706149"><ele>439.0</ele><time>2026-04-25T10:16:24.207Z</time></trkpt><trkpt lat="45.8638908" lon="13.6704899"><ele>439.0</ele><time>2026-04-25T10:16:25.207Z</time></trkpt><trkpt lat="45.8639327" lon="13.6703591"><ele>440.2</ele><time>2026-04-25T10:16:26.207Z</time></trkpt><trkpt lat="45.8639679" lon="13.6702288"><ele>441.4</ele><time>2026-04-25T10:16:27.207Z</time></trkpt><trkpt lat="45.8640052" lon="13.6701011"><ele>442.6</ele><time>2026-04-25T10:16:28.207Z</time></trkpt><trkpt lat="45.8640461" lon="13.6699781"><ele>443.8</ele><time>2026-04-25T10:16:29.207Z</time></trkpt><trkpt lat="45.8640851" lon="13.6698463"><ele>445.0</ele><time>2026-04-25T10:16:30.207Z</time></trkpt><trkpt lat="45.8641165" lon="13.6697227"><ele>445.00000000000006</ele><time>2026-04-25T10:16:31.208Z</time></trkpt><trkpt lat="45.8641409" lon="13.6695997"><ele>445.0</ele><time>2026-04-25T10:16:32.207Z</time></trkpt><trkpt lat="45.864169" lon="13.6694889"><ele>445.0</ele><time>2026-04-25T10:16:33.207Z</time></trkpt><trkpt lat="45.8641903" lon="13.669379"><ele>445.0</ele><time>2026-04-25T10:16:34.208Z</time></trkpt><trkpt lat="45.8642068" lon="13.6692532"><ele>445.00000000000006</ele><time>2026-04-25T10:16:35.207Z</time></trkpt><trkpt lat="45.8642243" lon="13.6691236"><ele>445.0</ele><time>2026-04-25T10:16:36.207Z</time></trkpt><trkpt lat="45.8642399" lon="13.6689981"><ele>445.6</ele><time>2026-04-25T10:16:37.207Z</time></trkpt><trkpt lat="45.8642589" lon="13.6688576"><ele>446.2</ele><time>2026-04-25T10:16:38.207Z</time></trkpt><trkpt lat="45.8642732" lon="13.6687177"><ele>446.79999999999995</ele><time>2026-04-25T10:16:39.207Z</time></trkpt><trkpt lat="45.8642883" lon="13.6685761"><ele>447.4</ele><time>2026-04-25T10:16:40.207Z</time></trkpt><trkpt lat="45.8643018" lon="13.6684155"><ele>448.0</ele><time>2026-04-25T10:16:41.207Z</time></trkpt><trkpt lat="45.8643144" lon="13.6682622"><ele>439.2</ele><time>2026-04-25T10:16:42.207Z</time></trkpt><trkpt lat="45.8643286" lon="13.6681095"><ele>430.4</ele><time>2026-04-25T10:16:43.207Z</time></trkpt><trkpt lat="45.8643461" lon="13.6679607"><ele>421.59999999999997</ele><time>2026-04-25T10:16:44.207Z</time></trkpt><trkpt lat="45.8643628" lon="13.6678194"><ele>412.79999999999995</ele><time>2026-04-25T10:16:45.207Z</time></trkpt><trkpt lat="45.8643775" lon="13.6676839"><ele>404.0</ele><time>2026-04-25T10:16:46.207Z</time></trkpt><trkpt lat="45.8643942" lon="13.6675549"><ele>403.6</ele><time>2026-04-25T10:16:47.207Z</time></trkpt><trkpt lat="45.8644106" lon="13.6674226"><ele>403.2</ele><time>2026-04-25T10:16:48.207Z</time></trkpt><trkpt lat="45.8644219" lon="13.6672921"><ele>402.8</ele><time>2026-04-25T10:16:49.207Z</time></trkpt><trkpt lat="45.8644307" lon="13.6671611"><ele>402.40000000000003</ele><time>2026-04-25T10:16:50.207Z</time></trkpt><trkpt lat="45.8644391" lon="13.6670258"><ele>402.0</ele><time>2026-04-25T10:16:51.207Z</time></trkpt><trkpt lat="45.8644389" lon="13.6668765"><ele>400.8</ele><time>2026-04-25T10:16:52.207Z</time></trkpt><trkpt lat="45.8644357" lon="13.6667294"><ele>399.6</ele><time>2026-04-25T10:16:53.207Z</time></trkpt><trkpt lat="45.864435" lon="13.6665825"><ele>398.40000000000003</ele><time>2026-04-25T10:16:54.207Z</time></trkpt><trkpt lat="45.8644401" lon="13.6664253"><ele>397.20000000000005</ele><time>2026-04-25T10:16:55.207Z</time></trkpt><trkpt lat="45.8644503" lon="13.6662752"><ele>396.0</ele><time>2026-04-25T10:16:56.207Z</time></trkpt><trkpt lat="45.8644659" lon="13.6661371"><ele>396.1666666666667</ele><time>2026-04-25T10:16:57.207Z</time></trkpt><trkpt lat="45.8644779" lon="13.6660032"><ele>396.33333333333337</ele><time>2026-04-25T10:16:58.207Z</time></trkpt><trkpt lat="45.8644858" lon="13.6658755"><ele>396.5</ele><time>2026-04-25T10:16:59.207Z</time></trkpt><trkpt lat="45.8644914" lon="13.6657512"><ele>396.6666666666667</ele><time>2026-04-25T10:17:00.207Z</time></trkpt><trkpt lat="45.8644898" lon="13.6656251"><ele>396.83333333333337</ele><time>2026-04-25T10:17:01.208Z</time></trkpt><trkpt lat="45.8644822" lon="13.6655144"><ele>397.0</ele><time>2026-04-25T10:17:02.207Z</time></trkpt><trkpt lat="45.8644668" lon="13.6654038"><ele>397.0</ele><time>2026-04-25T10:17:03.207Z</time></trkpt><trkpt lat="45.8644438" lon="13.6652985"><ele>397.0</ele><time>2026-04-25T10:17:04.207Z</time></trkpt><trkpt lat="45.8644172" lon="13.6651885"><ele>397.0</ele><time>2026-04-25T10:17:05.207Z</time></trkpt><trkpt lat="45.8643827" lon="13.665089"><ele>397.0</ele><time>2026-04-25T10:17:06.207Z</time></trkpt><trkpt lat="45.8643504" lon="13.6649927"><ele>397.0</ele><time>2026-04-25T10:17:07.207Z</time></trkpt><trkpt lat="45.8643339" lon="13.664893"><ele>397.0</ele><time>2026-04-25T10:17:08.207Z</time></trkpt><trkpt lat="45.8643267" lon="13.6647989"><ele>397.0</ele><time>2026-04-25T10:17:09.208Z</time></trkpt><trkpt lat="45.8643268" lon="13.6646695"><ele>394.0</ele><time>2026-04-25T10:17:11.207Z</time></trkpt><trkpt lat="45.8643704" lon="13.6646019"><ele>394.0</ele><time>2026-04-25T10:17:29.207Z</time></trkpt></trkseg></trk></gpx>